<?xml version="1.0" encoding="UTF-8" standalone="no" ?>
<gpx xmlns="http://www.topografix.com/GPX/1/1" xmlns:xsi="http://www.w3.org/2001/XMLSchema-instance" xsi:schemaLocation="http://www.topografix.com/GPX/1/1 http://www.topografix.com/GPX/1/1/gpx.xsd" version="1.1" creator="VisuGPX - https://www.visugpx.com">
  <metadata>
    <name>Romme / Cluses</name>
    <desc><![CDATA[col La gueule à vent 2014m.
Montée par les chalets de Vorny
Descente par Mery]]></desc>
  </metadata>
  <trk>
    <name><![CDATA[2012-07-12-11-52-32 on GPSies.com]]></name>
    <trkseg>
      <trkpt lat="46.0279" lon="6.57317">
        <ele>1306.85</ele>
        <time>2012-07-12T11:52:32Z</time>
      </trkpt>
      <trkpt lat="46.02795" lon="6.57323">
        <ele>1305.481</ele>
        <time>2012-07-12T11:52:37Z</time>
      </trkpt>
      <trkpt lat="46.02793" lon="6.57328">
        <ele>1305.572</ele>
        <time>2012-07-12T11:52:40Z</time>
      </trkpt>
      <trkpt lat="46.02791" lon="6.5733">
        <ele>1305.573</ele>
        <time>2012-07-12T11:52:57Z</time>
      </trkpt>
      <trkpt lat="46.02789" lon="6.57332">
        <ele>1305.793</ele>
        <time>2012-07-12T11:53:00Z</time>
      </trkpt>
      <trkpt lat="46.02782" lon="6.57336">
        <ele>1306.353</ele>
        <time>2012-07-12T11:53:07Z</time>
      </trkpt>
      <trkpt lat="46.02775" lon="6.57341">
        <ele>1307.233</ele>
        <time>2012-07-12T11:53:14Z</time>
      </trkpt>
      <trkpt lat="46.02767" lon="6.57346">
        <ele>1307.963</ele>
        <time>2012-07-12T11:53:22Z</time>
      </trkpt>
      <trkpt lat="46.02763" lon="6.57349">
        <ele>1308.693</ele>
        <time>2012-07-12T11:53:26Z</time>
      </trkpt>
      <trkpt lat="46.02756" lon="6.57354">
        <ele>1309.693</ele>
        <time>2012-07-12T11:53:33Z</time>
      </trkpt>
      <trkpt lat="46.02748" lon="6.57361">
        <ele>1310.343</ele>
        <time>2012-07-12T11:53:42Z</time>
      </trkpt>
      <trkpt lat="46.02743" lon="6.57365">
        <ele>1311.244</ele>
        <time>2012-07-12T11:53:47Z</time>
      </trkpt>
      <trkpt lat="46.02737" lon="6.57371">
        <ele>1312.343</ele>
        <time>2012-07-12T11:53:54Z</time>
      </trkpt>
      <trkpt lat="46.02734" lon="6.57374">
        <ele>1312.602</ele>
        <time>2012-07-12T11:54:01Z</time>
      </trkpt>
      <trkpt lat="46.02743" lon="6.57375">
        <ele>1299.701</ele>
        <time>2012-07-12T11:54:20Z</time>
      </trkpt>
      <trkpt lat="46.0274" lon="6.57375">
        <ele>1303.293</ele>
        <time>2012-07-12T11:54:25Z</time>
      </trkpt>
      <trkpt lat="46.02742" lon="6.5738">
        <ele>1297.503</ele>
        <time>2012-07-12T11:54:32Z</time>
      </trkpt>
      <trkpt lat="46.02734" lon="6.57384">
        <ele>1298.133</ele>
        <time>2012-07-12T11:54:39Z</time>
      </trkpt>
      <trkpt lat="46.02723" lon="6.57388">
        <ele>1303.553</ele>
        <time>2012-07-12T11:54:46Z</time>
      </trkpt>
      <trkpt lat="46.02722" lon="6.57389">
        <ele>1304.523</ele>
        <time>2012-07-12T11:54:47Z</time>
      </trkpt>
      <trkpt lat="46.02711" lon="6.57397">
        <ele>1307.653</ele>
        <time>2012-07-12T11:54:57Z</time>
      </trkpt>
      <trkpt lat="46.02704" lon="6.57407">
        <ele>1309.343</ele>
        <time>2012-07-12T11:55:05Z</time>
      </trkpt>
      <trkpt lat="46.02701" lon="6.57413">
        <ele>1310.734</ele>
        <time>2012-07-12T11:55:09Z</time>
      </trkpt>
      <trkpt lat="46.02696" lon="6.57422">
        <ele>1311.733</ele>
        <time>2012-07-12T11:55:16Z</time>
      </trkpt>
      <trkpt lat="46.02692" lon="6.57428">
        <ele>1313.174</ele>
        <time>2012-07-12T11:55:21Z</time>
      </trkpt>
      <trkpt lat="46.02689" lon="6.57433">
        <ele>1314.283</ele>
        <time>2012-07-12T11:55:25Z</time>
      </trkpt>
      <trkpt lat="46.02684" lon="6.5744">
        <ele>1315.983</ele>
        <time>2012-07-12T11:55:31Z</time>
      </trkpt>
      <trkpt lat="46.02677" lon="6.57448">
        <ele>1317.363</ele>
        <time>2012-07-12T11:55:39Z</time>
      </trkpt>
      <trkpt lat="46.02671" lon="6.57456">
        <ele>1319.233</ele>
        <time>2012-07-12T11:55:47Z</time>
      </trkpt>
      <trkpt lat="46.02666" lon="6.57463">
        <ele>1320.483</ele>
        <time>2012-07-12T11:55:54Z</time>
      </trkpt>
      <trkpt lat="46.02664" lon="6.57466">
        <ele>1321.973</ele>
        <time>2012-07-12T11:56:00Z</time>
      </trkpt>
      <trkpt lat="46.02662" lon="6.57467">
        <ele>1323.112</ele>
        <time>2012-07-12T11:56:09Z</time>
      </trkpt>
      <trkpt lat="46.02662" lon="6.57467">
        <ele>1323.442</ele>
        <time>2012-07-12T11:56:10Z</time>
      </trkpt>
      <trkpt lat="46.02655" lon="6.57474">
        <ele>1323.582</ele>
        <time>2012-07-12T11:56:20Z</time>
      </trkpt>
      <trkpt lat="46.0265" lon="6.57474">
        <ele>1325.232</ele>
        <time>2012-07-12T11:56:24Z</time>
      </trkpt>
      <trkpt lat="46.02642" lon="6.57475">
        <ele>1328.274</ele>
        <time>2012-07-12T11:56:30Z</time>
      </trkpt>
      <trkpt lat="46.02635" lon="6.57479">
        <ele>1330.814</ele>
        <time>2012-07-12T11:56:37Z</time>
      </trkpt>
      <trkpt lat="46.02629" lon="6.57482">
        <ele>1332.984</ele>
        <time>2012-07-12T11:56:43Z</time>
      </trkpt>
      <trkpt lat="46.02625" lon="6.57483">
        <ele>1334.304</ele>
        <time>2012-07-12T11:56:47Z</time>
      </trkpt>
      <trkpt lat="46.02616" lon="6.57489">
        <ele>1336.033</ele>
        <time>2012-07-12T11:56:55Z</time>
      </trkpt>
      <trkpt lat="46.02615" lon="6.57489">
        <ele>1336.373</ele>
        <time>2012-07-12T11:56:56Z</time>
      </trkpt>
      <trkpt lat="46.02613" lon="6.5749">
        <ele>1336.763</ele>
        <time>2012-07-12T11:56:58Z</time>
      </trkpt>
      <trkpt lat="46.02608" lon="6.57498">
        <ele>1337.432</ele>
        <time>2012-07-12T11:57:05Z</time>
      </trkpt>
      <trkpt lat="46.02606" lon="6.57501">
        <ele>1337.742</ele>
        <time>2012-07-12T11:57:08Z</time>
      </trkpt>
      <trkpt lat="46.02604" lon="6.57504">
        <ele>1338.162</ele>
        <time>2012-07-12T11:57:12Z</time>
      </trkpt>
      <trkpt lat="46.02594" lon="6.57511">
        <ele>1342.834</ele>
        <time>2012-07-12T11:57:21Z</time>
      </trkpt>
      <trkpt lat="46.02591" lon="6.57514">
        <ele>1343.753</ele>
        <time>2012-07-12T11:57:25Z</time>
      </trkpt>
      <trkpt lat="46.02589" lon="6.57518">
        <ele>1343.973</ele>
        <time>2012-07-12T11:57:29Z</time>
      </trkpt>
      <trkpt lat="46.02583" lon="6.57521">
        <ele>1344.092</ele>
        <time>2012-07-12T11:57:35Z</time>
      </trkpt>
      <trkpt lat="46.02579" lon="6.57528">
        <ele>1345.703</ele>
        <time>2012-07-12T11:57:41Z</time>
      </trkpt>
      <trkpt lat="46.02577" lon="6.57532">
        <ele>1345.553</ele>
        <time>2012-07-12T11:57:45Z</time>
      </trkpt>
      <trkpt lat="46.02575" lon="6.57537">
        <ele>1345.152</ele>
        <time>2012-07-12T11:57:50Z</time>
      </trkpt>
      <trkpt lat="46.02574" lon="6.57538">
        <ele>1345.112</ele>
        <time>2012-07-12T11:57:51Z</time>
      </trkpt>
      <trkpt lat="46.0257" lon="6.57547">
        <ele>1344.172</ele>
        <time>2012-07-12T11:58:00Z</time>
      </trkpt>
      <trkpt lat="46.02572" lon="6.57553">
        <ele>1340.722</ele>
        <time>2012-07-12T11:58:05Z</time>
      </trkpt>
      <trkpt lat="46.02569" lon="6.57556">
        <ele>1341.082</ele>
        <time>2012-07-12T11:58:08Z</time>
      </trkpt>
      <trkpt lat="46.02573" lon="6.57561">
        <ele>1335.703</ele>
        <time>2012-07-12T11:58:15Z</time>
      </trkpt>
      <trkpt lat="46.02574" lon="6.57563">
        <ele>1334.293</ele>
        <time>2012-07-12T11:58:17Z</time>
      </trkpt>
      <trkpt lat="46.02571" lon="6.57572">
        <ele>1331.621</ele>
        <time>2012-07-12T11:58:26Z</time>
      </trkpt>
      <trkpt lat="46.02571" lon="6.57573">
        <ele>1330.391</ele>
        <time>2012-07-12T11:58:27Z</time>
      </trkpt>
      <trkpt lat="46.02584" lon="6.5758">
        <ele>1316.84</ele>
        <time>2012-07-12T11:58:31Z</time>
      </trkpt>
      <trkpt lat="46.02602" lon="6.57593">
        <ele>1293.141</ele>
        <time>2012-07-12T11:58:39Z</time>
      </trkpt>
      <trkpt lat="46.02603" lon="6.57598">
        <ele>1283.511</ele>
        <time>2012-07-12T11:58:46Z</time>
      </trkpt>
      <trkpt lat="46.02606" lon="6.57604">
        <ele>1276.78</ele>
        <time>2012-07-12T11:58:51Z</time>
      </trkpt>
      <trkpt lat="46.02605" lon="6.57605">
        <ele>1275.11</ele>
        <time>2012-07-12T11:58:53Z</time>
      </trkpt>
      <trkpt lat="46.02602" lon="6.57608">
        <ele>1270.852</ele>
        <time>2012-07-12T11:58:59Z</time>
      </trkpt>
      <trkpt lat="46.02597" lon="6.57613">
        <ele>1268.152</ele>
        <time>2012-07-12T11:59:06Z</time>
      </trkpt>
      <trkpt lat="46.02594" lon="6.57618">
        <ele>1265.722</ele>
        <time>2012-07-12T11:59:12Z</time>
      </trkpt>
      <trkpt lat="46.02594" lon="6.57625">
        <ele>1264.202</ele>
        <time>2012-07-12T11:59:16Z</time>
      </trkpt>
      <trkpt lat="46.02597" lon="6.57632">
        <ele>1263.742</ele>
        <time>2012-07-12T11:59:19Z</time>
      </trkpt>
      <trkpt lat="46.02606" lon="6.57636">
        <ele>1261.982</ele>
        <time>2012-07-12T11:59:26Z</time>
      </trkpt>
      <trkpt lat="46.02608" lon="6.57637">
        <ele>1261.822</ele>
        <time>2012-07-12T11:59:27Z</time>
      </trkpt>
      <trkpt lat="46.02613" lon="6.57634">
        <ele>1261.102</ele>
        <time>2012-07-12T11:59:31Z</time>
      </trkpt>
      <trkpt lat="46.02622" lon="6.57624">
        <ele>1270.553</ele>
        <time>2012-07-12T11:59:43Z</time>
      </trkpt>
      <trkpt lat="46.02621" lon="6.57616">
        <ele>1283.366</ele>
        <time>2012-07-12T11:59:50Z</time>
      </trkpt>
      <trkpt lat="46.02618" lon="6.57608">
        <ele>1295.847</ele>
        <time>2012-07-12T11:59:56Z</time>
      </trkpt>
      <trkpt lat="46.02617" lon="6.57604">
        <ele>1305.574</ele>
        <time>2012-07-12T12:00:03Z</time>
      </trkpt>
      <trkpt lat="46.0262" lon="6.576">
        <ele>1312.104</ele>
        <time>2012-07-12T12:00:09Z</time>
      </trkpt>
      <trkpt lat="46.02621" lon="6.57599">
        <ele>1314.184</ele>
        <time>2012-07-12T12:00:11Z</time>
      </trkpt>
      <trkpt lat="46.02613" lon="6.57595">
        <ele>1327.193</ele>
        <time>2012-07-12T12:00:16Z</time>
      </trkpt>
      <trkpt lat="46.02609" lon="6.57589">
        <ele>1343.624</ele>
        <time>2012-07-12T12:00:21Z</time>
      </trkpt>
      <trkpt lat="46.0261" lon="6.57588">
        <ele>1348.424</ele>
        <time>2012-07-12T12:00:23Z</time>
      </trkpt>
      <trkpt lat="46.02606" lon="6.576">
        <ele>1362.473</ele>
        <time>2012-07-12T12:00:33Z</time>
      </trkpt>
      <trkpt lat="46.026" lon="6.57612">
        <ele>1363.813</ele>
        <time>2012-07-12T12:00:40Z</time>
      </trkpt>
      <trkpt lat="46.02592" lon="6.57625">
        <ele>1364.903</ele>
        <time>2012-07-12T12:00:48Z</time>
      </trkpt>
      <trkpt lat="46.02588" lon="6.57638">
        <ele>1366.223</ele>
        <time>2012-07-12T12:00:55Z</time>
      </trkpt>
      <trkpt lat="46.0259" lon="6.57655">
        <ele>1368.354</ele>
        <time>2012-07-12T12:01:03Z</time>
      </trkpt>
      <trkpt lat="46.02589" lon="6.57671">
        <ele>1371.043</ele>
        <time>2012-07-12T12:01:12Z</time>
      </trkpt>
      <trkpt lat="46.02587" lon="6.57686">
        <ele>1372.273</ele>
        <time>2012-07-12T12:01:20Z</time>
      </trkpt>
      <trkpt lat="46.02586" lon="6.57699">
        <ele>1373.453</ele>
        <time>2012-07-12T12:01:26Z</time>
      </trkpt>
      <trkpt lat="46.02589" lon="6.57716">
        <ele>1376.324</ele>
        <time>2012-07-12T12:01:34Z</time>
      </trkpt>
      <trkpt lat="46.02592" lon="6.57732">
        <ele>1379.154</ele>
        <time>2012-07-12T12:01:41Z</time>
      </trkpt>
      <trkpt lat="46.02595" lon="6.57746">
        <ele>1380.673</ele>
        <time>2012-07-12T12:01:48Z</time>
      </trkpt>
      <trkpt lat="46.02595" lon="6.57761">
        <ele>1381.412</ele>
        <time>2012-07-12T12:01:55Z</time>
      </trkpt>
      <trkpt lat="46.02594" lon="6.57776">
        <ele>1379.37</ele>
        <time>2012-07-12T12:02:02Z</time>
      </trkpt>
      <trkpt lat="46.02591" lon="6.57793">
        <ele>1379.053</ele>
        <time>2012-07-12T12:02:09Z</time>
      </trkpt>
      <trkpt lat="46.02583" lon="6.57814">
        <ele>1379.393</ele>
        <time>2012-07-12T12:02:17Z</time>
      </trkpt>
      <trkpt lat="46.02575" lon="6.57832">
        <ele>1379.853</ele>
        <time>2012-07-12T12:02:25Z</time>
      </trkpt>
      <trkpt lat="46.02569" lon="6.57845">
        <ele>1380.733</ele>
        <time>2012-07-12T12:02:31Z</time>
      </trkpt>
      <trkpt lat="46.02562" lon="6.5786">
        <ele>1384.083</ele>
        <time>2012-07-12T12:02:38Z</time>
      </trkpt>
      <trkpt lat="46.02556" lon="6.57882">
        <ele>1391.656</ele>
        <time>2012-07-12T12:02:47Z</time>
      </trkpt>
      <trkpt lat="46.02551" lon="6.57899">
        <ele>1394.573</ele>
        <time>2012-07-12T12:02:55Z</time>
      </trkpt>
      <trkpt lat="46.0254" lon="6.57916">
        <ele>1386.339</ele>
        <time>2012-07-12T12:03:03Z</time>
      </trkpt>
      <trkpt lat="46.02535" lon="6.5794">
        <ele>1383.98</ele>
        <time>2012-07-12T12:03:11Z</time>
      </trkpt>
      <trkpt lat="46.02535" lon="6.57958">
        <ele>1383.431</ele>
        <time>2012-07-12T12:03:17Z</time>
      </trkpt>
      <trkpt lat="46.02527" lon="6.57983">
        <ele>1382.662</ele>
        <time>2012-07-12T12:03:26Z</time>
      </trkpt>
      <trkpt lat="46.02524" lon="6.58016">
        <ele>1382.502</ele>
        <time>2012-07-12T12:03:38Z</time>
      </trkpt>
      <trkpt lat="46.02529" lon="6.58036">
        <ele>1385.603</ele>
        <time>2012-07-12T12:03:45Z</time>
      </trkpt>
      <trkpt lat="46.02533" lon="6.58047">
        <ele>1387.073</ele>
        <time>2012-07-12T12:03:49Z</time>
      </trkpt>
      <trkpt lat="46.02537" lon="6.5806">
        <ele>1388.253</ele>
        <time>2012-07-12T12:03:55Z</time>
      </trkpt>
      <trkpt lat="46.02544" lon="6.58076">
        <ele>1389.102</ele>
        <time>2012-07-12T12:04:04Z</time>
      </trkpt>
      <trkpt lat="46.02545" lon="6.58081">
        <ele>1388.862</ele>
        <time>2012-07-12T12:04:07Z</time>
      </trkpt>
      <trkpt lat="46.02549" lon="6.58092">
        <ele>1392.164</ele>
        <time>2012-07-12T12:04:15Z</time>
      </trkpt>
      <trkpt lat="46.02553" lon="6.58096">
        <ele>1394.905</ele>
        <time>2012-07-12T12:04:19Z</time>
      </trkpt>
      <trkpt lat="46.0256" lon="6.58104">
        <ele>1397.785</ele>
        <time>2012-07-12T12:04:25Z</time>
      </trkpt>
      <trkpt lat="46.02565" lon="6.58113">
        <ele>1395.763</ele>
        <time>2012-07-12T12:04:32Z</time>
      </trkpt>
      <trkpt lat="46.0257" lon="6.58119">
        <ele>1395.093</ele>
        <time>2012-07-12T12:04:39Z</time>
      </trkpt>
      <trkpt lat="46.02575" lon="6.58129">
        <ele>1394.414</ele>
        <time>2012-07-12T12:04:47Z</time>
      </trkpt>
      <trkpt lat="46.02578" lon="6.58136">
        <ele>1396.384</ele>
        <time>2012-07-12T12:04:52Z</time>
      </trkpt>
      <trkpt lat="46.0258" lon="6.58141">
        <ele>1397.184</ele>
        <time>2012-07-12T12:04:55Z</time>
      </trkpt>
      <trkpt lat="46.02581" lon="6.58145">
        <ele>1398.183</ele>
        <time>2012-07-12T12:04:58Z</time>
      </trkpt>
      <trkpt lat="46.02583" lon="6.58155">
        <ele>1400.374</ele>
        <time>2012-07-12T12:05:04Z</time>
      </trkpt>
      <trkpt lat="46.02586" lon="6.58161">
        <ele>1401.254</ele>
        <time>2012-07-12T12:05:09Z</time>
      </trkpt>
      <trkpt lat="46.02587" lon="6.58169">
        <ele>1402.454</ele>
        <time>2012-07-12T12:05:14Z</time>
      </trkpt>
      <trkpt lat="46.02588" lon="6.58174">
        <ele>1402.583</ele>
        <time>2012-07-12T12:05:17Z</time>
      </trkpt>
      <trkpt lat="46.02589" lon="6.58184">
        <ele>1402.573</ele>
        <time>2012-07-12T12:05:24Z</time>
      </trkpt>
      <trkpt lat="46.02585" lon="6.58193">
        <ele>1403.954</ele>
        <time>2012-07-12T12:05:30Z</time>
      </trkpt>
      <trkpt lat="46.02584" lon="6.58197">
        <ele>1404.844</ele>
        <time>2012-07-12T12:05:32Z</time>
      </trkpt>
      <trkpt lat="46.02583" lon="6.5821">
        <ele>1406.343</ele>
        <time>2012-07-12T12:05:40Z</time>
      </trkpt>
      <trkpt lat="46.02586" lon="6.58218">
        <ele>1407.354</ele>
        <time>2012-07-12T12:05:45Z</time>
      </trkpt>
      <trkpt lat="46.0259" lon="6.58225">
        <ele>1409.674</ele>
        <time>2012-07-12T12:05:51Z</time>
      </trkpt>
      <trkpt lat="46.02594" lon="6.58231">
        <ele>1410.684</ele>
        <time>2012-07-12T12:05:56Z</time>
      </trkpt>
      <trkpt lat="46.026" lon="6.58239">
        <ele>1413.103</ele>
        <time>2012-07-12T12:06:02Z</time>
      </trkpt>
      <trkpt lat="46.02604" lon="6.58246">
        <ele>1414.464</ele>
        <time>2012-07-12T12:06:07Z</time>
      </trkpt>
      <trkpt lat="46.02609" lon="6.58259">
        <ele>1415.994</ele>
        <time>2012-07-12T12:06:15Z</time>
      </trkpt>
      <trkpt lat="46.0261" lon="6.58261">
        <ele>1415.763</ele>
        <time>2012-07-12T12:06:16Z</time>
      </trkpt>
      <trkpt lat="46.02614" lon="6.58271">
        <ele>1414.243</ele>
        <time>2012-07-12T12:06:21Z</time>
      </trkpt>
      <trkpt lat="46.02622" lon="6.58286">
        <ele>1414.464</ele>
        <time>2012-07-12T12:06:28Z</time>
      </trkpt>
      <trkpt lat="46.02625" lon="6.58298">
        <ele>1414.314</ele>
        <time>2012-07-12T12:06:35Z</time>
      </trkpt>
      <trkpt lat="46.02624" lon="6.58307">
        <ele>1414.144</ele>
        <time>2012-07-12T12:06:41Z</time>
      </trkpt>
      <trkpt lat="46.02625" lon="6.58318">
        <ele>1414.644</ele>
        <time>2012-07-12T12:06:48Z</time>
      </trkpt>
      <trkpt lat="46.02627" lon="6.58329">
        <ele>1414.484</ele>
        <time>2012-07-12T12:06:55Z</time>
      </trkpt>
      <trkpt lat="46.02627" lon="6.58331">
        <ele>1414.544</ele>
        <time>2012-07-12T12:06:56Z</time>
      </trkpt>
      <trkpt lat="46.02629" lon="6.58339">
        <ele>1414.654</ele>
        <time>2012-07-12T12:07:02Z</time>
      </trkpt>
      <trkpt lat="46.02634" lon="6.5835">
        <ele>1415.234</ele>
        <time>2012-07-12T12:07:10Z</time>
      </trkpt>
      <trkpt lat="46.02639" lon="6.58353">
        <ele>1418.155</ele>
        <time>2012-07-12T12:07:16Z</time>
      </trkpt>
      <trkpt lat="46.02645" lon="6.58358">
        <ele>1422.436</ele>
        <time>2012-07-12T12:07:23Z</time>
      </trkpt>
      <trkpt lat="46.02652" lon="6.58366">
        <ele>1422.834</ele>
        <time>2012-07-12T12:07:30Z</time>
      </trkpt>
      <trkpt lat="46.02655" lon="6.58371">
        <ele>1422.874</ele>
        <time>2012-07-12T12:07:34Z</time>
      </trkpt>
      <trkpt lat="46.02661" lon="6.58376">
        <ele>1424.956</ele>
        <time>2012-07-12T12:07:39Z</time>
      </trkpt>
      <trkpt lat="46.02665" lon="6.5838">
        <ele>1426.335</ele>
        <time>2012-07-12T12:07:43Z</time>
      </trkpt>
      <trkpt lat="46.0267" lon="6.58386">
        <ele>1426.754</ele>
        <time>2012-07-12T12:07:48Z</time>
      </trkpt>
      <trkpt lat="46.02681" lon="6.58396">
        <ele>1426.784</ele>
        <time>2012-07-12T12:07:57Z</time>
      </trkpt>
      <trkpt lat="46.02689" lon="6.58402">
        <ele>1426.263</ele>
        <time>2012-07-12T12:08:03Z</time>
      </trkpt>
      <trkpt lat="46.02701" lon="6.58405">
        <ele>1426.893</ele>
        <time>2012-07-12T12:08:12Z</time>
      </trkpt>
      <trkpt lat="46.02713" lon="6.58406">
        <ele>1427.053</ele>
        <time>2012-07-12T12:08:21Z</time>
      </trkpt>
      <trkpt lat="46.02723" lon="6.58412">
        <ele>1427.254</ele>
        <time>2012-07-12T12:08:28Z</time>
      </trkpt>
      <trkpt lat="46.02729" lon="6.58421">
        <ele>1427.243</ele>
        <time>2012-07-12T12:08:34Z</time>
      </trkpt>
      <trkpt lat="46.02738" lon="6.58433">
        <ele>1428.493</ele>
        <time>2012-07-12T12:08:42Z</time>
      </trkpt>
      <trkpt lat="46.02745" lon="6.58443">
        <ele>1429.753</ele>
        <time>2012-07-12T12:08:49Z</time>
      </trkpt>
      <trkpt lat="46.02746" lon="6.58444">
        <ele>1430.404</ele>
        <time>2012-07-12T12:08:50Z</time>
      </trkpt>
      <trkpt lat="46.02754" lon="6.5845">
        <ele>1434.446</ele>
        <time>2012-07-12T12:08:55Z</time>
      </trkpt>
      <trkpt lat="46.02762" lon="6.58459">
        <ele>1436.055</ele>
        <time>2012-07-12T12:09:01Z</time>
      </trkpt>
      <trkpt lat="46.02766" lon="6.58471">
        <ele>1434.953</ele>
        <time>2012-07-12T12:09:09Z</time>
      </trkpt>
      <trkpt lat="46.02775" lon="6.58481">
        <ele>1440.045</ele>
        <time>2012-07-12T12:09:16Z</time>
      </trkpt>
      <trkpt lat="46.02782" lon="6.58491">
        <ele>1440.954</ele>
        <time>2012-07-12T12:09:23Z</time>
      </trkpt>
      <trkpt lat="46.02786" lon="6.58503">
        <ele>1438.743</ele>
        <time>2012-07-12T12:09:31Z</time>
      </trkpt>
      <trkpt lat="46.0279" lon="6.58513">
        <ele>1439.125</ele>
        <time>2012-07-12T12:09:37Z</time>
      </trkpt>
      <trkpt lat="46.02797" lon="6.58524">
        <ele>1441.904</ele>
        <time>2012-07-12T12:09:44Z</time>
      </trkpt>
      <trkpt lat="46.028" lon="6.58531">
        <ele>1443.474</ele>
        <time>2012-07-12T12:09:49Z</time>
      </trkpt>
      <trkpt lat="46.02809" lon="6.58546">
        <ele>1445.705</ele>
        <time>2012-07-12T12:09:58Z</time>
      </trkpt>
      <trkpt lat="46.02812" lon="6.58552">
        <ele>1447.325</ele>
        <time>2012-07-12T12:10:02Z</time>
      </trkpt>
      <trkpt lat="46.02819" lon="6.58563">
        <ele>1449.185</ele>
        <time>2012-07-12T12:10:09Z</time>
      </trkpt>
      <trkpt lat="46.02824" lon="6.58576">
        <ele>1449.244</ele>
        <time>2012-07-12T12:10:17Z</time>
      </trkpt>
      <trkpt lat="46.02829" lon="6.58584">
        <ele>1450.135</ele>
        <time>2012-07-12T12:10:23Z</time>
      </trkpt>
      <trkpt lat="46.02837" lon="6.58596">
        <ele>1452.195</ele>
        <time>2012-07-12T12:10:31Z</time>
      </trkpt>
      <trkpt lat="46.02841" lon="6.58606">
        <ele>1456.777</ele>
        <time>2012-07-12T12:10:38Z</time>
      </trkpt>
      <trkpt lat="46.02841" lon="6.58608">
        <ele>1457.257</ele>
        <time>2012-07-12T12:10:39Z</time>
      </trkpt>
      <trkpt lat="46.02843" lon="6.58614">
        <ele>1456.625</ele>
        <time>2012-07-12T12:10:43Z</time>
      </trkpt>
      <trkpt lat="46.02846" lon="6.58628">
        <ele>1458.556</ele>
        <time>2012-07-12T12:10:52Z</time>
      </trkpt>
      <trkpt lat="46.02844" lon="6.58634">
        <ele>1460.827</ele>
        <time>2012-07-12T12:10:56Z</time>
      </trkpt>
      <trkpt lat="46.0284" lon="6.58642">
        <ele>1462.925</ele>
        <time>2012-07-12T12:11:02Z</time>
      </trkpt>
      <trkpt lat="46.02834" lon="6.58654">
        <ele>1468.787</ele>
        <time>2012-07-12T12:11:11Z</time>
      </trkpt>
      <trkpt lat="46.02834" lon="6.58655">
        <ele>1468.656</ele>
        <time>2012-07-12T12:11:12Z</time>
      </trkpt>
      <trkpt lat="46.02836" lon="6.58661">
        <ele>1468.125</ele>
        <time>2012-07-12T12:11:15Z</time>
      </trkpt>
      <trkpt lat="46.02834" lon="6.58669">
        <ele>1468.145</ele>
        <time>2012-07-12T12:11:20Z</time>
      </trkpt>
      <trkpt lat="46.02832" lon="6.58672">
        <ele>1469.194</ele>
        <time>2012-07-12T12:11:23Z</time>
      </trkpt>
      <trkpt lat="46.0283" lon="6.58674">
        <ele>1468.934</ele>
        <time>2012-07-12T12:11:25Z</time>
      </trkpt>
      <trkpt lat="46.02827" lon="6.58675">
        <ele>1468.193</ele>
        <time>2012-07-12T12:11:29Z</time>
      </trkpt>
      <trkpt lat="46.02823" lon="6.58671">
        <ele>1467.863</ele>
        <time>2012-07-12T12:11:34Z</time>
      </trkpt>
      <trkpt lat="46.02822" lon="6.58658">
        <ele>1467.474</ele>
        <time>2012-07-12T12:11:43Z</time>
      </trkpt>
      <trkpt lat="46.02823" lon="6.58648">
        <ele>1467.404</ele>
        <time>2012-07-12T12:11:50Z</time>
      </trkpt>
      <trkpt lat="46.02823" lon="6.58646">
        <ele>1467.544</ele>
        <time>2012-07-12T12:11:51Z</time>
      </trkpt>
      <trkpt lat="46.02823" lon="6.58642">
        <ele>1467.264</ele>
        <time>2012-07-12T12:11:54Z</time>
      </trkpt>
      <trkpt lat="46.0282" lon="6.58636">
        <ele>1468.733</ele>
        <time>2012-07-12T12:12:00Z</time>
      </trkpt>
      <trkpt lat="46.02818" lon="6.58626">
        <ele>1467.703</ele>
        <time>2012-07-12T12:12:09Z</time>
      </trkpt>
      <trkpt lat="46.02812" lon="6.58615">
        <ele>1467.883</ele>
        <time>2012-07-12T12:12:18Z</time>
      </trkpt>
      <trkpt lat="46.02811" lon="6.58609">
        <ele>1468.754</ele>
        <time>2012-07-12T12:12:24Z</time>
      </trkpt>
      <trkpt lat="46.02811" lon="6.58608">
        <ele>1468.773</ele>
        <time>2012-07-12T12:12:25Z</time>
      </trkpt>
      <trkpt lat="46.02806" lon="6.586">
        <ele>1470.123</ele>
        <time>2012-07-12T12:12:32Z</time>
      </trkpt>
      <trkpt lat="46.028" lon="6.58592">
        <ele>1471.714</ele>
        <time>2012-07-12T12:12:40Z</time>
      </trkpt>
      <trkpt lat="46.02799" lon="6.58591">
        <ele>1471.754</ele>
        <time>2012-07-12T12:12:42Z</time>
      </trkpt>
      <trkpt lat="46.02795" lon="6.58586">
        <ele>1472.153</ele>
        <time>2012-07-12T12:12:47Z</time>
      </trkpt>
      <trkpt lat="46.02791" lon="6.58577">
        <ele>1474.074</ele>
        <time>2012-07-12T12:12:54Z</time>
      </trkpt>
      <trkpt lat="46.02787" lon="6.58572">
        <ele>1475.244</ele>
        <time>2012-07-12T12:13:00Z</time>
      </trkpt>
      <trkpt lat="46.02784" lon="6.58569">
        <ele>1476.073</ele>
        <time>2012-07-12T12:13:05Z</time>
      </trkpt>
      <trkpt lat="46.0278" lon="6.58565">
        <ele>1476.703</ele>
        <time>2012-07-12T12:13:11Z</time>
      </trkpt>
      <trkpt lat="46.02777" lon="6.58559">
        <ele>1477.083</ele>
        <time>2012-07-12T12:13:17Z</time>
      </trkpt>
      <trkpt lat="46.02772" lon="6.58553">
        <ele>1477.604</ele>
        <time>2012-07-12T12:13:24Z</time>
      </trkpt>
      <trkpt lat="46.0277" lon="6.5855">
        <ele>1477.664</ele>
        <time>2012-07-12T12:13:27Z</time>
      </trkpt>
      <trkpt lat="46.02766" lon="6.58543">
        <ele>1477.783</ele>
        <time>2012-07-12T12:13:33Z</time>
      </trkpt>
      <trkpt lat="46.02756" lon="6.5854">
        <ele>1478.734</ele>
        <time>2012-07-12T12:13:42Z</time>
      </trkpt>
      <trkpt lat="46.02755" lon="6.5854">
        <ele>1478.774</ele>
        <time>2012-07-12T12:13:43Z</time>
      </trkpt>
      <trkpt lat="46.02752" lon="6.5855">
        <ele>1481.615</ele>
        <time>2012-07-12T12:13:51Z</time>
      </trkpt>
      <trkpt lat="46.02752" lon="6.58556">
        <ele>1483.514</ele>
        <time>2012-07-12T12:13:56Z</time>
      </trkpt>
      <trkpt lat="46.02753" lon="6.58562">
        <ele>1485.755</ele>
        <time>2012-07-12T12:14:02Z</time>
      </trkpt>
      <trkpt lat="46.02757" lon="6.58572">
        <ele>1488.885</ele>
        <time>2012-07-12T12:14:11Z</time>
      </trkpt>
      <trkpt lat="46.02759" lon="6.58581">
        <ele>1490.434</ele>
        <time>2012-07-12T12:14:18Z</time>
      </trkpt>
      <trkpt lat="46.02762" lon="6.58588">
        <ele>1491.174</ele>
        <time>2012-07-12T12:14:23Z</time>
      </trkpt>
      <trkpt lat="46.02767" lon="6.58602">
        <ele>1492.625</ele>
        <time>2012-07-12T12:14:33Z</time>
      </trkpt>
      <trkpt lat="46.02772" lon="6.58612">
        <ele>1494.416</ele>
        <time>2012-07-12T12:14:39Z</time>
      </trkpt>
      <trkpt lat="46.02774" lon="6.58618">
        <ele>1495.355</ele>
        <time>2012-07-12T12:14:43Z</time>
      </trkpt>
      <trkpt lat="46.02776" lon="6.58624">
        <ele>1496.125</ele>
        <time>2012-07-12T12:14:51Z</time>
      </trkpt>
      <trkpt lat="46.02779" lon="6.58632">
        <ele>1497.545</ele>
        <time>2012-07-12T12:14:58Z</time>
      </trkpt>
      <trkpt lat="46.02781" lon="6.58639">
        <ele>1498.465</ele>
        <time>2012-07-12T12:15:02Z</time>
      </trkpt>
      <trkpt lat="46.02785" lon="6.58656">
        <ele>1498.195</ele>
        <time>2012-07-12T12:15:11Z</time>
      </trkpt>
      <trkpt lat="46.02787" lon="6.58664">
        <ele>1499.335</ele>
        <time>2012-07-12T12:15:16Z</time>
      </trkpt>
      <trkpt lat="46.02788" lon="6.5867">
        <ele>1500.605</ele>
        <time>2012-07-12T12:15:20Z</time>
      </trkpt>
      <trkpt lat="46.0279" lon="6.5868">
        <ele>1501.515</ele>
        <time>2012-07-12T12:15:26Z</time>
      </trkpt>
      <trkpt lat="46.02792" lon="6.58688">
        <ele>1502.765</ele>
        <time>2012-07-12T12:15:31Z</time>
      </trkpt>
      <trkpt lat="46.02792" lon="6.58691">
        <ele>1503.945</ele>
        <time>2012-07-12T12:15:33Z</time>
      </trkpt>
      <trkpt lat="46.02793" lon="6.58698">
        <ele>1506.665</ele>
        <time>2012-07-12T12:15:40Z</time>
      </trkpt>
      <trkpt lat="46.02792" lon="6.58701">
        <ele>1506.134</ele>
        <time>2012-07-12T12:15:42Z</time>
      </trkpt>
      <trkpt lat="46.02793" lon="6.58709">
        <ele>1506.644</ele>
        <time>2012-07-12T12:15:47Z</time>
      </trkpt>
      <trkpt lat="46.02793" lon="6.58711">
        <ele>1505.964</ele>
        <time>2012-07-12T12:15:49Z</time>
      </trkpt>
      <trkpt lat="46.02796" lon="6.58721">
        <ele>1506.564</ele>
        <time>2012-07-12T12:15:55Z</time>
      </trkpt>
      <trkpt lat="46.02804" lon="6.58732">
        <ele>1509.816</ele>
        <time>2012-07-12T12:16:03Z</time>
      </trkpt>
      <trkpt lat="46.0281" lon="6.58746">
        <ele>1509.174</ele>
        <time>2012-07-12T12:16:11Z</time>
      </trkpt>
      <trkpt lat="46.02816" lon="6.58757">
        <ele>1508.154</ele>
        <time>2012-07-12T12:16:18Z</time>
      </trkpt>
      <trkpt lat="46.02818" lon="6.5876">
        <ele>1508.854</ele>
        <time>2012-07-12T12:16:20Z</time>
      </trkpt>
      <trkpt lat="46.02827" lon="6.58767">
        <ele>1507.545</ele>
        <time>2012-07-12T12:16:28Z</time>
      </trkpt>
      <trkpt lat="46.02832" lon="6.5877">
        <ele>1507.385</ele>
        <time>2012-07-12T12:16:32Z</time>
      </trkpt>
      <trkpt lat="46.02835" lon="6.58777">
        <ele>1506.894</ele>
        <time>2012-07-12T12:16:38Z</time>
      </trkpt>
      <trkpt lat="46.02837" lon="6.58783">
        <ele>1507.275</ele>
        <time>2012-07-12T12:16:42Z</time>
      </trkpt>
      <trkpt lat="46.02838" lon="6.58794">
        <ele>1507.124</ele>
        <time>2012-07-12T12:16:50Z</time>
      </trkpt>
      <trkpt lat="46.02834" lon="6.58803">
        <ele>1507.755</ele>
        <time>2012-07-12T12:16:56Z</time>
      </trkpt>
      <trkpt lat="46.02833" lon="6.58809">
        <ele>1508.835</ele>
        <time>2012-07-12T12:17:00Z</time>
      </trkpt>
      <trkpt lat="46.02832" lon="6.58819">
        <ele>1511.376</ele>
        <time>2012-07-12T12:17:07Z</time>
      </trkpt>
      <trkpt lat="46.02836" lon="6.5883">
        <ele>1513.545</ele>
        <time>2012-07-12T12:17:16Z</time>
      </trkpt>
      <trkpt lat="46.02837" lon="6.58836">
        <ele>1513.695</ele>
        <time>2012-07-12T12:17:21Z</time>
      </trkpt>
      <trkpt lat="46.02839" lon="6.58843">
        <ele>1514.764</ele>
        <time>2012-07-12T12:17:26Z</time>
      </trkpt>
      <trkpt lat="46.0284" lon="6.58846">
        <ele>1515.425</ele>
        <time>2012-07-12T12:17:28Z</time>
      </trkpt>
      <trkpt lat="46.02844" lon="6.5886">
        <ele>1517.946</ele>
        <time>2012-07-12T12:17:38Z</time>
      </trkpt>
      <trkpt lat="46.02846" lon="6.58863">
        <ele>1518.966</ele>
        <time>2012-07-12T12:17:41Z</time>
      </trkpt>
      <trkpt lat="46.02851" lon="6.58867">
        <ele>1517.205</ele>
        <time>2012-07-12T12:17:46Z</time>
      </trkpt>
      <trkpt lat="46.02855" lon="6.58873">
        <ele>1516.185</ele>
        <time>2012-07-12T12:17:52Z</time>
      </trkpt>
      <trkpt lat="46.02855" lon="6.58878">
        <ele>1516.415</ele>
        <time>2012-07-12T12:17:56Z</time>
      </trkpt>
      <trkpt lat="46.02856" lon="6.58882">
        <ele>1517.005</ele>
        <time>2012-07-12T12:17:59Z</time>
      </trkpt>
      <trkpt lat="46.02851" lon="6.58898">
        <ele>1521.316</ele>
        <time>2012-07-12T12:18:08Z</time>
      </trkpt>
      <trkpt lat="46.0285" lon="6.58914">
        <ele>1519.785</ele>
        <time>2012-07-12T12:18:18Z</time>
      </trkpt>
      <trkpt lat="46.02848" lon="6.58926">
        <ele>1519.805</ele>
        <time>2012-07-12T12:18:26Z</time>
      </trkpt>
      <trkpt lat="46.02852" lon="6.58939">
        <ele>1520.346</ele>
        <time>2012-07-12T12:18:33Z</time>
      </trkpt>
      <trkpt lat="46.02853" lon="6.5894">
        <ele>1520.586</ele>
        <time>2012-07-12T12:18:34Z</time>
      </trkpt>
      <trkpt lat="46.02859" lon="6.5895">
        <ele>1521.266</ele>
        <time>2012-07-12T12:18:42Z</time>
      </trkpt>
      <trkpt lat="46.02861" lon="6.58963">
        <ele>1525.196</ele>
        <time>2012-07-12T12:18:51Z</time>
      </trkpt>
      <trkpt lat="46.0286" lon="6.58965">
        <ele>1526.846</ele>
        <time>2012-07-12T12:18:53Z</time>
      </trkpt>
      <trkpt lat="46.02858" lon="6.5897">
        <ele>1528.356</ele>
        <time>2012-07-12T12:18:57Z</time>
      </trkpt>
      <trkpt lat="46.02854" lon="6.58981">
        <ele>1530.296</ele>
        <time>2012-07-12T12:19:06Z</time>
      </trkpt>
      <trkpt lat="46.0285" lon="6.5899">
        <ele>1531.825</ele>
        <time>2012-07-12T12:19:14Z</time>
      </trkpt>
      <trkpt lat="46.02849" lon="6.58992">
        <ele>1532.195</ele>
        <time>2012-07-12T12:19:16Z</time>
      </trkpt>
      <trkpt lat="46.02849" lon="6.59003">
        <ele>1534.266</ele>
        <time>2012-07-12T12:19:24Z</time>
      </trkpt>
      <trkpt lat="46.02847" lon="6.59012">
        <ele>1533.335</ele>
        <time>2012-07-12T12:19:31Z</time>
      </trkpt>
      <trkpt lat="46.02847" lon="6.59013">
        <ele>1532.854</ele>
        <time>2012-07-12T12:19:35Z</time>
      </trkpt>
      <trkpt lat="46.02837" lon="6.59018">
        <ele>1534.565</ele>
        <time>2012-07-12T12:19:44Z</time>
      </trkpt>
      <trkpt lat="46.02831" lon="6.59016">
        <ele>1533.663</ele>
        <time>2012-07-12T12:19:51Z</time>
      </trkpt>
      <trkpt lat="46.0283" lon="6.59014">
        <ele>1532.413</ele>
        <time>2012-07-12T12:19:54Z</time>
      </trkpt>
      <trkpt lat="46.02828" lon="6.59005">
        <ele>1530.813</ele>
        <time>2012-07-12T12:20:02Z</time>
      </trkpt>
      <trkpt lat="46.02826" lon="6.59004">
        <ele>1532.884</ele>
        <time>2012-07-12T12:20:09Z</time>
      </trkpt>
      <trkpt lat="46.02825" lon="6.59001">
        <ele>1533.164</ele>
        <time>2012-07-12T12:20:13Z</time>
      </trkpt>
      <trkpt lat="46.0282" lon="6.58995">
        <ele>1534.434</ele>
        <time>2012-07-12T12:20:20Z</time>
      </trkpt>
      <trkpt lat="46.02817" lon="6.58994">
        <ele>1534.954</ele>
        <time>2012-07-12T12:20:23Z</time>
      </trkpt>
      <trkpt lat="46.02811" lon="6.58992">
        <ele>1537.215</ele>
        <time>2012-07-12T12:20:30Z</time>
      </trkpt>
      <trkpt lat="46.02806" lon="6.58986">
        <ele>1539.685</ele>
        <time>2012-07-12T12:20:36Z</time>
      </trkpt>
      <trkpt lat="46.02802" lon="6.5898">
        <ele>1540.933</ele>
        <time>2012-07-12T12:20:44Z</time>
      </trkpt>
      <trkpt lat="46.02799" lon="6.58971">
        <ele>1544.464</ele>
        <time>2012-07-12T12:20:53Z</time>
      </trkpt>
      <trkpt lat="46.02799" lon="6.58966">
        <ele>1546.954</ele>
        <time>2012-07-12T12:20:58Z</time>
      </trkpt>
      <trkpt lat="46.02799" lon="6.58961">
        <ele>1546.953</ele>
        <time>2012-07-12T12:21:06Z</time>
      </trkpt>
      <trkpt lat="46.02799" lon="6.58958">
        <ele>1546.613</ele>
        <time>2012-07-12T12:21:16Z</time>
      </trkpt>
      <trkpt lat="46.02799" lon="6.58954">
        <ele>1544.353</ele>
        <time>2012-07-12T12:21:26Z</time>
      </trkpt>
      <trkpt lat="46.02796" lon="6.58954">
        <ele>1544.684</ele>
        <time>2012-07-12T12:21:32Z</time>
      </trkpt>
      <trkpt lat="46.02796" lon="6.58953">
        <ele>1544.644</ele>
        <time>2012-07-12T12:21:34Z</time>
      </trkpt>
      <trkpt lat="46.02797" lon="6.58948">
        <ele>1543.843</ele>
        <time>2012-07-12T12:21:38Z</time>
      </trkpt>
      <trkpt lat="46.02797" lon="6.58942">
        <ele>1543.114</ele>
        <time>2012-07-12T12:21:45Z</time>
      </trkpt>
      <trkpt lat="46.02796" lon="6.58941">
        <ele>1543.354</ele>
        <time>2012-07-12T12:21:46Z</time>
      </trkpt>
      <trkpt lat="46.02793" lon="6.58938">
        <ele>1546.364</ele>
        <time>2012-07-12T12:21:53Z</time>
      </trkpt>
      <trkpt lat="46.02791" lon="6.58934">
        <ele>1546.564</ele>
        <time>2012-07-12T12:22:00Z</time>
      </trkpt>
      <trkpt lat="46.02786" lon="6.58925">
        <ele>1547.564</ele>
        <time>2012-07-12T12:22:10Z</time>
      </trkpt>
      <trkpt lat="46.02784" lon="6.5892">
        <ele>1547.733</ele>
        <time>2012-07-12T12:22:15Z</time>
      </trkpt>
      <trkpt lat="46.02782" lon="6.58915">
        <ele>1548.054</ele>
        <time>2012-07-12T12:22:22Z</time>
      </trkpt>
      <trkpt lat="46.02779" lon="6.5891">
        <ele>1548.414</ele>
        <time>2012-07-12T12:22:28Z</time>
      </trkpt>
      <trkpt lat="46.02777" lon="6.58906">
        <ele>1549.464</ele>
        <time>2012-07-12T12:22:33Z</time>
      </trkpt>
      <trkpt lat="46.02775" lon="6.58903">
        <ele>1549.674</ele>
        <time>2012-07-12T12:22:39Z</time>
      </trkpt>
      <trkpt lat="46.02775" lon="6.58897">
        <ele>1549.664</ele>
        <time>2012-07-12T12:22:45Z</time>
      </trkpt>
      <trkpt lat="46.02775" lon="6.58893">
        <ele>1550.173</ele>
        <time>2012-07-12T12:22:50Z</time>
      </trkpt>
      <trkpt lat="46.02773" lon="6.58887">
        <ele>1551.463</ele>
        <time>2012-07-12T12:22:56Z</time>
      </trkpt>
      <trkpt lat="46.02773" lon="6.58881">
        <ele>1551.303</ele>
        <time>2012-07-12T12:23:03Z</time>
      </trkpt>
      <trkpt lat="46.02773" lon="6.58874">
        <ele>1551.944</ele>
        <time>2012-07-12T12:23:10Z</time>
      </trkpt>
      <trkpt lat="46.0277" lon="6.58871">
        <ele>1554.265</ele>
        <time>2012-07-12T12:23:15Z</time>
      </trkpt>
      <trkpt lat="46.02769" lon="6.5887">
        <ele>1554.744</ele>
        <time>2012-07-12T12:23:17Z</time>
      </trkpt>
      <trkpt lat="46.02765" lon="6.5887">
        <ele>1556.365</ele>
        <time>2012-07-12T12:23:22Z</time>
      </trkpt>
      <trkpt lat="46.0276" lon="6.58877">
        <ele>1557.125</ele>
        <time>2012-07-12T12:23:31Z</time>
      </trkpt>
      <trkpt lat="46.02761" lon="6.58885">
        <ele>1557.214</ele>
        <time>2012-07-12T12:23:37Z</time>
      </trkpt>
      <trkpt lat="46.02761" lon="6.58898">
        <ele>1558.544</ele>
        <time>2012-07-12T12:23:46Z</time>
      </trkpt>
      <trkpt lat="46.0276" lon="6.58908">
        <ele>1562.305</ele>
        <time>2012-07-12T12:23:55Z</time>
      </trkpt>
      <trkpt lat="46.02757" lon="6.58916">
        <ele>1561.655</ele>
        <time>2012-07-12T12:24:02Z</time>
      </trkpt>
      <trkpt lat="46.02754" lon="6.58925">
        <ele>1561.595</ele>
        <time>2012-07-12T12:24:09Z</time>
      </trkpt>
      <trkpt lat="46.02749" lon="6.58936">
        <ele>1562.206</ele>
        <time>2012-07-12T12:24:18Z</time>
      </trkpt>
      <trkpt lat="46.02744" lon="6.5895">
        <ele>1562.695</ele>
        <time>2012-07-12T12:24:29Z</time>
      </trkpt>
      <trkpt lat="46.02742" lon="6.58955">
        <ele>1562.745</ele>
        <time>2012-07-12T12:24:33Z</time>
      </trkpt>
      <trkpt lat="46.02739" lon="6.58964">
        <ele>1563.135</ele>
        <time>2012-07-12T12:24:41Z</time>
      </trkpt>
      <trkpt lat="46.02741" lon="6.58979">
        <ele>1563.745</ele>
        <time>2012-07-12T12:24:52Z</time>
      </trkpt>
      <trkpt lat="46.0274" lon="6.58992">
        <ele>1565.07</ele>
        <time>2012-07-12T12:25:02Z</time>
      </trkpt>
      <trkpt lat="46.02737" lon="6.59003">
        <ele>1566.625</ele>
        <time>2012-07-12T12:25:11Z</time>
      </trkpt>
      <trkpt lat="46.02734" lon="6.59012">
        <ele>1567.946</ele>
        <time>2012-07-12T12:25:19Z</time>
      </trkpt>
      <trkpt lat="46.02728" lon="6.59025">
        <ele>1569.595</ele>
        <time>2012-07-12T12:25:31Z</time>
      </trkpt>
      <trkpt lat="46.02722" lon="6.59035">
        <ele>1570.775</ele>
        <time>2012-07-12T12:25:41Z</time>
      </trkpt>
      <trkpt lat="46.02716" lon="6.59045">
        <ele>1572.286</ele>
        <time>2012-07-12T12:25:51Z</time>
      </trkpt>
      <trkpt lat="46.02714" lon="6.59057">
        <ele>1573.845</ele>
        <time>2012-07-12T12:26:01Z</time>
      </trkpt>
      <trkpt lat="46.02712" lon="6.59062">
        <ele>1574.675</ele>
        <time>2012-07-12T12:26:06Z</time>
      </trkpt>
      <trkpt lat="46.02706" lon="6.59071">
        <ele>1575.745</ele>
        <time>2012-07-12T12:26:17Z</time>
      </trkpt>
      <trkpt lat="46.02697" lon="6.59081">
        <ele>1577.135</ele>
        <time>2012-07-12T12:26:30Z</time>
      </trkpt>
      <trkpt lat="46.0269" lon="6.59089">
        <ele>1577.854</ele>
        <time>2012-07-12T12:26:40Z</time>
      </trkpt>
      <trkpt lat="46.02684" lon="6.59097">
        <ele>1578.504</ele>
        <time>2012-07-12T12:26:49Z</time>
      </trkpt>
      <trkpt lat="46.02679" lon="6.59108">
        <ele>1580.695</ele>
        <time>2012-07-12T12:26:59Z</time>
      </trkpt>
      <trkpt lat="46.02672" lon="6.59117">
        <ele>1582.375</ele>
        <time>2012-07-12T12:27:09Z</time>
      </trkpt>
      <trkpt lat="46.02666" lon="6.59128">
        <ele>1583.154</ele>
        <time>2012-07-12T12:27:20Z</time>
      </trkpt>
      <trkpt lat="46.02661" lon="6.59138">
        <ele>1583.995</ele>
        <time>2012-07-12T12:27:29Z</time>
      </trkpt>
      <trkpt lat="46.02656" lon="6.59149">
        <ele>1585.906</ele>
        <time>2012-07-12T12:27:38Z</time>
      </trkpt>
      <trkpt lat="46.0265" lon="6.59161">
        <ele>1587.819</ele>
        <time>2012-07-12T12:27:49Z</time>
      </trkpt>
      <trkpt lat="46.02646" lon="6.59171">
        <ele>1588.675</ele>
        <time>2012-07-12T12:27:58Z</time>
      </trkpt>
      <trkpt lat="46.02638" lon="6.59183">
        <ele>1589.885</ele>
        <time>2012-07-12T12:28:10Z</time>
      </trkpt>
      <trkpt lat="46.02633" lon="6.59194">
        <ele>1590.715</ele>
        <time>2012-07-12T12:28:20Z</time>
      </trkpt>
      <trkpt lat="46.02628" lon="6.59203">
        <ele>1591.805</ele>
        <time>2012-07-12T12:28:29Z</time>
      </trkpt>
      <trkpt lat="46.02622" lon="6.5921">
        <ele>1592.895</ele>
        <time>2012-07-12T12:28:38Z</time>
      </trkpt>
      <trkpt lat="46.02615" lon="6.59208">
        <ele>1593.975</ele>
        <time>2012-07-12T12:28:47Z</time>
      </trkpt>
      <trkpt lat="46.02612" lon="6.59198">
        <ele>1593.723</ele>
        <time>2012-07-12T12:28:55Z</time>
      </trkpt>
      <trkpt lat="46.02612" lon="6.59195">
        <ele>1593.713</ele>
        <time>2012-07-12T12:28:57Z</time>
      </trkpt>
      <trkpt lat="46.02614" lon="6.5919">
        <ele>1594.273</ele>
        <time>2012-07-12T12:29:04Z</time>
      </trkpt>
      <trkpt lat="46.0262" lon="6.59185">
        <ele>1592.891</ele>
        <time>2012-07-12T12:29:10Z</time>
      </trkpt>
      <trkpt lat="46.02623" lon="6.59178">
        <ele>1592.632</ele>
        <time>2012-07-12T12:29:16Z</time>
      </trkpt>
      <trkpt lat="46.02628" lon="6.5917">
        <ele>1592.703</ele>
        <time>2012-07-12T12:29:22Z</time>
      </trkpt>
      <trkpt lat="46.02631" lon="6.59163">
        <ele>1593.124</ele>
        <time>2012-07-12T12:29:27Z</time>
      </trkpt>
      <trkpt lat="46.02634" lon="6.59148">
        <ele>1594.693</ele>
        <time>2012-07-12T12:29:36Z</time>
      </trkpt>
      <trkpt lat="46.02633" lon="6.59137">
        <ele>1592.923</ele>
        <time>2012-07-12T12:29:43Z</time>
      </trkpt>
      <trkpt lat="46.0263" lon="6.59127">
        <ele>1592.753</ele>
        <time>2012-07-12T12:29:50Z</time>
      </trkpt>
      <trkpt lat="46.02625" lon="6.59115">
        <ele>1594.613</ele>
        <time>2012-07-12T12:29:58Z</time>
      </trkpt>
      <trkpt lat="46.02623" lon="6.59109">
        <ele>1595.232</ele>
        <time>2012-07-12T12:30:02Z</time>
      </trkpt>
      <trkpt lat="46.0262" lon="6.59093">
        <ele>1596.403</ele>
        <time>2012-07-12T12:30:12Z</time>
      </trkpt>
      <trkpt lat="46.0262" lon="6.59077">
        <ele>1597.923</ele>
        <time>2012-07-12T12:30:22Z</time>
      </trkpt>
      <trkpt lat="46.02621" lon="6.5907">
        <ele>1598.483</ele>
        <time>2012-07-12T12:30:26Z</time>
      </trkpt>
      <trkpt lat="46.02624" lon="6.59056">
        <ele>1599.053</ele>
        <time>2012-07-12T12:30:35Z</time>
      </trkpt>
      <trkpt lat="46.02625" lon="6.59044">
        <ele>1600.253</ele>
        <time>2012-07-12T12:30:43Z</time>
      </trkpt>
      <trkpt lat="46.02628" lon="6.59028">
        <ele>1600.533</ele>
        <time>2012-07-12T12:30:53Z</time>
      </trkpt>
      <trkpt lat="46.02629" lon="6.5901">
        <ele>1604.283</ele>
        <time>2012-07-12T12:31:04Z</time>
      </trkpt>
      <trkpt lat="46.02634" lon="6.59001">
        <ele>1605.623</ele>
        <time>2012-07-12T12:31:11Z</time>
      </trkpt>
      <trkpt lat="46.02639" lon="6.58993">
        <ele>1606.532</ele>
        <time>2012-07-12T12:31:17Z</time>
      </trkpt>
      <trkpt lat="46.02643" lon="6.58982">
        <ele>1608.483</ele>
        <time>2012-07-12T12:31:25Z</time>
      </trkpt>
      <trkpt lat="46.02644" lon="6.58981">
        <ele>1608.563</ele>
        <time>2012-07-12T12:31:26Z</time>
      </trkpt>
      <trkpt lat="46.0265" lon="6.58974">
        <ele>1609.933</ele>
        <time>2012-07-12T12:31:34Z</time>
      </trkpt>
      <trkpt lat="46.02651" lon="6.58973">
        <ele>1609.853</ele>
        <time>2012-07-12T12:31:35Z</time>
      </trkpt>
      <trkpt lat="46.02655" lon="6.58959">
        <ele>1610.292</ele>
        <time>2012-07-12T12:31:44Z</time>
      </trkpt>
      <trkpt lat="46.02657" lon="6.58947">
        <ele>1609.182</ele>
        <time>2012-07-12T12:31:52Z</time>
      </trkpt>
      <trkpt lat="46.02659" lon="6.58933">
        <ele>1609.282</ele>
        <time>2012-07-12T12:32:01Z</time>
      </trkpt>
      <trkpt lat="46.02656" lon="6.58918">
        <ele>1614.693</ele>
        <time>2012-07-12T12:32:09Z</time>
      </trkpt>
      <trkpt lat="46.02656" lon="6.58906">
        <ele>1615.633</ele>
        <time>2012-07-12T12:32:16Z</time>
      </trkpt>
      <trkpt lat="46.02653" lon="6.58892">
        <ele>1616.893</ele>
        <time>2012-07-12T12:32:25Z</time>
      </trkpt>
      <trkpt lat="46.02649" lon="6.5888">
        <ele>1618.513</ele>
        <time>2012-07-12T12:32:33Z</time>
      </trkpt>
      <trkpt lat="46.02644" lon="6.58867">
        <ele>1617.823</ele>
        <time>2012-07-12T12:32:42Z</time>
      </trkpt>
      <trkpt lat="46.02637" lon="6.58856">
        <ele>1619.913</ele>
        <time>2012-07-12T12:32:50Z</time>
      </trkpt>
      <trkpt lat="46.02636" lon="6.58855">
        <ele>1620.473</ele>
        <time>2012-07-12T12:32:51Z</time>
      </trkpt>
      <trkpt lat="46.02629" lon="6.58845">
        <ele>1621.333</ele>
        <time>2012-07-12T12:33:00Z</time>
      </trkpt>
      <trkpt lat="46.02622" lon="6.58834">
        <ele>1620.943</ele>
        <time>2012-07-12T12:33:09Z</time>
      </trkpt>
      <trkpt lat="46.02612" lon="6.58825">
        <ele>1623.884</ele>
        <time>2012-07-12T12:33:18Z</time>
      </trkpt>
      <trkpt lat="46.02613" lon="6.58824">
        <ele>1627.124</ele>
        <time>2012-07-12T12:33:21Z</time>
      </trkpt>
      <trkpt lat="46.02603" lon="6.58815">
        <ele>1628.153</ele>
        <time>2012-07-12T12:33:30Z</time>
      </trkpt>
      <trkpt lat="46.02602" lon="6.58814">
        <ele>1628.063</ele>
        <time>2012-07-12T12:33:31Z</time>
      </trkpt>
      <trkpt lat="46.0259" lon="6.58803">
        <ele>1624.402</ele>
        <time>2012-07-12T12:33:41Z</time>
      </trkpt>
      <trkpt lat="46.02582" lon="6.58793">
        <ele>1622.082</ele>
        <time>2012-07-12T12:33:50Z</time>
      </trkpt>
      <trkpt lat="46.02579" lon="6.58789">
        <ele>1622.433</ele>
        <time>2012-07-12T12:33:53Z</time>
      </trkpt>
      <trkpt lat="46.02577" lon="6.58783">
        <ele>1622.883</ele>
        <time>2012-07-12T12:33:57Z</time>
      </trkpt>
      <trkpt lat="46.02571" lon="6.58772">
        <ele>1622.883</ele>
        <time>2012-07-12T12:34:05Z</time>
      </trkpt>
      <trkpt lat="46.02566" lon="6.58762">
        <ele>1623.523</ele>
        <time>2012-07-12T12:34:13Z</time>
      </trkpt>
      <trkpt lat="46.02565" lon="6.58761">
        <ele>1623.603</ele>
        <time>2012-07-12T12:34:14Z</time>
      </trkpt>
      <trkpt lat="46.02559" lon="6.58752">
        <ele>1625.093</ele>
        <time>2012-07-12T12:34:20Z</time>
      </trkpt>
      <trkpt lat="46.02557" lon="6.58747">
        <ele>1625.683</ele>
        <time>2012-07-12T12:34:23Z</time>
      </trkpt>
      <trkpt lat="46.02545" lon="6.58746">
        <ele>1629.474</ele>
        <time>2012-07-12T12:34:32Z</time>
      </trkpt>
      <trkpt lat="46.02535" lon="6.58748">
        <ele>1631.273</ele>
        <time>2012-07-12T12:34:41Z</time>
      </trkpt>
      <trkpt lat="46.02528" lon="6.5875">
        <ele>1631.683</ele>
        <time>2012-07-12T12:34:49Z</time>
      </trkpt>
      <trkpt lat="46.02516" lon="6.58753">
        <ele>1632.313</ele>
        <time>2012-07-12T12:34:59Z</time>
      </trkpt>
      <trkpt lat="46.02506" lon="6.58757">
        <ele>1633.713</ele>
        <time>2012-07-12T12:35:08Z</time>
      </trkpt>
      <trkpt lat="46.02496" lon="6.58765">
        <ele>1633.143</ele>
        <time>2012-07-12T12:35:18Z</time>
      </trkpt>
      <trkpt lat="46.02492" lon="6.58768">
        <ele>1633.463</ele>
        <time>2012-07-12T12:35:22Z</time>
      </trkpt>
      <trkpt lat="46.0248" lon="6.5877">
        <ele>1635.532</ele>
        <time>2012-07-12T12:35:31Z</time>
      </trkpt>
      <trkpt lat="46.02476" lon="6.58769">
        <ele>1635.892</ele>
        <time>2012-07-12T12:35:35Z</time>
      </trkpt>
      <trkpt lat="46.0247" lon="6.58764">
        <ele>1636.382</ele>
        <time>2012-07-12T12:35:41Z</time>
      </trkpt>
      <trkpt lat="46.0246" lon="6.58751">
        <ele>1636.682</ele>
        <time>2012-07-12T12:35:52Z</time>
      </trkpt>
      <trkpt lat="46.02458" lon="6.58746">
        <ele>1636.401</ele>
        <time>2012-07-12T12:35:56Z</time>
      </trkpt>
      <trkpt lat="46.02451" lon="6.58738">
        <ele>1638.662</ele>
        <time>2012-07-12T12:36:04Z</time>
      </trkpt>
      <trkpt lat="46.02444" lon="6.58733">
        <ele>1641.174</ele>
        <time>2012-07-12T12:36:10Z</time>
      </trkpt>
      <trkpt lat="46.02433" lon="6.58729">
        <ele>1643.524</ele>
        <time>2012-07-12T12:36:20Z</time>
      </trkpt>
      <trkpt lat="46.02422" lon="6.58726">
        <ele>1644.494</ele>
        <time>2012-07-12T12:36:31Z</time>
      </trkpt>
      <trkpt lat="46.02413" lon="6.58722">
        <ele>1646.323</ele>
        <time>2012-07-12T12:36:40Z</time>
      </trkpt>
      <trkpt lat="46.02407" lon="6.5872">
        <ele>1646.763</ele>
        <time>2012-07-12T12:36:47Z</time>
      </trkpt>
      <trkpt lat="46.02403" lon="6.58719">
        <ele>1647.383</ele>
        <time>2012-07-12T12:36:51Z</time>
      </trkpt>
      <trkpt lat="46.02393" lon="6.58718">
        <ele>1651.184</ele>
        <time>2012-07-12T12:37:00Z</time>
      </trkpt>
      <trkpt lat="46.02386" lon="6.58715">
        <ele>1651.803</ele>
        <time>2012-07-12T12:37:08Z</time>
      </trkpt>
      <trkpt lat="46.02375" lon="6.58715">
        <ele>1654.244</ele>
        <time>2012-07-12T12:37:18Z</time>
      </trkpt>
      <trkpt lat="46.02367" lon="6.58719">
        <ele>1654.573</ele>
        <time>2012-07-12T12:37:25Z</time>
      </trkpt>
      <trkpt lat="46.02359" lon="6.58723">
        <ele>1654.304</ele>
        <time>2012-07-12T12:37:33Z</time>
      </trkpt>
      <trkpt lat="46.0235" lon="6.58725">
        <ele>1654.823</ele>
        <time>2012-07-12T12:37:42Z</time>
      </trkpt>
      <trkpt lat="46.02342" lon="6.58731">
        <ele>1655.183</ele>
        <time>2012-07-12T12:37:50Z</time>
      </trkpt>
      <trkpt lat="46.02334" lon="6.58738">
        <ele>1657.544</ele>
        <time>2012-07-12T12:37:58Z</time>
      </trkpt>
      <trkpt lat="46.02326" lon="6.58742">
        <ele>1657.372</ele>
        <time>2012-07-12T12:38:06Z</time>
      </trkpt>
      <trkpt lat="46.0232" lon="6.5874">
        <ele>1656.942</ele>
        <time>2012-07-12T12:38:12Z</time>
      </trkpt>
      <trkpt lat="46.02312" lon="6.58733">
        <ele>1656.052</ele>
        <time>2012-07-12T12:38:21Z</time>
      </trkpt>
      <trkpt lat="46.02304" lon="6.58728">
        <ele>1658.123</ele>
        <time>2012-07-12T12:38:29Z</time>
      </trkpt>
      <trkpt lat="46.02296" lon="6.58725">
        <ele>1657.973</ele>
        <time>2012-07-12T12:38:36Z</time>
      </trkpt>
      <trkpt lat="46.02285" lon="6.58723">
        <ele>1659.672</ele>
        <time>2012-07-12T12:38:45Z</time>
      </trkpt>
      <trkpt lat="46.02274" lon="6.58725">
        <ele>1660.483</ele>
        <time>2012-07-12T12:38:54Z</time>
      </trkpt>
      <trkpt lat="46.02259" lon="6.5873">
        <ele>1662.594</ele>
        <time>2012-07-12T12:39:05Z</time>
      </trkpt>
      <trkpt lat="46.02248" lon="6.58733">
        <ele>1664.604</ele>
        <time>2012-07-12T12:39:12Z</time>
      </trkpt>
      <trkpt lat="46.02236" lon="6.58734">
        <ele>1666.083</ele>
        <time>2012-07-12T12:39:20Z</time>
      </trkpt>
      <trkpt lat="46.02221" lon="6.58733">
        <ele>1666.121</ele>
        <time>2012-07-12T12:39:29Z</time>
      </trkpt>
      <trkpt lat="46.02212" lon="6.5873">
        <ele>1666.011</ele>
        <time>2012-07-12T12:39:35Z</time>
      </trkpt>
      <trkpt lat="46.02198" lon="6.58727">
        <ele>1666.562</ele>
        <time>2012-07-12T12:39:44Z</time>
      </trkpt>
      <trkpt lat="46.02187" lon="6.58728">
        <ele>1666.242</ele>
        <time>2012-07-12T12:39:51Z</time>
      </trkpt>
      <trkpt lat="46.02177" lon="6.58731">
        <ele>1669.834</ele>
        <time>2012-07-12T12:39:57Z</time>
      </trkpt>
      <trkpt lat="46.02163" lon="6.58737">
        <ele>1672.123</ele>
        <time>2012-07-12T12:40:06Z</time>
      </trkpt>
      <trkpt lat="46.02148" lon="6.5874">
        <ele>1673.993</ele>
        <time>2012-07-12T12:40:16Z</time>
      </trkpt>
      <trkpt lat="46.02138" lon="6.58738">
        <ele>1674.963</ele>
        <time>2012-07-12T12:40:24Z</time>
      </trkpt>
      <trkpt lat="46.02129" lon="6.58731">
        <ele>1675.872</ele>
        <time>2012-07-12T12:40:32Z</time>
      </trkpt>
      <trkpt lat="46.02122" lon="6.58725">
        <ele>1675.852</ele>
        <time>2012-07-12T12:40:38Z</time>
      </trkpt>
      <trkpt lat="46.02118" lon="6.58716">
        <ele>1676.641</ele>
        <time>2012-07-12T12:40:45Z</time>
      </trkpt>
      <trkpt lat="46.0211" lon="6.58712">
        <ele>1675.772</ele>
        <time>2012-07-12T12:40:55Z</time>
      </trkpt>
      <trkpt lat="46.02102" lon="6.58708">
        <ele>1677.883</ele>
        <time>2012-07-12T12:41:03Z</time>
      </trkpt>
      <trkpt lat="46.02099" lon="6.58708">
        <ele>1678.053</ele>
        <time>2012-07-12T12:41:06Z</time>
      </trkpt>
      <trkpt lat="46.0209" lon="6.58711">
        <ele>1681.483</ele>
        <time>2012-07-12T12:41:14Z</time>
      </trkpt>
      <trkpt lat="46.02087" lon="6.58711">
        <ele>1683.163</ele>
        <time>2012-07-12T12:41:17Z</time>
      </trkpt>
      <trkpt lat="46.02083" lon="6.58709">
        <ele>1684.872</ele>
        <time>2012-07-12T12:41:21Z</time>
      </trkpt>
      <trkpt lat="46.02077" lon="6.58706">
        <ele>1685.822</ele>
        <time>2012-07-12T12:41:26Z</time>
      </trkpt>
      <trkpt lat="46.02075" lon="6.58702">
        <ele>1687.803</ele>
        <time>2012-07-12T12:41:28Z</time>
      </trkpt>
      <trkpt lat="46.02074" lon="6.58689">
        <ele>1690.121</ele>
        <time>2012-07-12T12:41:36Z</time>
      </trkpt>
      <trkpt lat="46.02071" lon="6.5868">
        <ele>1687.86</ele>
        <time>2012-07-12T12:41:43Z</time>
      </trkpt>
      <trkpt lat="46.02064" lon="6.58676">
        <ele>1686.411</ele>
        <time>2012-07-12T12:41:51Z</time>
      </trkpt>
      <trkpt lat="46.02061" lon="6.58666">
        <ele>1687.191</ele>
        <time>2012-07-12T12:41:59Z</time>
      </trkpt>
      <trkpt lat="46.0206" lon="6.58656">
        <ele>1690.902</ele>
        <time>2012-07-12T12:42:05Z</time>
      </trkpt>
      <trkpt lat="46.02057" lon="6.58643">
        <ele>1695.203</ele>
        <time>2012-07-12T12:42:13Z</time>
      </trkpt>
      <trkpt lat="46.02059" lon="6.58633">
        <ele>1691.861</ele>
        <time>2012-07-12T12:42:21Z</time>
      </trkpt>
      <trkpt lat="46.02059" lon="6.5863">
        <ele>1691.542</ele>
        <time>2012-07-12T12:42:23Z</time>
      </trkpt>
      <trkpt lat="46.02059" lon="6.58621">
        <ele>1690.521</ele>
        <time>2012-07-12T12:42:30Z</time>
      </trkpt>
      <trkpt lat="46.02061" lon="6.58611">
        <ele>1692.531</ele>
        <time>2012-07-12T12:42:38Z</time>
      </trkpt>
      <trkpt lat="46.02068" lon="6.58601">
        <ele>1691.44</ele>
        <time>2012-07-12T12:42:47Z</time>
      </trkpt>
      <trkpt lat="46.02072" lon="6.58591">
        <ele>1691.42</ele>
        <time>2012-07-12T12:42:54Z</time>
      </trkpt>
      <trkpt lat="46.0207" lon="6.58572">
        <ele>1693.452</ele>
        <time>2012-07-12T12:43:06Z</time>
      </trkpt>
      <trkpt lat="46.02069" lon="6.58561">
        <ele>1691.93</ele>
        <time>2012-07-12T12:43:14Z</time>
      </trkpt>
      <trkpt lat="46.0207" lon="6.58545">
        <ele>1695.992</ele>
        <time>2012-07-12T12:43:23Z</time>
      </trkpt>
      <trkpt lat="46.0207" lon="6.5853">
        <ele>1699.972</ele>
        <time>2012-07-12T12:43:31Z</time>
      </trkpt>
      <trkpt lat="46.02072" lon="6.58519">
        <ele>1700.661</ele>
        <time>2012-07-12T12:43:38Z</time>
      </trkpt>
      <trkpt lat="46.02073" lon="6.58501">
        <ele>1700.019</ele>
        <time>2012-07-12T12:43:48Z</time>
      </trkpt>
      <trkpt lat="46.02073" lon="6.58488">
        <ele>1698.558</ele>
        <time>2012-07-12T12:43:55Z</time>
      </trkpt>
      <trkpt lat="46.02077" lon="6.58475">
        <ele>1698.859</ele>
        <time>2012-07-12T12:44:03Z</time>
      </trkpt>
      <trkpt lat="46.02079" lon="6.58467">
        <ele>1699.28</ele>
        <time>2012-07-12T12:44:07Z</time>
      </trkpt>
      <trkpt lat="46.02075" lon="6.58451">
        <ele>1700.789</ele>
        <time>2012-07-12T12:44:16Z</time>
      </trkpt>
      <trkpt lat="46.02072" lon="6.58437">
        <ele>1701.299</ele>
        <time>2012-07-12T12:44:24Z</time>
      </trkpt>
      <trkpt lat="46.02069" lon="6.58426">
        <ele>1702.92</ele>
        <time>2012-07-12T12:44:30Z</time>
      </trkpt>
      <trkpt lat="46.0207" lon="6.58413">
        <ele>1701.8</ele>
        <time>2012-07-12T12:44:37Z</time>
      </trkpt>
      <trkpt lat="46.02072" lon="6.58402">
        <ele>1702.198</ele>
        <time>2012-07-12T12:44:43Z</time>
      </trkpt>
      <trkpt lat="46.02074" lon="6.58395">
        <ele>1701.437</ele>
        <time>2012-07-12T12:44:47Z</time>
      </trkpt>
      <trkpt lat="46.02075" lon="6.5838">
        <ele>1703.009</ele>
        <time>2012-07-12T12:44:55Z</time>
      </trkpt>
      <trkpt lat="46.02074" lon="6.58366">
        <ele>1707.41</ele>
        <time>2012-07-12T12:45:02Z</time>
      </trkpt>
      <trkpt lat="46.02073" lon="6.58361">
        <ele>1708.99</ele>
        <time>2012-07-12T12:45:05Z</time>
      </trkpt>
      <trkpt lat="46.02072" lon="6.5835">
        <ele>1708.859</ele>
        <time>2012-07-12T12:45:13Z</time>
      </trkpt>
      <trkpt lat="46.02064" lon="6.5834">
        <ele>1711.231</ele>
        <time>2012-07-12T12:45:20Z</time>
      </trkpt>
      <trkpt lat="46.0206" lon="6.58332">
        <ele>1712.951</ele>
        <time>2012-07-12T12:45:28Z</time>
      </trkpt>
      <trkpt lat="46.02054" lon="6.58325">
        <ele>1715.441</ele>
        <time>2012-07-12T12:45:36Z</time>
      </trkpt>
      <trkpt lat="46.02045" lon="6.58317">
        <ele>1720.963</ele>
        <time>2012-07-12T12:45:44Z</time>
      </trkpt>
      <trkpt lat="46.0204" lon="6.5831">
        <ele>1723.323</ele>
        <time>2012-07-12T12:45:52Z</time>
      </trkpt>
      <trkpt lat="46.02034" lon="6.58302">
        <ele>1726.233</ele>
        <time>2012-07-12T12:46:00Z</time>
      </trkpt>
      <trkpt lat="46.02026" lon="6.5829">
        <ele>1728.173</ele>
        <time>2012-07-12T12:46:08Z</time>
      </trkpt>
      <trkpt lat="46.02018" lon="6.58279">
        <ele>1728.892</ele>
        <time>2012-07-12T12:46:16Z</time>
      </trkpt>
      <trkpt lat="46.02012" lon="6.58276">
        <ele>1727.671</ele>
        <time>2012-07-12T12:46:21Z</time>
      </trkpt>
      <trkpt lat="46.02004" lon="6.5827">
        <ele>1724.141</ele>
        <time>2012-07-12T12:46:30Z</time>
      </trkpt>
      <trkpt lat="46.01998" lon="6.58263">
        <ele>1723.951</ele>
        <time>2012-07-12T12:46:40Z</time>
      </trkpt>
      <trkpt lat="46.01995" lon="6.58253">
        <ele>1726.682</ele>
        <time>2012-07-12T12:46:46Z</time>
      </trkpt>
      <trkpt lat="46.01991" lon="6.58243">
        <ele>1725.15</ele>
        <time>2012-07-12T12:46:53Z</time>
      </trkpt>
      <trkpt lat="46.01988" lon="6.58243">
        <ele>1726.241</ele>
        <time>2012-07-12T12:46:55Z</time>
      </trkpt>
      <trkpt lat="46.01981" lon="6.58252">
        <ele>1728.463</ele>
        <time>2012-07-12T12:47:03Z</time>
      </trkpt>
      <trkpt lat="46.01979" lon="6.58263">
        <ele>1730.953</ele>
        <time>2012-07-12T12:47:10Z</time>
      </trkpt>
      <trkpt lat="46.01983" lon="6.58272">
        <ele>1733.664</ele>
        <time>2012-07-12T12:47:17Z</time>
      </trkpt>
      <trkpt lat="46.01984" lon="6.58281">
        <ele>1735.773</ele>
        <time>2012-07-12T12:47:23Z</time>
      </trkpt>
      <trkpt lat="46.01985" lon="6.58291">
        <ele>1737.193</ele>
        <time>2012-07-12T12:47:28Z</time>
      </trkpt>
      <trkpt lat="46.01988" lon="6.58301">
        <ele>1737.234</ele>
        <time>2012-07-12T12:47:36Z</time>
      </trkpt>
      <trkpt lat="46.01998" lon="6.58307">
        <ele>1738.613</ele>
        <time>2012-07-12T12:47:44Z</time>
      </trkpt>
      <trkpt lat="46.02007" lon="6.58312">
        <ele>1739.643</ele>
        <time>2012-07-12T12:47:52Z</time>
      </trkpt>
      <trkpt lat="46.02014" lon="6.58319">
        <ele>1738.343</ele>
        <time>2012-07-12T12:47:59Z</time>
      </trkpt>
      <trkpt lat="46.0202" lon="6.58328">
        <ele>1737.382</ele>
        <time>2012-07-12T12:48:06Z</time>
      </trkpt>
      <trkpt lat="46.02021" lon="6.58338">
        <ele>1736.852</ele>
        <time>2012-07-12T12:48:14Z</time>
      </trkpt>
      <trkpt lat="46.02019" lon="6.5834">
        <ele>1737.032</ele>
        <time>2012-07-12T12:48:16Z</time>
      </trkpt>
      <trkpt lat="46.02012" lon="6.58336">
        <ele>1737.953</ele>
        <time>2012-07-12T12:48:23Z</time>
      </trkpt>
      <trkpt lat="46.02006" lon="6.58328">
        <ele>1739.282</ele>
        <time>2012-07-12T12:48:31Z</time>
      </trkpt>
      <trkpt lat="46.02002" lon="6.58329">
        <ele>1738.681</ele>
        <time>2012-07-12T12:48:37Z</time>
      </trkpt>
      <trkpt lat="46.01993" lon="6.58327">
        <ele>1736.821</ele>
        <time>2012-07-12T12:48:46Z</time>
      </trkpt>
      <trkpt lat="46.01991" lon="6.58326">
        <ele>1736.811</ele>
        <time>2012-07-12T12:48:48Z</time>
      </trkpt>
      <trkpt lat="46.01983" lon="6.58322">
        <ele>1737.822</ele>
        <time>2012-07-12T12:48:56Z</time>
      </trkpt>
      <trkpt lat="46.01975" lon="6.5832">
        <ele>1738.771</ele>
        <time>2012-07-12T12:49:03Z</time>
      </trkpt>
      <trkpt lat="46.01974" lon="6.5832">
        <ele>1738.661</ele>
        <time>2012-07-12T12:49:04Z</time>
      </trkpt>
      <trkpt lat="46.01967" lon="6.58317">
        <ele>1738.961</ele>
        <time>2012-07-12T12:49:10Z</time>
      </trkpt>
      <trkpt lat="46.0196" lon="6.58308">
        <ele>1740.642</ele>
        <time>2012-07-12T12:49:17Z</time>
      </trkpt>
      <trkpt lat="46.01951" lon="6.58294">
        <ele>1743.252</ele>
        <time>2012-07-12T12:49:27Z</time>
      </trkpt>
      <trkpt lat="46.01948" lon="6.58286">
        <ele>1745.342</ele>
        <time>2012-07-12T12:49:34Z</time>
      </trkpt>
      <trkpt lat="46.01947" lon="6.58285">
        <ele>1745.172</ele>
        <time>2012-07-12T12:49:35Z</time>
      </trkpt>
      <trkpt lat="46.01944" lon="6.58283">
        <ele>1745.141</ele>
        <time>2012-07-12T12:49:38Z</time>
      </trkpt>
      <trkpt lat="46.01941" lon="6.58278">
        <ele>1745.322</ele>
        <time>2012-07-12T12:49:42Z</time>
      </trkpt>
      <trkpt lat="46.01937" lon="6.58263">
        <ele>1747.672</ele>
        <time>2012-07-12T12:49:50Z</time>
      </trkpt>
      <trkpt lat="46.01934" lon="6.58248">
        <ele>1751.822</ele>
        <time>2012-07-12T12:49:58Z</time>
      </trkpt>
      <trkpt lat="46.01936" lon="6.58232">
        <ele>1752.741</ele>
        <time>2012-07-12T12:50:06Z</time>
      </trkpt>
      <trkpt lat="46.01941" lon="6.58219">
        <ele>1751.501</ele>
        <time>2012-07-12T12:50:13Z</time>
      </trkpt>
      <trkpt lat="46.01941" lon="6.58216">
        <ele>1750.701</ele>
        <time>2012-07-12T12:50:15Z</time>
      </trkpt>
      <trkpt lat="46.01945" lon="6.58209">
        <ele>1751.402</ele>
        <time>2012-07-12T12:50:22Z</time>
      </trkpt>
      <trkpt lat="46.01953" lon="6.58204">
        <ele>1751.792</ele>
        <time>2012-07-12T12:50:28Z</time>
      </trkpt>
      <trkpt lat="46.01955" lon="6.58203">
        <ele>1752.332</ele>
        <time>2012-07-12T12:50:30Z</time>
      </trkpt>
      <trkpt lat="46.01963" lon="6.58195">
        <ele>1753.212</ele>
        <time>2012-07-12T12:50:38Z</time>
      </trkpt>
      <trkpt lat="46.01963" lon="6.58189">
        <ele>1753.331</ele>
        <time>2012-07-12T12:50:42Z</time>
      </trkpt>
      <trkpt lat="46.01956" lon="6.58189">
        <ele>1754.691</ele>
        <time>2012-07-12T12:50:48Z</time>
      </trkpt>
      <trkpt lat="46.01951" lon="6.58192">
        <ele>1755.262</ele>
        <time>2012-07-12T12:50:53Z</time>
      </trkpt>
      <trkpt lat="46.01943" lon="6.58198">
        <ele>1755.052</ele>
        <time>2012-07-12T12:51:02Z</time>
      </trkpt>
      <trkpt lat="46.01935" lon="6.58202">
        <ele>1757.352</ele>
        <time>2012-07-12T12:51:09Z</time>
      </trkpt>
      <trkpt lat="46.01929" lon="6.58206">
        <ele>1758.313</ele>
        <time>2012-07-12T12:51:15Z</time>
      </trkpt>
      <trkpt lat="46.01924" lon="6.58214">
        <ele>1759.483</ele>
        <time>2012-07-12T12:51:22Z</time>
      </trkpt>
      <trkpt lat="46.01924" lon="6.5822">
        <ele>1760.392</ele>
        <time>2012-07-12T12:51:27Z</time>
      </trkpt>
      <trkpt lat="46.01919" lon="6.58227">
        <ele>1761.051</ele>
        <time>2012-07-12T12:51:35Z</time>
      </trkpt>
      <trkpt lat="46.01915" lon="6.5822">
        <ele>1760.551</ele>
        <time>2012-07-12T12:51:41Z</time>
      </trkpt>
      <trkpt lat="46.01914" lon="6.58215">
        <ele>1761.271</ele>
        <time>2012-07-12T12:51:44Z</time>
      </trkpt>
      <trkpt lat="46.01918" lon="6.58202">
        <ele>1761.321</ele>
        <time>2012-07-12T12:51:52Z</time>
      </trkpt>
      <trkpt lat="46.01921" lon="6.58195">
        <ele>1761.672</ele>
        <time>2012-07-12T12:51:57Z</time>
      </trkpt>
      <trkpt lat="46.01927" lon="6.58186">
        <ele>1763.032</ele>
        <time>2012-07-12T12:52:04Z</time>
      </trkpt>
      <trkpt lat="46.01931" lon="6.58179">
        <ele>1763.082</ele>
        <time>2012-07-12T12:52:09Z</time>
      </trkpt>
      <trkpt lat="46.01934" lon="6.58174">
        <ele>1763.202</ele>
        <time>2012-07-12T12:52:13Z</time>
      </trkpt>
      <trkpt lat="46.01941" lon="6.58165">
        <ele>1764.141</ele>
        <time>2012-07-12T12:52:22Z</time>
      </trkpt>
      <trkpt lat="46.01949" lon="6.58162">
        <ele>1766.212</ele>
        <time>2012-07-12T12:52:29Z</time>
      </trkpt>
      <trkpt lat="46.01951" lon="6.58162">
        <ele>1766.732</ele>
        <time>2012-07-12T12:52:31Z</time>
      </trkpt>
      <trkpt lat="46.01955" lon="6.58159">
        <ele>1767.002</ele>
        <time>2012-07-12T12:52:35Z</time>
      </trkpt>
      <trkpt lat="46.01958" lon="6.58154">
        <ele>1767.021</ele>
        <time>2012-07-12T12:52:39Z</time>
      </trkpt>
      <trkpt lat="46.01959" lon="6.5815">
        <ele>1767.291</ele>
        <time>2012-07-12T12:52:41Z</time>
      </trkpt>
      <trkpt lat="46.0196" lon="6.58138">
        <ele>1767.761</ele>
        <time>2012-07-12T12:52:48Z</time>
      </trkpt>
      <trkpt lat="46.01953" lon="6.58125">
        <ele>1768.052</ele>
        <time>2012-07-12T12:52:58Z</time>
      </trkpt>
      <trkpt lat="46.01948" lon="6.58116">
        <ele>1769.303</ele>
        <time>2012-07-12T12:53:05Z</time>
      </trkpt>
      <trkpt lat="46.01942" lon="6.58107">
        <ele>1770.612</ele>
        <time>2012-07-12T12:53:12Z</time>
      </trkpt>
      <trkpt lat="46.01935" lon="6.58105">
        <ele>1771.592</ele>
        <time>2012-07-12T12:53:19Z</time>
      </trkpt>
      <trkpt lat="46.01931" lon="6.58104">
        <ele>1772.172</ele>
        <time>2012-07-12T12:53:23Z</time>
      </trkpt>
      <trkpt lat="46.01919" lon="6.58101">
        <ele>1775.032</ele>
        <time>2012-07-12T12:53:34Z</time>
      </trkpt>
      <trkpt lat="46.0191" lon="6.58099">
        <ele>1776.402</ele>
        <time>2012-07-12T12:53:43Z</time>
      </trkpt>
      <trkpt lat="46.01901" lon="6.58098">
        <ele>1777.822</ele>
        <time>2012-07-12T12:53:52Z</time>
      </trkpt>
      <trkpt lat="46.01892" lon="6.581">
        <ele>1779.292</ele>
        <time>2012-07-12T12:54:01Z</time>
      </trkpt>
      <trkpt lat="46.0189" lon="6.58101">
        <ele>1779.392</ele>
        <time>2012-07-12T12:54:03Z</time>
      </trkpt>
      <trkpt lat="46.01888" lon="6.58102">
        <ele>1779.972</ele>
        <time>2012-07-12T12:54:06Z</time>
      </trkpt>
      <trkpt lat="46.0188" lon="6.58101">
        <ele>1782.723</ele>
        <time>2012-07-12T12:54:15Z</time>
      </trkpt>
      <trkpt lat="46.01875" lon="6.58101">
        <ele>1783.351</ele>
        <time>2012-07-12T12:54:19Z</time>
      </trkpt>
      <trkpt lat="46.01867" lon="6.58104">
        <ele>1783.652</ele>
        <time>2012-07-12T12:54:28Z</time>
      </trkpt>
      <trkpt lat="46.01865" lon="6.58105">
        <ele>1784.372</ele>
        <time>2012-07-12T12:54:30Z</time>
      </trkpt>
      <trkpt lat="46.01856" lon="6.58102">
        <ele>1786.773</ele>
        <time>2012-07-12T12:54:38Z</time>
      </trkpt>
      <trkpt lat="46.01852" lon="6.58097">
        <ele>1788.333</ele>
        <time>2012-07-12T12:54:43Z</time>
      </trkpt>
      <trkpt lat="46.01847" lon="6.58085">
        <ele>1791.254</ele>
        <time>2012-07-12T12:54:51Z</time>
      </trkpt>
      <trkpt lat="46.01845" lon="6.58082">
        <ele>1791.603</ele>
        <time>2012-07-12T12:54:53Z</time>
      </trkpt>
      <trkpt lat="46.01839" lon="6.58078">
        <ele>1792.253</ele>
        <time>2012-07-12T12:54:59Z</time>
      </trkpt>
      <trkpt lat="46.01832" lon="6.58069">
        <ele>1794.193</ele>
        <time>2012-07-12T12:55:08Z</time>
      </trkpt>
      <trkpt lat="46.01832" lon="6.58068">
        <ele>1794.273</ele>
        <time>2012-07-12T12:55:09Z</time>
      </trkpt>
      <trkpt lat="46.01824" lon="6.58063">
        <ele>1795.012</ele>
        <time>2012-07-12T12:55:18Z</time>
      </trkpt>
      <trkpt lat="46.01823" lon="6.58063">
        <ele>1795.242</ele>
        <time>2012-07-12T12:55:19Z</time>
      </trkpt>
      <trkpt lat="46.01818" lon="6.58062">
        <ele>1795.912</ele>
        <time>2012-07-12T12:55:25Z</time>
      </trkpt>
      <trkpt lat="46.01813" lon="6.5806">
        <ele>1796.592</ele>
        <time>2012-07-12T12:55:31Z</time>
      </trkpt>
      <trkpt lat="46.01805" lon="6.58057">
        <ele>1797.802</ele>
        <time>2012-07-12T12:55:40Z</time>
      </trkpt>
      <trkpt lat="46.01801" lon="6.58056">
        <ele>1798.542</ele>
        <time>2012-07-12T12:55:45Z</time>
      </trkpt>
      <trkpt lat="46.01793" lon="6.58055">
        <ele>1800.203</ele>
        <time>2012-07-12T12:55:53Z</time>
      </trkpt>
      <trkpt lat="46.01786" lon="6.58053">
        <ele>1801.222</ele>
        <time>2012-07-12T12:56:01Z</time>
      </trkpt>
      <trkpt lat="46.0178" lon="6.58049">
        <ele>1802.732</ele>
        <time>2012-07-12T12:56:08Z</time>
      </trkpt>
      <trkpt lat="46.01773" lon="6.58043">
        <ele>1804.582</ele>
        <time>2012-07-12T12:56:16Z</time>
      </trkpt>
      <trkpt lat="46.01773" lon="6.58043">
        <ele>1805.222</ele>
        <time>2012-07-12T12:56:21Z</time>
      </trkpt>
      <trkpt lat="46.01769" lon="6.5804">
        <ele>1806.742</ele>
        <time>2012-07-12T12:56:30Z</time>
      </trkpt>
      <trkpt lat="46.01762" lon="6.58035">
        <ele>1808.952</ele>
        <time>2012-07-12T12:56:41Z</time>
      </trkpt>
      <trkpt lat="46.01756" lon="6.58034">
        <ele>1810.302</ele>
        <time>2012-07-12T12:56:48Z</time>
      </trkpt>
      <trkpt lat="46.01755" lon="6.58037">
        <ele>1810.552</ele>
        <time>2012-07-12T12:56:51Z</time>
      </trkpt>
      <trkpt lat="46.01755" lon="6.58041">
        <ele>1810.972</ele>
        <time>2012-07-12T12:56:55Z</time>
      </trkpt>
      <trkpt lat="46.0176" lon="6.58048">
        <ele>1812.122</ele>
        <time>2012-07-12T12:57:05Z</time>
      </trkpt>
      <trkpt lat="46.01763" lon="6.58053">
        <ele>1812.452</ele>
        <time>2012-07-12T12:57:11Z</time>
      </trkpt>
      <trkpt lat="46.01769" lon="6.58064">
        <ele>1813.422</ele>
        <time>2012-07-12T12:57:19Z</time>
      </trkpt>
      <trkpt lat="46.01774" lon="6.58071">
        <ele>1814.553</ele>
        <time>2012-07-12T12:57:25Z</time>
      </trkpt>
      <trkpt lat="46.01783" lon="6.58082">
        <ele>1815.212</ele>
        <time>2012-07-12T12:57:35Z</time>
      </trkpt>
      <trkpt lat="46.01789" lon="6.58091">
        <ele>1815.371</ele>
        <time>2012-07-12T12:57:43Z</time>
      </trkpt>
      <trkpt lat="46.01793" lon="6.58096">
        <ele>1815.812</ele>
        <time>2012-07-12T12:57:47Z</time>
      </trkpt>
      <trkpt lat="46.01797" lon="6.58103">
        <ele>1815.822</ele>
        <time>2012-07-12T12:57:52Z</time>
      </trkpt>
      <trkpt lat="46.01806" lon="6.58113">
        <ele>1815.851</ele>
        <time>2012-07-12T12:58:00Z</time>
      </trkpt>
      <trkpt lat="46.01812" lon="6.58126">
        <ele>1816.982</ele>
        <time>2012-07-12T12:58:08Z</time>
      </trkpt>
      <trkpt lat="46.01815" lon="6.5814">
        <ele>1818.412</ele>
        <time>2012-07-12T12:58:17Z</time>
      </trkpt>
      <trkpt lat="46.01816" lon="6.58144">
        <ele>1818.732</ele>
        <time>2012-07-12T12:58:20Z</time>
      </trkpt>
      <trkpt lat="46.01821" lon="6.58153">
        <ele>1819.723</ele>
        <time>2012-07-12T12:58:27Z</time>
      </trkpt>
      <trkpt lat="46.01822" lon="6.58154">
        <ele>1819.883</ele>
        <time>2012-07-12T12:58:28Z</time>
      </trkpt>
      <trkpt lat="46.01825" lon="6.58162">
        <ele>1821.083</ele>
        <time>2012-07-12T12:58:34Z</time>
      </trkpt>
      <trkpt lat="46.01825" lon="6.58165">
        <ele>1821.242</ele>
        <time>2012-07-12T12:58:36Z</time>
      </trkpt>
      <trkpt lat="46.01821" lon="6.58166">
        <ele>1821.962</ele>
        <time>2012-07-12T12:58:41Z</time>
      </trkpt>
      <trkpt lat="46.01814" lon="6.58155">
        <ele>1823.823</ele>
        <time>2012-07-12T12:58:51Z</time>
      </trkpt>
      <trkpt lat="46.01811" lon="6.5815">
        <ele>1824.402</ele>
        <time>2012-07-12T12:58:56Z</time>
      </trkpt>
      <trkpt lat="46.01808" lon="6.58147">
        <ele>1824.893</ele>
        <time>2012-07-12T12:58:59Z</time>
      </trkpt>
      <trkpt lat="46.01802" lon="6.58139">
        <ele>1826.593</ele>
        <time>2012-07-12T12:59:08Z</time>
      </trkpt>
      <trkpt lat="46.01793" lon="6.58132">
        <ele>1828.082</ele>
        <time>2012-07-12T12:59:19Z</time>
      </trkpt>
      <trkpt lat="46.01788" lon="6.5813">
        <ele>1828.632</ele>
        <time>2012-07-12T12:59:25Z</time>
      </trkpt>
      <trkpt lat="46.01784" lon="6.58129">
        <ele>1829.372</ele>
        <time>2012-07-12T12:59:29Z</time>
      </trkpt>
      <trkpt lat="46.01781" lon="6.58126">
        <ele>1829.622</ele>
        <time>2012-07-12T12:59:33Z</time>
      </trkpt>
      <trkpt lat="46.01772" lon="6.58124">
        <ele>1830.732</ele>
        <time>2012-07-12T12:59:43Z</time>
      </trkpt>
      <trkpt lat="46.01766" lon="6.58121">
        <ele>1831.001</ele>
        <time>2012-07-12T12:59:50Z</time>
      </trkpt>
      <trkpt lat="46.01765" lon="6.58121">
        <ele>1832.432</ele>
        <time>2012-07-12T12:59:58Z</time>
      </trkpt>
      <trkpt lat="46.01761" lon="6.58121">
        <ele>1832.301</ele>
        <time>2012-07-12T13:00:10Z</time>
      </trkpt>
      <trkpt lat="46.01759" lon="6.58121">
        <ele>1832.302</ele>
        <time>2012-07-12T13:00:30Z</time>
      </trkpt>
      <trkpt lat="46.01756" lon="6.58119">
        <ele>1833.302</ele>
        <time>2012-07-12T13:00:35Z</time>
      </trkpt>
      <trkpt lat="46.01748" lon="6.58117">
        <ele>1834.832</ele>
        <time>2012-07-12T13:00:45Z</time>
      </trkpt>
      <trkpt lat="46.01738" lon="6.58114">
        <ele>1836.392</ele>
        <time>2012-07-12T13:00:56Z</time>
      </trkpt>
      <trkpt lat="46.01727" lon="6.58111">
        <ele>1838.463</ele>
        <time>2012-07-12T13:01:09Z</time>
      </trkpt>
      <trkpt lat="46.01725" lon="6.58109">
        <ele>1838.742</ele>
        <time>2012-07-12T13:01:11Z</time>
      </trkpt>
      <trkpt lat="46.01723" lon="6.58108">
        <ele>1839.142</ele>
        <time>2012-07-12T13:01:14Z</time>
      </trkpt>
      <trkpt lat="46.01714" lon="6.58104">
        <ele>1840.102</ele>
        <time>2012-07-12T13:01:25Z</time>
      </trkpt>
      <trkpt lat="46.01705" lon="6.58103">
        <ele>1842.244</ele>
        <time>2012-07-12T13:01:36Z</time>
      </trkpt>
      <trkpt lat="46.01699" lon="6.58102">
        <ele>1843.662</ele>
        <time>2012-07-12T13:01:44Z</time>
      </trkpt>
      <trkpt lat="46.01691" lon="6.58101">
        <ele>1845.453</ele>
        <time>2012-07-12T13:01:54Z</time>
      </trkpt>
      <trkpt lat="46.0168" lon="6.58099">
        <ele>1846.882</ele>
        <time>2012-07-12T13:02:06Z</time>
      </trkpt>
      <trkpt lat="46.01671" lon="6.58098">
        <ele>1847.862</ele>
        <time>2012-07-12T13:02:16Z</time>
      </trkpt>
      <trkpt lat="46.0166" lon="6.58096">
        <ele>1850.242</ele>
        <time>2012-07-12T13:02:28Z</time>
      </trkpt>
      <trkpt lat="46.01652" lon="6.58096">
        <ele>1851.902</ele>
        <time>2012-07-12T13:02:37Z</time>
      </trkpt>
      <trkpt lat="46.01646" lon="6.58095">
        <ele>1853.032</ele>
        <time>2012-07-12T13:02:47Z</time>
      </trkpt>
      <trkpt lat="46.01641" lon="6.58093">
        <ele>1856.751</ele>
        <time>2012-07-12T13:03:29Z</time>
      </trkpt>
      <trkpt lat="46.01638" lon="6.58093">
        <ele>1856.331</ele>
        <time>2012-07-12T13:03:38Z</time>
      </trkpt>
      <trkpt lat="46.01632" lon="6.58092">
        <ele>1855.792</ele>
        <time>2012-07-12T13:03:48Z</time>
      </trkpt>
      <trkpt lat="46.01623" lon="6.58091">
        <ele>1857.152</ele>
        <time>2012-07-12T13:03:56Z</time>
      </trkpt>
      <trkpt lat="46.01613" lon="6.58089">
        <ele>1858.583</ele>
        <time>2012-07-12T13:04:05Z</time>
      </trkpt>
      <trkpt lat="46.01608" lon="6.58088">
        <ele>1859.562</ele>
        <time>2012-07-12T13:04:10Z</time>
      </trkpt>
      <trkpt lat="46.01598" lon="6.58086">
        <ele>1860.432</ele>
        <time>2012-07-12T13:04:19Z</time>
      </trkpt>
      <trkpt lat="46.01587" lon="6.58084">
        <ele>1860.484</ele>
        <time>2012-07-12T13:04:29Z</time>
      </trkpt>
      <trkpt lat="46.01578" lon="6.58082">
        <ele>1861.792</ele>
        <time>2012-07-12T13:04:37Z</time>
      </trkpt>
      <trkpt lat="46.01567" lon="6.58076">
        <ele>1862.782</ele>
        <time>2012-07-12T13:04:48Z</time>
      </trkpt>
      <trkpt lat="46.01558" lon="6.58069">
        <ele>1863.992</ele>
        <time>2012-07-12T13:04:57Z</time>
      </trkpt>
      <trkpt lat="46.01552" lon="6.58064">
        <ele>1865.142</ele>
        <time>2012-07-12T13:05:04Z</time>
      </trkpt>
      <trkpt lat="46.01549" lon="6.58062">
        <ele>1865.792</ele>
        <time>2012-07-12T13:05:07Z</time>
      </trkpt>
      <trkpt lat="46.0154" lon="6.58056">
        <ele>1867.092</ele>
        <time>2012-07-12T13:05:16Z</time>
      </trkpt>
      <trkpt lat="46.01531" lon="6.58052">
        <ele>1868.442</ele>
        <time>2012-07-12T13:05:24Z</time>
      </trkpt>
      <trkpt lat="46.01521" lon="6.58049">
        <ele>1869.762</ele>
        <time>2012-07-12T13:05:33Z</time>
      </trkpt>
      <trkpt lat="46.01517" lon="6.58046">
        <ele>1870.342</ele>
        <time>2012-07-12T13:05:37Z</time>
      </trkpt>
      <trkpt lat="46.01512" lon="6.58043">
        <ele>1871.442</ele>
        <time>2012-07-12T13:05:43Z</time>
      </trkpt>
      <trkpt lat="46.01503" lon="6.58039">
        <ele>1872.842</ele>
        <time>2012-07-12T13:05:52Z</time>
      </trkpt>
      <trkpt lat="46.01493" lon="6.58035">
        <ele>1873.962</ele>
        <time>2012-07-12T13:06:01Z</time>
      </trkpt>
      <trkpt lat="46.01483" lon="6.58033">
        <ele>1875.302</ele>
        <time>2012-07-12T13:06:10Z</time>
      </trkpt>
      <trkpt lat="46.01474" lon="6.58031">
        <ele>1876.451</ele>
        <time>2012-07-12T13:06:18Z</time>
      </trkpt>
      <trkpt lat="46.01465" lon="6.5803">
        <ele>1877.481</ele>
        <time>2012-07-12T13:06:26Z</time>
      </trkpt>
      <trkpt lat="46.01456" lon="6.5803">
        <ele>1878.451</ele>
        <time>2012-07-12T13:06:34Z</time>
      </trkpt>
      <trkpt lat="46.01447" lon="6.58031">
        <ele>1879.421</ele>
        <time>2012-07-12T13:06:41Z</time>
      </trkpt>
      <trkpt lat="46.01441" lon="6.58033">
        <ele>1880.201</ele>
        <time>2012-07-12T13:06:47Z</time>
      </trkpt>
      <trkpt lat="46.01432" lon="6.58034">
        <ele>1881.572</ele>
        <time>2012-07-12T13:06:56Z</time>
      </trkpt>
      <trkpt lat="46.01421" lon="6.58035">
        <ele>1883.292</ele>
        <time>2012-07-12T13:07:07Z</time>
      </trkpt>
      <trkpt lat="46.01412" lon="6.58039">
        <ele>1884.902</ele>
        <time>2012-07-12T13:07:16Z</time>
      </trkpt>
      <trkpt lat="46.01404" lon="6.58041">
        <ele>1886.452</ele>
        <time>2012-07-12T13:07:23Z</time>
      </trkpt>
      <trkpt lat="46.01397" lon="6.58044">
        <ele>1887.651</ele>
        <time>2012-07-12T13:07:30Z</time>
      </trkpt>
      <trkpt lat="46.01389" lon="6.58047">
        <ele>1889.032</ele>
        <time>2012-07-12T13:07:39Z</time>
      </trkpt>
      <trkpt lat="46.01385" lon="6.58048">
        <ele>1889.791</ele>
        <time>2012-07-12T13:07:44Z</time>
      </trkpt>
      <trkpt lat="46.01382" lon="6.5805">
        <ele>1890.381</ele>
        <time>2012-07-12T13:07:48Z</time>
      </trkpt>
      <trkpt lat="46.01377" lon="6.58051">
        <ele>1891.051</ele>
        <time>2012-07-12T13:07:54Z</time>
      </trkpt>
      <trkpt lat="46.01372" lon="6.58049">
        <ele>1891.761</ele>
        <time>2012-07-12T13:08:00Z</time>
      </trkpt>
      <trkpt lat="46.01369" lon="6.58046">
        <ele>1892.462</ele>
        <time>2012-07-12T13:08:03Z</time>
      </trkpt>
      <trkpt lat="46.01363" lon="6.58042">
        <ele>1893.892</ele>
        <time>2012-07-12T13:08:09Z</time>
      </trkpt>
      <trkpt lat="46.01359" lon="6.58041">
        <ele>1894.501</ele>
        <time>2012-07-12T13:08:12Z</time>
      </trkpt>
      <trkpt lat="46.0135" lon="6.58044">
        <ele>1895.861</ele>
        <time>2012-07-12T13:08:21Z</time>
      </trkpt>
      <trkpt lat="46.01349" lon="6.58044">
        <ele>1896.171</ele>
        <time>2012-07-12T13:08:23Z</time>
      </trkpt>
      <trkpt lat="46.01345" lon="6.58045">
        <ele>1896.821</ele>
        <time>2012-07-12T13:08:27Z</time>
      </trkpt>
      <trkpt lat="46.01334" lon="6.58046">
        <ele>1898.261</ele>
        <time>2012-07-12T13:08:37Z</time>
      </trkpt>
      <trkpt lat="46.01329" lon="6.58045">
        <ele>1898.871</ele>
        <time>2012-07-12T13:08:42Z</time>
      </trkpt>
      <trkpt lat="46.01321" lon="6.58041">
        <ele>1899.751</ele>
        <time>2012-07-12T13:08:50Z</time>
      </trkpt>
      <trkpt lat="46.01313" lon="6.58038">
        <ele>1900.931</ele>
        <time>2012-07-12T13:08:58Z</time>
      </trkpt>
      <trkpt lat="46.01304" lon="6.58039">
        <ele>1902.191</ele>
        <time>2012-07-12T13:09:06Z</time>
      </trkpt>
      <trkpt lat="46.01297" lon="6.5804">
        <ele>1903.281</ele>
        <time>2012-07-12T13:09:13Z</time>
      </trkpt>
      <trkpt lat="46.01293" lon="6.58041">
        <ele>1903.991</ele>
        <time>2012-07-12T13:09:17Z</time>
      </trkpt>
      <trkpt lat="46.01285" lon="6.5805">
        <ele>1905.291</ele>
        <time>2012-07-12T13:09:26Z</time>
      </trkpt>
      <trkpt lat="46.01276" lon="6.58056">
        <ele>1906.411</ele>
        <time>2012-07-12T13:09:35Z</time>
      </trkpt>
      <trkpt lat="46.01269" lon="6.58059">
        <ele>1907.231</ele>
        <time>2012-07-12T13:09:42Z</time>
      </trkpt>
      <trkpt lat="46.01266" lon="6.5806">
        <ele>1907.501</ele>
        <time>2012-07-12T13:09:45Z</time>
      </trkpt>
      <trkpt lat="46.0126" lon="6.58062">
        <ele>1908.281</ele>
        <time>2012-07-12T13:09:51Z</time>
      </trkpt>
      <trkpt lat="46.01255" lon="6.58061">
        <ele>1908.841</ele>
        <time>2012-07-12T13:09:56Z</time>
      </trkpt>
      <trkpt lat="46.01247" lon="6.58052">
        <ele>1909.701</ele>
        <time>2012-07-12T13:10:05Z</time>
      </trkpt>
      <trkpt lat="46.0124" lon="6.58051">
        <ele>1910.701</ele>
        <time>2012-07-12T13:10:11Z</time>
      </trkpt>
      <trkpt lat="46.01231" lon="6.58049">
        <ele>1911.811</ele>
        <time>2012-07-12T13:10:19Z</time>
      </trkpt>
      <trkpt lat="46.01221" lon="6.58046">
        <ele>1913.121</ele>
        <time>2012-07-12T13:10:28Z</time>
      </trkpt>
      <trkpt lat="46.01215" lon="6.58042">
        <ele>1914.041</ele>
        <time>2012-07-12T13:10:34Z</time>
      </trkpt>
      <trkpt lat="46.01211" lon="6.58033">
        <ele>1914.871</ele>
        <time>2012-07-12T13:10:41Z</time>
      </trkpt>
      <trkpt lat="46.01212" lon="6.58021">
        <ele>1915.811</ele>
        <time>2012-07-12T13:10:48Z</time>
      </trkpt>
      <trkpt lat="46.01214" lon="6.58008">
        <ele>1917.141</ele>
        <time>2012-07-12T13:10:56Z</time>
      </trkpt>
      <trkpt lat="46.01214" lon="6.58006">
        <ele>1917.304</ele>
        <time>2012-07-12T13:10:57Z</time>
      </trkpt>
      <trkpt lat="46.01215" lon="6.5799">
        <ele>1918.751</ele>
        <time>2012-07-12T13:11:06Z</time>
      </trkpt>
      <trkpt lat="46.01216" lon="6.57975">
        <ele>1919.931</ele>
        <time>2012-07-12T13:11:15Z</time>
      </trkpt>
      <trkpt lat="46.01216" lon="6.57966">
        <ele>1921.041</ele>
        <time>2012-07-12T13:11:21Z</time>
      </trkpt>
      <trkpt lat="46.01211" lon="6.57961">
        <ele>1921.601</ele>
        <time>2012-07-12T13:11:26Z</time>
      </trkpt>
      <trkpt lat="46.01204" lon="6.57956">
        <ele>1922.341</ele>
        <time>2012-07-12T13:11:33Z</time>
      </trkpt>
      <trkpt lat="46.01195" lon="6.57955">
        <ele>1923.491</ele>
        <time>2012-07-12T13:11:41Z</time>
      </trkpt>
      <trkpt lat="46.01191" lon="6.57954">
        <ele>1924.051</ele>
        <time>2012-07-12T13:11:45Z</time>
      </trkpt>
      <trkpt lat="46.01187" lon="6.57956">
        <ele>1924.441</ele>
        <time>2012-07-12T13:11:49Z</time>
      </trkpt>
      <trkpt lat="46.01181" lon="6.57963">
        <ele>1925.031</ele>
        <time>2012-07-12T13:11:55Z</time>
      </trkpt>
      <trkpt lat="46.01174" lon="6.57974">
        <ele>1925.8</ele>
        <time>2012-07-12T13:12:03Z</time>
      </trkpt>
      <trkpt lat="46.01167" lon="6.57984">
        <ele>1926.641</ele>
        <time>2012-07-12T13:12:11Z</time>
      </trkpt>
      <trkpt lat="46.01158" lon="6.57995">
        <ele>1927.601</ele>
        <time>2012-07-12T13:12:20Z</time>
      </trkpt>
      <trkpt lat="46.01151" lon="6.58006">
        <ele>1928.551</ele>
        <time>2012-07-12T13:12:29Z</time>
      </trkpt>
      <trkpt lat="46.01144" lon="6.58015">
        <ele>1929.661</ele>
        <time>2012-07-12T13:12:37Z</time>
      </trkpt>
      <trkpt lat="46.01137" lon="6.58027">
        <ele>1931.281</ele>
        <time>2012-07-12T13:12:47Z</time>
      </trkpt>
      <trkpt lat="46.01131" lon="6.58037">
        <ele>1932.412</ele>
        <time>2012-07-12T13:12:56Z</time>
      </trkpt>
      <trkpt lat="46.0113" lon="6.58038">
        <ele>1932.521</ele>
        <time>2012-07-12T13:12:57Z</time>
      </trkpt>
      <trkpt lat="46.01127" lon="6.58045">
        <ele>1933.06</ele>
        <time>2012-07-12T13:13:02Z</time>
      </trkpt>
      <trkpt lat="46.01124" lon="6.58061">
        <ele>1935.111</ele>
        <time>2012-07-12T13:13:12Z</time>
      </trkpt>
      <trkpt lat="46.01123" lon="6.58073">
        <ele>1936.881</ele>
        <time>2012-07-12T13:13:19Z</time>
      </trkpt>
      <trkpt lat="46.01119" lon="6.58086">
        <ele>1938.311</ele>
        <time>2012-07-12T13:13:27Z</time>
      </trkpt>
      <trkpt lat="46.01117" lon="6.58099">
        <ele>1939.802</ele>
        <time>2012-07-12T13:13:36Z</time>
      </trkpt>
      <trkpt lat="46.01114" lon="6.58113">
        <ele>1941.452</ele>
        <time>2012-07-12T13:13:45Z</time>
      </trkpt>
      <trkpt lat="46.01108" lon="6.58121">
        <ele>1942.191</ele>
        <time>2012-07-12T13:13:53Z</time>
      </trkpt>
      <trkpt lat="46.01104" lon="6.58135">
        <ele>1943.364</ele>
        <time>2012-07-12T13:14:03Z</time>
      </trkpt>
      <trkpt lat="46.01103" lon="6.58144">
        <ele>1944.471</ele>
        <time>2012-07-12T13:14:10Z</time>
      </trkpt>
      <trkpt lat="46.01101" lon="6.58147">
        <ele>1944.931</ele>
        <time>2012-07-12T13:14:13Z</time>
      </trkpt>
      <trkpt lat="46.01097" lon="6.58153">
        <ele>1945.711</ele>
        <time>2012-07-12T13:14:19Z</time>
      </trkpt>
      <trkpt lat="46.01095" lon="6.5817">
        <ele>1947.972</ele>
        <time>2012-07-12T13:14:29Z</time>
      </trkpt>
      <trkpt lat="46.01091" lon="6.58181">
        <ele>1949.771</ele>
        <time>2012-07-12T13:14:37Z</time>
      </trkpt>
      <trkpt lat="46.01088" lon="6.58184">
        <ele>1950.47</ele>
        <time>2012-07-12T13:14:42Z</time>
      </trkpt>
      <trkpt lat="46.01086" lon="6.58174">
        <ele>1950.811</ele>
        <time>2012-07-12T13:14:49Z</time>
      </trkpt>
      <trkpt lat="46.01087" lon="6.58169">
        <ele>1951.381</ele>
        <time>2012-07-12T13:14:53Z</time>
      </trkpt>
      <trkpt lat="46.01086" lon="6.58159">
        <ele>1952.331</ele>
        <time>2012-07-12T13:15:00Z</time>
      </trkpt>
      <trkpt lat="46.01082" lon="6.58149">
        <ele>1953.481</ele>
        <time>2012-07-12T13:15:08Z</time>
      </trkpt>
      <trkpt lat="46.0108" lon="6.58139">
        <ele>1954.581</ele>
        <time>2012-07-12T13:15:15Z</time>
      </trkpt>
      <trkpt lat="46.0108" lon="6.58136">
        <ele>1954.991</ele>
        <time>2012-07-12T13:15:17Z</time>
      </trkpt>
      <trkpt lat="46.01081" lon="6.58121">
        <ele>1956.791</ele>
        <time>2012-07-12T13:15:27Z</time>
      </trkpt>
      <trkpt lat="46.0108" lon="6.58112">
        <ele>1958.121</ele>
        <time>2012-07-12T13:15:33Z</time>
      </trkpt>
      <trkpt lat="46.01079" lon="6.58106">
        <ele>1958.701</ele>
        <time>2012-07-12T13:15:37Z</time>
      </trkpt>
      <trkpt lat="46.01079" lon="6.58103">
        <ele>1959.121</ele>
        <time>2012-07-12T13:15:39Z</time>
      </trkpt>
      <trkpt lat="46.01081" lon="6.58088">
        <ele>1960.961</ele>
        <time>2012-07-12T13:15:49Z</time>
      </trkpt>
      <trkpt lat="46.01081" lon="6.58078">
        <ele>1961.981</ele>
        <time>2012-07-12T13:15:56Z</time>
      </trkpt>
      <trkpt lat="46.01079" lon="6.58069">
        <ele>1962.831</ele>
        <time>2012-07-12T13:16:02Z</time>
      </trkpt>
      <trkpt lat="46.01076" lon="6.58067">
        <ele>1963.171</ele>
        <time>2012-07-12T13:16:05Z</time>
      </trkpt>
      <trkpt lat="46.01072" lon="6.58067">
        <ele>1963.46</ele>
        <time>2012-07-12T13:16:09Z</time>
      </trkpt>
      <trkpt lat="46.01063" lon="6.58071">
        <ele>1963.29</ele>
        <time>2012-07-12T13:16:16Z</time>
      </trkpt>
      <trkpt lat="46.01053" lon="6.58076">
        <ele>1963.68</ele>
        <time>2012-07-12T13:16:25Z</time>
      </trkpt>
      <trkpt lat="46.01045" lon="6.58081">
        <ele>1964.701</ele>
        <time>2012-07-12T13:16:33Z</time>
      </trkpt>
      <trkpt lat="46.01039" lon="6.58091">
        <ele>1965.82</ele>
        <time>2012-07-12T13:16:41Z</time>
      </trkpt>
      <trkpt lat="46.01036" lon="6.58104">
        <ele>1967.011</ele>
        <time>2012-07-12T13:16:49Z</time>
      </trkpt>
      <trkpt lat="46.01033" lon="6.58117">
        <ele>1968.501</ele>
        <time>2012-07-12T13:16:58Z</time>
      </trkpt>
      <trkpt lat="46.0103" lon="6.58129">
        <ele>1970.105</ele>
        <time>2012-07-12T13:17:06Z</time>
      </trkpt>
      <trkpt lat="46.01026" lon="6.58143">
        <ele>1972.011</ele>
        <time>2012-07-12T13:17:16Z</time>
      </trkpt>
      <trkpt lat="46.01025" lon="6.58159">
        <ele>1974.091</ele>
        <time>2012-07-12T13:17:26Z</time>
      </trkpt>
      <trkpt lat="46.01026" lon="6.58171">
        <ele>1975.591</ele>
        <time>2012-07-12T13:17:33Z</time>
      </trkpt>
      <trkpt lat="46.01027" lon="6.58179">
        <ele>1976.331</ele>
        <time>2012-07-12T13:17:38Z</time>
      </trkpt>
      <trkpt lat="46.01028" lon="6.58187">
        <ele>1977.021</ele>
        <time>2012-07-12T13:17:43Z</time>
      </trkpt>
      <trkpt lat="46.01028" lon="6.58198">
        <ele>1978.031</ele>
        <time>2012-07-12T13:17:50Z</time>
      </trkpt>
      <trkpt lat="46.01026" lon="6.58205">
        <ele>1978.731</ele>
        <time>2012-07-12T13:17:55Z</time>
      </trkpt>
      <trkpt lat="46.01022" lon="6.58218">
        <ele>1979.52</ele>
        <time>2012-07-12T13:18:04Z</time>
      </trkpt>
      <trkpt lat="46.01015" lon="6.58231">
        <ele>1980.35</ele>
        <time>2012-07-12T13:18:14Z</time>
      </trkpt>
      <trkpt lat="46.01011" lon="6.58234">
        <ele>1980.821</ele>
        <time>2012-07-12T13:18:18Z</time>
      </trkpt>
      <trkpt lat="46.01003" lon="6.58244">
        <ele>1981.98</ele>
        <time>2012-07-12T13:18:28Z</time>
      </trkpt>
      <trkpt lat="46.01" lon="6.58246">
        <ele>1982.32</ele>
        <time>2012-07-12T13:18:31Z</time>
      </trkpt>
      <trkpt lat="46.0099" lon="6.58253">
        <ele>1983.39</ele>
        <time>2012-07-12T13:18:41Z</time>
      </trkpt>
      <trkpt lat="46.0098" lon="6.58257">
        <ele>1983.761</ele>
        <time>2012-07-12T13:18:49Z</time>
      </trkpt>
      <trkpt lat="46.00979" lon="6.58258">
        <ele>1983.8</ele>
        <time>2012-07-12T13:18:50Z</time>
      </trkpt>
      <trkpt lat="46.00968" lon="6.58263">
        <ele>1984.77</ele>
        <time>2012-07-12T13:19:00Z</time>
      </trkpt>
      <trkpt lat="46.00952" lon="6.58266">
        <ele>1984.469</ele>
        <time>2012-07-12T13:19:11Z</time>
      </trkpt>
      <trkpt lat="46.00941" lon="6.58268">
        <ele>1984.199</ele>
        <time>2012-07-12T13:19:18Z</time>
      </trkpt>
      <trkpt lat="46.00931" lon="6.5827">
        <ele>1984.039</ele>
        <time>2012-07-12T13:19:24Z</time>
      </trkpt>
      <trkpt lat="46.00918" lon="6.5827">
        <ele>1983.419</ele>
        <time>2012-07-12T13:19:31Z</time>
      </trkpt>
      <trkpt lat="46.009" lon="6.58264">
        <ele>1982.459</ele>
        <time>2012-07-12T13:19:39Z</time>
      </trkpt>
      <trkpt lat="46.0089" lon="6.5826">
        <ele>1981.839</ele>
        <time>2012-07-12T13:19:45Z</time>
      </trkpt>
      <trkpt lat="46.00878" lon="6.58254">
        <ele>1982.099</ele>
        <time>2012-07-12T13:19:52Z</time>
      </trkpt>
      <trkpt lat="46.00866" lon="6.58246">
        <ele>1982.119</ele>
        <time>2012-07-12T13:19:59Z</time>
      </trkpt>
      <trkpt lat="46.00852" lon="6.58233">
        <ele>1980.137</ele>
        <time>2012-07-12T13:20:04Z</time>
      </trkpt>
      <trkpt lat="46.00838" lon="6.58216">
        <ele>1978.287</ele>
        <time>2012-07-12T13:20:10Z</time>
      </trkpt>
      <trkpt lat="46.00822" lon="6.58189">
        <ele>1975.867</ele>
        <time>2012-07-12T13:20:18Z</time>
      </trkpt>
      <trkpt lat="46.00808" lon="6.58159">
        <ele>1972.527</ele>
        <time>2012-07-12T13:20:26Z</time>
      </trkpt>
      <trkpt lat="46.00805" lon="6.58146">
        <ele>1971.278</ele>
        <time>2012-07-12T13:20:31Z</time>
      </trkpt>
      <trkpt lat="46.00803" lon="6.58142">
        <ele>1971.19</ele>
        <time>2012-07-12T13:20:36Z</time>
      </trkpt>
      <trkpt lat="46.00803" lon="6.58142">
        <ele>1971.519</ele>
        <time>2012-07-12T13:20:47Z</time>
      </trkpt>
      <trkpt lat="46.00801" lon="6.58141">
        <ele>1971.78</ele>
        <time>2012-07-12T13:20:57Z</time>
      </trkpt>
      <trkpt lat="46.008" lon="6.58139">
        <ele>1971.649</ele>
        <time>2012-07-12T13:21:02Z</time>
      </trkpt>
      <trkpt lat="46.008" lon="6.5814">
        <ele>1970.6</ele>
        <time>2012-07-12T13:21:13Z</time>
      </trkpt>
      <trkpt lat="46.00799" lon="6.58143">
        <ele>1969.13</ele>
        <time>2012-07-12T13:23:57Z</time>
      </trkpt>
      <trkpt lat="46.00798" lon="6.58144">
        <ele>1970.599</ele>
        <time>2012-07-12T13:24:01Z</time>
      </trkpt>
      <trkpt lat="46.00797" lon="6.58146">
        <ele>1970.739</ele>
        <time>2012-07-12T13:24:06Z</time>
      </trkpt>
      <trkpt lat="46.00797" lon="6.58146">
        <ele>1970.909</ele>
        <time>2012-07-12T13:24:12Z</time>
      </trkpt>
      <trkpt lat="46.0079" lon="6.58161">
        <ele>1969.106</ele>
        <time>2012-07-12T13:24:19Z</time>
      </trkpt>
      <trkpt lat="46.00783" lon="6.58179">
        <ele>1966.947</ele>
        <time>2012-07-12T13:24:25Z</time>
      </trkpt>
      <trkpt lat="46.00779" lon="6.58208">
        <ele>1964.236</ele>
        <time>2012-07-12T13:24:33Z</time>
      </trkpt>
      <trkpt lat="46.00779" lon="6.58236">
        <ele>1961.576</ele>
        <time>2012-07-12T13:24:40Z</time>
      </trkpt>
      <trkpt lat="46.00783" lon="6.58262">
        <ele>1959.736</ele>
        <time>2012-07-12T13:24:47Z</time>
      </trkpt>
      <trkpt lat="46.00787" lon="6.58299">
        <ele>1957.017</ele>
        <time>2012-07-12T13:24:56Z</time>
      </trkpt>
      <trkpt lat="46.0079" lon="6.58328">
        <ele>1954.907</ele>
        <time>2012-07-12T13:25:03Z</time>
      </trkpt>
      <trkpt lat="46.00797" lon="6.58351">
        <ele>1952.927</ele>
        <time>2012-07-12T13:25:09Z</time>
      </trkpt>
      <trkpt lat="46.00808" lon="6.58366">
        <ele>1951.377</ele>
        <time>2012-07-12T13:25:14Z</time>
      </trkpt>
      <trkpt lat="46.00813" lon="6.58371">
        <ele>1950.376</ele>
        <time>2012-07-12T13:25:17Z</time>
      </trkpt>
      <trkpt lat="46.00812" lon="6.58377">
        <ele>1949.458</ele>
        <time>2012-07-12T13:25:22Z</time>
      </trkpt>
      <trkpt lat="46.00806" lon="6.58377">
        <ele>1948.737</ele>
        <time>2012-07-12T13:25:25Z</time>
      </trkpt>
      <trkpt lat="46.00788" lon="6.58377">
        <ele>1946.708</ele>
        <time>2012-07-12T13:25:32Z</time>
      </trkpt>
      <trkpt lat="46.0077" lon="6.58378">
        <ele>1944.847</ele>
        <time>2012-07-12T13:25:39Z</time>
      </trkpt>
      <trkpt lat="46.00752" lon="6.58372">
        <ele>1942.315</ele>
        <time>2012-07-12T13:25:46Z</time>
      </trkpt>
      <trkpt lat="46.00735" lon="6.58355">
        <ele>1939.235</ele>
        <time>2012-07-12T13:25:54Z</time>
      </trkpt>
      <trkpt lat="46.0072" lon="6.58337">
        <ele>1936.434</ele>
        <time>2012-07-12T13:26:01Z</time>
      </trkpt>
      <trkpt lat="46.00708" lon="6.58317">
        <ele>1932.816</ele>
        <time>2012-07-12T13:26:08Z</time>
      </trkpt>
      <trkpt lat="46.00694" lon="6.58289">
        <ele>1928.262</ele>
        <time>2012-07-12T13:26:16Z</time>
      </trkpt>
      <trkpt lat="46.00684" lon="6.58268">
        <ele>1925.004</ele>
        <time>2012-07-12T13:26:23Z</time>
      </trkpt>
      <trkpt lat="46.00682" lon="6.58248">
        <ele>1922.253</ele>
        <time>2012-07-12T13:26:29Z</time>
      </trkpt>
      <trkpt lat="46.00684" lon="6.58223">
        <ele>1919.422</ele>
        <time>2012-07-12T13:26:34Z</time>
      </trkpt>
      <trkpt lat="46.00692" lon="6.58188">
        <ele>1916.304</ele>
        <time>2012-07-12T13:26:41Z</time>
      </trkpt>
      <trkpt lat="46.00707" lon="6.58146">
        <ele>1913.227</ele>
        <time>2012-07-12T13:26:50Z</time>
      </trkpt>
      <trkpt lat="46.00716" lon="6.58108">
        <ele>1910.476</ele>
        <time>2012-07-12T13:26:58Z</time>
      </trkpt>
      <trkpt lat="46.0072" lon="6.58082">
        <ele>1909.246</ele>
        <time>2012-07-12T13:27:03Z</time>
      </trkpt>
      <trkpt lat="46.00729" lon="6.58041">
        <ele>1906.214</ele>
        <time>2012-07-12T13:27:11Z</time>
      </trkpt>
      <trkpt lat="46.00736" lon="6.57996">
        <ele>1904.157</ele>
        <time>2012-07-12T13:27:19Z</time>
      </trkpt>
      <trkpt lat="46.00738" lon="6.57978">
        <ele>1903.718</ele>
        <time>2012-07-12T13:27:22Z</time>
      </trkpt>
      <trkpt lat="46.00743" lon="6.57936">
        <ele>1901.806</ele>
        <time>2012-07-12T13:27:30Z</time>
      </trkpt>
      <trkpt lat="46.00742" lon="6.57908">
        <ele>1899.842</ele>
        <time>2012-07-12T13:27:36Z</time>
      </trkpt>
      <trkpt lat="46.00731" lon="6.57874">
        <ele>1896.927</ele>
        <time>2012-07-12T13:27:44Z</time>
      </trkpt>
      <trkpt lat="46.00724" lon="6.57858">
        <ele>1895.485</ele>
        <time>2012-07-12T13:27:49Z</time>
      </trkpt>
      <trkpt lat="46.00724" lon="6.57856">
        <ele>1895.009</ele>
        <time>2012-07-12T13:27:54Z</time>
      </trkpt>
      <trkpt lat="46.00723" lon="6.57856">
        <ele>1894.128</ele>
        <time>2012-07-12T13:27:59Z</time>
      </trkpt>
      <trkpt lat="46.00724" lon="6.57861">
        <ele>1898.031</ele>
        <time>2012-07-12T13:34:44Z</time>
      </trkpt>
      <trkpt lat="46.00723" lon="6.5786">
        <ele>1897.358</ele>
        <time>2012-07-12T13:34:49Z</time>
      </trkpt>
      <trkpt lat="46.00723" lon="6.57854">
        <ele>1896.747</ele>
        <time>2012-07-12T13:34:54Z</time>
      </trkpt>
      <trkpt lat="46.00723" lon="6.57851">
        <ele>1896.209</ele>
        <time>2012-07-12T13:35:01Z</time>
      </trkpt>
      <trkpt lat="46.00721" lon="6.5785">
        <ele>1897.949</ele>
        <time>2012-07-12T13:35:57Z</time>
      </trkpt>
      <trkpt lat="46.00722" lon="6.5786">
        <ele>1898.41</ele>
        <time>2012-07-12T13:36:02Z</time>
      </trkpt>
      <trkpt lat="46.00722" lon="6.5786">
        <ele>1898.449</ele>
        <time>2012-07-12T13:36:04Z</time>
      </trkpt>
      <trkpt lat="46.00722" lon="6.57853">
        <ele>1898.248</ele>
        <time>2012-07-12T13:36:10Z</time>
      </trkpt>
      <trkpt lat="46.00721" lon="6.57852">
        <ele>1897.167</ele>
        <time>2012-07-12T13:36:18Z</time>
      </trkpt>
      <trkpt lat="46.0072" lon="6.57847">
        <ele>1895.209</ele>
        <time>2012-07-12T13:37:23Z</time>
      </trkpt>
      <trkpt lat="46.0072" lon="6.57844">
        <ele>1893.659</ele>
        <time>2012-07-12T13:38:06Z</time>
      </trkpt>
      <trkpt lat="46.00718" lon="6.57836">
        <ele>1892.828</ele>
        <time>2012-07-12T13:38:11Z</time>
      </trkpt>
      <trkpt lat="46.00721" lon="6.57812">
        <ele>1892.308</ele>
        <time>2012-07-12T13:38:20Z</time>
      </trkpt>
      <trkpt lat="46.00723" lon="6.57795">
        <ele>1891.818</ele>
        <time>2012-07-12T13:38:27Z</time>
      </trkpt>
      <trkpt lat="46.00724" lon="6.57793">
        <ele>1891.808</ele>
        <time>2012-07-12T13:38:28Z</time>
      </trkpt>
      <trkpt lat="46.00724" lon="6.57776">
        <ele>1891.808</ele>
        <time>2012-07-12T13:38:36Z</time>
      </trkpt>
      <trkpt lat="46.00725" lon="6.57774">
        <ele>1891.539</ele>
        <time>2012-07-12T13:38:37Z</time>
      </trkpt>
      <trkpt lat="46.00722" lon="6.5776">
        <ele>1892.209</ele>
        <time>2012-07-12T13:38:45Z</time>
      </trkpt>
      <trkpt lat="46.00717" lon="6.57745">
        <ele>1893.189</ele>
        <time>2012-07-12T13:38:54Z</time>
      </trkpt>
      <trkpt lat="46.00714" lon="6.5774">
        <ele>1893.559</ele>
        <time>2012-07-12T13:38:57Z</time>
      </trkpt>
      <trkpt lat="46.00706" lon="6.57729">
        <ele>1894.649</ele>
        <time>2012-07-12T13:39:07Z</time>
      </trkpt>
      <trkpt lat="46.00699" lon="6.57718">
        <ele>1895.869</ele>
        <time>2012-07-12T13:39:16Z</time>
      </trkpt>
      <trkpt lat="46.00698" lon="6.57713">
        <ele>1896.409</ele>
        <time>2012-07-12T13:39:19Z</time>
      </trkpt>
      <trkpt lat="46.00692" lon="6.57701">
        <ele>1897.959</ele>
        <time>2012-07-12T13:39:28Z</time>
      </trkpt>
      <trkpt lat="46.00687" lon="6.57695">
        <ele>1898.589</ele>
        <time>2012-07-12T13:39:34Z</time>
      </trkpt>
      <trkpt lat="46.00683" lon="6.5769">
        <ele>1898.889</ele>
        <time>2012-07-12T13:39:39Z</time>
      </trkpt>
      <trkpt lat="46.00675" lon="6.57686">
        <ele>1899.589</ele>
        <time>2012-07-12T13:39:47Z</time>
      </trkpt>
      <trkpt lat="46.00669" lon="6.57678">
        <ele>1900.39</ele>
        <time>2012-07-12T13:39:54Z</time>
      </trkpt>
      <trkpt lat="46.00668" lon="6.57675">
        <ele>1900.66</ele>
        <time>2012-07-12T13:39:56Z</time>
      </trkpt>
      <trkpt lat="46.00668" lon="6.57664">
        <ele>1901.63</ele>
        <time>2012-07-12T13:40:03Z</time>
      </trkpt>
      <trkpt lat="46.00669" lon="6.57661">
        <ele>1901.799</ele>
        <time>2012-07-12T13:40:05Z</time>
      </trkpt>
      <trkpt lat="46.00668" lon="6.57648">
        <ele>1902.569</ele>
        <time>2012-07-12T13:40:13Z</time>
      </trkpt>
      <trkpt lat="46.00666" lon="6.57639">
        <ele>1903.66</ele>
        <time>2012-07-12T13:40:18Z</time>
      </trkpt>
      <trkpt lat="46.00658" lon="6.57627">
        <ele>1904.689</ele>
        <time>2012-07-12T13:40:28Z</time>
      </trkpt>
      <trkpt lat="46.00651" lon="6.5762">
        <ele>1905.399</ele>
        <time>2012-07-12T13:40:35Z</time>
      </trkpt>
      <trkpt lat="46.00646" lon="6.57614">
        <ele>1906.239</ele>
        <time>2012-07-12T13:40:41Z</time>
      </trkpt>
      <trkpt lat="46.00637" lon="6.57598">
        <ele>1907.169</ele>
        <time>2012-07-12T13:40:52Z</time>
      </trkpt>
      <trkpt lat="46.00632" lon="6.57588">
        <ele>1908.979</ele>
        <time>2012-07-12T13:40:59Z</time>
      </trkpt>
      <trkpt lat="46.00627" lon="6.57578">
        <ele>1910.269</ele>
        <time>2012-07-12T13:41:07Z</time>
      </trkpt>
      <trkpt lat="46.00623" lon="6.57568">
        <ele>1911.069</ele>
        <time>2012-07-12T13:41:14Z</time>
      </trkpt>
      <trkpt lat="46.00619" lon="6.57557">
        <ele>1912.369</ele>
        <time>2012-07-12T13:41:21Z</time>
      </trkpt>
      <trkpt lat="46.00614" lon="6.57546">
        <ele>1913.429</ele>
        <time>2012-07-12T13:41:29Z</time>
      </trkpt>
      <trkpt lat="46.00611" lon="6.57539">
        <ele>1914.218</ele>
        <time>2012-07-12T13:41:35Z</time>
      </trkpt>
      <trkpt lat="46.00611" lon="6.57537">
        <ele>1914.196</ele>
        <time>2012-07-12T13:41:42Z</time>
      </trkpt>
      <trkpt lat="46.0061" lon="6.57537">
        <ele>1914.278</ele>
        <time>2012-07-12T13:41:51Z</time>
      </trkpt>
      <trkpt lat="46.00607" lon="6.57532">
        <ele>1915.329</ele>
        <time>2012-07-12T13:41:58Z</time>
      </trkpt>
      <trkpt lat="46.00606" lon="6.57529">
        <ele>1915.768</ele>
        <time>2012-07-12T13:42:04Z</time>
      </trkpt>
      <trkpt lat="46.00604" lon="6.57525">
        <ele>1916.099</ele>
        <time>2012-07-12T13:42:08Z</time>
      </trkpt>
      <trkpt lat="46.00599" lon="6.57509">
        <ele>1916.658</ele>
        <time>2012-07-12T13:42:18Z</time>
      </trkpt>
      <trkpt lat="46.00595" lon="6.57495">
        <ele>1917.268</ele>
        <time>2012-07-12T13:42:26Z</time>
      </trkpt>
      <trkpt lat="46.0059" lon="6.5748">
        <ele>1918.028</ele>
        <time>2012-07-12T13:42:35Z</time>
      </trkpt>
      <trkpt lat="46.00587" lon="6.57468">
        <ele>1918.708</ele>
        <time>2012-07-12T13:42:42Z</time>
      </trkpt>
      <trkpt lat="46.00585" lon="6.57463">
        <ele>1918.888</ele>
        <time>2012-07-12T13:42:45Z</time>
      </trkpt>
      <trkpt lat="46.00576" lon="6.57457">
        <ele>1919.318</ele>
        <time>2012-07-12T13:42:53Z</time>
      </trkpt>
      <trkpt lat="46.00572" lon="6.57459">
        <ele>1919.878</ele>
        <time>2012-07-12T13:42:57Z</time>
      </trkpt>
      <trkpt lat="46.00568" lon="6.57462">
        <ele>1920.718</ele>
        <time>2012-07-12T13:43:04Z</time>
      </trkpt>
      <trkpt lat="46.00567" lon="6.57463">
        <ele>1920.758</ele>
        <time>2012-07-12T13:43:13Z</time>
      </trkpt>
      <trkpt lat="46.00562" lon="6.57467">
        <ele>1921.608</ele>
        <time>2012-07-12T13:43:19Z</time>
      </trkpt>
      <trkpt lat="46.00557" lon="6.57472">
        <ele>1922.078</ele>
        <time>2012-07-12T13:43:24Z</time>
      </trkpt>
      <trkpt lat="46.00551" lon="6.57483">
        <ele>1923.099</ele>
        <time>2012-07-12T13:43:32Z</time>
      </trkpt>
      <trkpt lat="46.00546" lon="6.57496">
        <ele>1923.929</ele>
        <time>2012-07-12T13:43:41Z</time>
      </trkpt>
      <trkpt lat="46.00545" lon="6.57497">
        <ele>1923.939</ele>
        <time>2012-07-12T13:43:42Z</time>
      </trkpt>
      <trkpt lat="46.00542" lon="6.5749">
        <ele>1924.47</ele>
        <time>2012-07-12T13:43:48Z</time>
      </trkpt>
      <trkpt lat="46.00542" lon="6.57487">
        <ele>1924.819</ele>
        <time>2012-07-12T13:43:54Z</time>
      </trkpt>
      <trkpt lat="46.00542" lon="6.57487">
        <ele>1923.448</ele>
        <time>2012-07-12T13:44:14Z</time>
      </trkpt>
      <trkpt lat="46.00542" lon="6.57477">
        <ele>1924.019</ele>
        <time>2012-07-12T13:44:21Z</time>
      </trkpt>
      <trkpt lat="46.00542" lon="6.57474">
        <ele>1924.149</ele>
        <time>2012-07-12T13:44:23Z</time>
      </trkpt>
      <trkpt lat="46.0054" lon="6.57458">
        <ele>1924.919</ele>
        <time>2012-07-12T13:44:33Z</time>
      </trkpt>
      <trkpt lat="46.00539" lon="6.57452">
        <ele>1925.409</ele>
        <time>2012-07-12T13:44:38Z</time>
      </trkpt>
      <trkpt lat="46.0054" lon="6.57451">
        <ele>1925.339</ele>
        <time>2012-07-12T13:44:42Z</time>
      </trkpt>
      <trkpt lat="46.00543" lon="6.57442">
        <ele>1926.029</ele>
        <time>2012-07-12T13:44:49Z</time>
      </trkpt>
      <trkpt lat="46.00544" lon="6.57436">
        <ele>1926.92</ele>
        <time>2012-07-12T13:44:52Z</time>
      </trkpt>
      <trkpt lat="46.00545" lon="6.57432">
        <ele>1927.53</ele>
        <time>2012-07-12T13:44:54Z</time>
      </trkpt>
      <trkpt lat="46.0055" lon="6.57423">
        <ele>1928.359</ele>
        <time>2012-07-12T13:45:03Z</time>
      </trkpt>
      <trkpt lat="46.00554" lon="6.57421">
        <ele>1928.949</ele>
        <time>2012-07-12T13:45:07Z</time>
      </trkpt>
      <trkpt lat="46.00562" lon="6.57418">
        <ele>1930.169</ele>
        <time>2012-07-12T13:45:16Z</time>
      </trkpt>
      <trkpt lat="46.00567" lon="6.57415">
        <ele>1930.749</ele>
        <time>2012-07-12T13:45:21Z</time>
      </trkpt>
      <trkpt lat="46.00569" lon="6.57412">
        <ele>1931.199</ele>
        <time>2012-07-12T13:45:25Z</time>
      </trkpt>
      <trkpt lat="46.00576" lon="6.57402">
        <ele>1932.259</ele>
        <time>2012-07-12T13:45:35Z</time>
      </trkpt>
      <trkpt lat="46.00576" lon="6.57401">
        <ele>1932.449</ele>
        <time>2012-07-12T13:45:36Z</time>
      </trkpt>
      <trkpt lat="46.00578" lon="6.57396">
        <ele>1933.639</ele>
        <time>2012-07-12T13:45:39Z</time>
      </trkpt>
      <trkpt lat="46.00575" lon="6.57388">
        <ele>1934.889</ele>
        <time>2012-07-12T13:45:45Z</time>
      </trkpt>
      <trkpt lat="46.00569" lon="6.57388">
        <ele>1936.079</ele>
        <time>2012-07-12T13:45:51Z</time>
      </trkpt>
      <trkpt lat="46.00567" lon="6.57387">
        <ele>1936.569</ele>
        <time>2012-07-12T13:45:54Z</time>
      </trkpt>
      <trkpt lat="46.00563" lon="6.57384">
        <ele>1937.139</ele>
        <time>2012-07-12T13:45:58Z</time>
      </trkpt>
      <trkpt lat="46.00556" lon="6.57377">
        <ele>1937.869</ele>
        <time>2012-07-12T13:46:06Z</time>
      </trkpt>
      <trkpt lat="46.00549" lon="6.57371">
        <ele>1939.159</ele>
        <time>2012-07-12T13:46:13Z</time>
      </trkpt>
      <trkpt lat="46.00536" lon="6.57367">
        <ele>1941.379</ele>
        <time>2012-07-12T13:46:25Z</time>
      </trkpt>
      <trkpt lat="46.00527" lon="6.57368">
        <ele>1943.189</ele>
        <time>2012-07-12T13:46:34Z</time>
      </trkpt>
      <trkpt lat="46.00522" lon="6.57371">
        <ele>1944.19</ele>
        <time>2012-07-12T13:46:39Z</time>
      </trkpt>
      <trkpt lat="46.00517" lon="6.57374">
        <ele>1945.229</ele>
        <time>2012-07-12T13:46:45Z</time>
      </trkpt>
      <trkpt lat="46.00517" lon="6.57376">
        <ele>1945.489</ele>
        <time>2012-07-12T13:46:47Z</time>
      </trkpt>
      <trkpt lat="46.00511" lon="6.57384">
        <ele>1946.78</ele>
        <time>2012-07-12T13:46:54Z</time>
      </trkpt>
      <trkpt lat="46.00506" lon="6.57384">
        <ele>1947.339</ele>
        <time>2012-07-12T13:46:59Z</time>
      </trkpt>
      <trkpt lat="46.00498" lon="6.57378">
        <ele>1948.829</ele>
        <time>2012-07-12T13:47:09Z</time>
      </trkpt>
      <trkpt lat="46.00497" lon="6.57377">
        <ele>1949.278</ele>
        <time>2012-07-12T13:47:18Z</time>
      </trkpt>
      <trkpt lat="46.00495" lon="6.57376">
        <ele>1950.569</ele>
        <time>2012-07-12T13:48:08Z</time>
      </trkpt>
      <trkpt lat="46.00492" lon="6.5737">
        <ele>1950.971</ele>
        <time>2012-07-12T13:48:14Z</time>
      </trkpt>
      <trkpt lat="46.00485" lon="6.5736">
        <ele>1952.069</ele>
        <time>2012-07-12T13:48:22Z</time>
      </trkpt>
      <trkpt lat="46.00479" lon="6.57352">
        <ele>1952.629</ele>
        <time>2012-07-12T13:48:29Z</time>
      </trkpt>
      <trkpt lat="46.00472" lon="6.5734">
        <ele>1953.981</ele>
        <time>2012-07-12T13:48:38Z</time>
      </trkpt>
      <trkpt lat="46.00468" lon="6.57335">
        <ele>1954.749</ele>
        <time>2012-07-12T13:48:43Z</time>
      </trkpt>
      <trkpt lat="46.00463" lon="6.57328">
        <ele>1955.669</ele>
        <time>2012-07-12T13:48:49Z</time>
      </trkpt>
      <trkpt lat="46.00456" lon="6.57317">
        <ele>1955.999</ele>
        <time>2012-07-12T13:48:58Z</time>
      </trkpt>
      <trkpt lat="46.00453" lon="6.57313">
        <ele>1956.399</ele>
        <time>2012-07-12T13:49:01Z</time>
      </trkpt>
      <trkpt lat="46.00443" lon="6.57306">
        <ele>1956.958</ele>
        <time>2012-07-12T13:49:10Z</time>
      </trkpt>
      <trkpt lat="46.00434" lon="6.57312">
        <ele>1957.779</ele>
        <time>2012-07-12T13:49:18Z</time>
      </trkpt>
      <trkpt lat="46.00426" lon="6.57319">
        <ele>1958.529</ele>
        <time>2012-07-12T13:49:26Z</time>
      </trkpt>
      <trkpt lat="46.00422" lon="6.57312">
        <ele>1959.14</ele>
        <time>2012-07-12T13:49:32Z</time>
      </trkpt>
      <trkpt lat="46.00422" lon="6.57304">
        <ele>1959.891</ele>
        <time>2012-07-12T13:49:37Z</time>
      </trkpt>
      <trkpt lat="46.00422" lon="6.57292">
        <ele>1960.969</ele>
        <time>2012-07-12T13:49:44Z</time>
      </trkpt>
      <trkpt lat="46.00422" lon="6.57289">
        <ele>1961.279</ele>
        <time>2012-07-12T13:49:46Z</time>
      </trkpt>
      <trkpt lat="46.00423" lon="6.57276">
        <ele>1962.699</ele>
        <time>2012-07-12T13:49:54Z</time>
      </trkpt>
      <trkpt lat="46.00426" lon="6.57266">
        <ele>1963.87</ele>
        <time>2012-07-12T13:50:01Z</time>
      </trkpt>
      <trkpt lat="46.00425" lon="6.5726">
        <ele>1964.64</ele>
        <time>2012-07-12T13:50:04Z</time>
      </trkpt>
      <trkpt lat="46.00419" lon="6.57249">
        <ele>1966.529</ele>
        <time>2012-07-12T13:50:13Z</time>
      </trkpt>
      <trkpt lat="46.00414" lon="6.5724">
        <ele>1968.149</ele>
        <time>2012-07-12T13:50:21Z</time>
      </trkpt>
      <trkpt lat="46.00406" lon="6.5723">
        <ele>1969.449</ele>
        <time>2012-07-12T13:50:29Z</time>
      </trkpt>
      <trkpt lat="46.00401" lon="6.57221">
        <ele>1970.57</ele>
        <time>2012-07-12T13:50:36Z</time>
      </trkpt>
      <trkpt lat="46.00398" lon="6.57216">
        <ele>1971.068</ele>
        <time>2012-07-12T13:50:40Z</time>
      </trkpt>
      <trkpt lat="46.00396" lon="6.57209">
        <ele>1971.668</ele>
        <time>2012-07-12T13:50:45Z</time>
      </trkpt>
      <trkpt lat="46.00396" lon="6.57204">
        <ele>1972.219</ele>
        <time>2012-07-12T13:50:49Z</time>
      </trkpt>
      <trkpt lat="46.00393" lon="6.57198">
        <ele>1972.719</ele>
        <time>2012-07-12T13:50:54Z</time>
      </trkpt>
      <trkpt lat="46.00395" lon="6.57193">
        <ele>1973.099</ele>
        <time>2012-07-12T13:50:59Z</time>
      </trkpt>
      <trkpt lat="46.00392" lon="6.5719">
        <ele>1973.489</ele>
        <time>2012-07-12T13:51:03Z</time>
      </trkpt>
      <trkpt lat="46.00389" lon="6.57183">
        <ele>1974.672</ele>
        <time>2012-07-12T13:51:08Z</time>
      </trkpt>
      <trkpt lat="46.00383" lon="6.57178">
        <ele>1975.669</ele>
        <time>2012-07-12T13:51:15Z</time>
      </trkpt>
      <trkpt lat="46.00379" lon="6.57172">
        <ele>1976.489</ele>
        <time>2012-07-12T13:51:20Z</time>
      </trkpt>
      <trkpt lat="46.00378" lon="6.57171">
        <ele>1976.629</ele>
        <time>2012-07-12T13:51:21Z</time>
      </trkpt>
      <trkpt lat="46.00373" lon="6.57161">
        <ele>1977.489</ele>
        <time>2012-07-12T13:51:28Z</time>
      </trkpt>
      <trkpt lat="46.00368" lon="6.57153">
        <ele>1977.969</ele>
        <time>2012-07-12T13:51:34Z</time>
      </trkpt>
      <trkpt lat="46.00363" lon="6.57144">
        <ele>1978.338</ele>
        <time>2012-07-12T13:51:40Z</time>
      </trkpt>
      <trkpt lat="46.00356" lon="6.57133">
        <ele>1979.118</ele>
        <time>2012-07-12T13:51:48Z</time>
      </trkpt>
      <trkpt lat="46.00347" lon="6.57127">
        <ele>1979.818</ele>
        <time>2012-07-12T13:51:57Z</time>
      </trkpt>
      <trkpt lat="46.00339" lon="6.57119">
        <ele>1981.049</ele>
        <time>2012-07-12T13:52:05Z</time>
      </trkpt>
      <trkpt lat="46.00338" lon="6.57117">
        <ele>1981.028</ele>
        <time>2012-07-12T13:52:09Z</time>
      </trkpt>
      <trkpt lat="46.00341" lon="6.57108">
        <ele>1981.078</ele>
        <time>2012-07-12T13:52:17Z</time>
      </trkpt>
      <trkpt lat="46.00341" lon="6.57105">
        <ele>1981.378</ele>
        <time>2012-07-12T13:52:23Z</time>
      </trkpt>
      <trkpt lat="46.00338" lon="6.57102">
        <ele>1981.548</ele>
        <time>2012-07-12T13:52:28Z</time>
      </trkpt>
      <trkpt lat="46.00337" lon="6.57101">
        <ele>1981.768</ele>
        <time>2012-07-12T13:52:33Z</time>
      </trkpt>
      <trkpt lat="46.00336" lon="6.57101">
        <ele>1982.018</ele>
        <time>2012-07-12T13:52:44Z</time>
      </trkpt>
      <trkpt lat="46.00336" lon="6.57101">
        <ele>1981.958</ele>
        <time>2012-07-12T13:52:49Z</time>
      </trkpt>
      <trkpt lat="46.00332" lon="6.57098">
        <ele>1982.618</ele>
        <time>2012-07-12T13:52:57Z</time>
      </trkpt>
      <trkpt lat="46.00331" lon="6.57098">
        <ele>1982.678</ele>
        <time>2012-07-12T13:53:16Z</time>
      </trkpt>
      <trkpt lat="46.00331" lon="6.571">
        <ele>1982.557</ele>
        <time>2012-07-12T13:53:18Z</time>
      </trkpt>
      <trkpt lat="46.00324" lon="6.57104">
        <ele>1981.286</ele>
        <time>2012-07-12T13:53:26Z</time>
      </trkpt>
      <trkpt lat="46.00315" lon="6.57099">
        <ele>1980.467</ele>
        <time>2012-07-12T13:53:31Z</time>
      </trkpt>
      <trkpt lat="46.00305" lon="6.57095">
        <ele>1979.495</ele>
        <time>2012-07-12T13:53:36Z</time>
      </trkpt>
      <trkpt lat="46.00293" lon="6.57093">
        <ele>1978.627</ele>
        <time>2012-07-12T13:53:42Z</time>
      </trkpt>
      <trkpt lat="46.00289" lon="6.57091">
        <ele>1978.277</ele>
        <time>2012-07-12T13:53:47Z</time>
      </trkpt>
      <trkpt lat="46.00289" lon="6.57091">
        <ele>1978.438</ele>
        <time>2012-07-12T13:53:53Z</time>
      </trkpt>
      <trkpt lat="46.00287" lon="6.57083">
        <ele>1979.679</ele>
        <time>2012-07-12T13:54:00Z</time>
      </trkpt>
      <trkpt lat="46.00282" lon="6.57077">
        <ele>1980.247</ele>
        <time>2012-07-12T13:54:08Z</time>
      </trkpt>
      <trkpt lat="46.00273" lon="6.57067">
        <ele>1980.237</ele>
        <time>2012-07-12T13:54:18Z</time>
      </trkpt>
      <trkpt lat="46.0027" lon="6.57057">
        <ele>1980.869</ele>
        <time>2012-07-12T13:54:25Z</time>
      </trkpt>
      <trkpt lat="46.00271" lon="6.5705">
        <ele>1982.559</ele>
        <time>2012-07-12T13:54:33Z</time>
      </trkpt>
      <trkpt lat="46.00273" lon="6.57043">
        <ele>1984.42</ele>
        <time>2012-07-12T13:54:41Z</time>
      </trkpt>
      <trkpt lat="46.00271" lon="6.57035">
        <ele>1985.028</ele>
        <time>2012-07-12T13:54:48Z</time>
      </trkpt>
      <trkpt lat="46.00269" lon="6.57031">
        <ele>1985.198</ele>
        <time>2012-07-12T13:54:56Z</time>
      </trkpt>
      <trkpt lat="46.00269" lon="6.57031">
        <ele>1985.218</ele>
        <time>2012-07-12T13:54:59Z</time>
      </trkpt>
      <trkpt lat="46.00263" lon="6.57024">
        <ele>1985.428</ele>
        <time>2012-07-12T13:55:07Z</time>
      </trkpt>
      <trkpt lat="46.00254" lon="6.57019">
        <ele>1985.568</ele>
        <time>2012-07-12T13:55:14Z</time>
      </trkpt>
      <trkpt lat="46.00249" lon="6.57018">
        <ele>1985.577</ele>
        <time>2012-07-12T13:55:20Z</time>
      </trkpt>
      <trkpt lat="46.00244" lon="6.57016">
        <ele>1985.547</ele>
        <time>2012-07-12T13:55:26Z</time>
      </trkpt>
      <trkpt lat="46.00239" lon="6.5701">
        <ele>1985.628</ele>
        <time>2012-07-12T13:55:32Z</time>
      </trkpt>
      <trkpt lat="46.00229" lon="6.57004">
        <ele>1985.868</ele>
        <time>2012-07-12T13:55:39Z</time>
      </trkpt>
      <trkpt lat="46.00221" lon="6.57001">
        <ele>1985.998</ele>
        <time>2012-07-12T13:55:44Z</time>
      </trkpt>
      <trkpt lat="46.00213" lon="6.56998">
        <ele>1985.928</ele>
        <time>2012-07-12T13:55:50Z</time>
      </trkpt>
      <trkpt lat="46.00205" lon="6.56993">
        <ele>1986.388</ele>
        <time>2012-07-12T13:55:56Z</time>
      </trkpt>
      <trkpt lat="46.00199" lon="6.5699">
        <ele>1986.878</ele>
        <time>2012-07-12T13:56:02Z</time>
      </trkpt>
      <trkpt lat="46.00191" lon="6.56985">
        <ele>1987.498</ele>
        <time>2012-07-12T13:56:08Z</time>
      </trkpt>
      <trkpt lat="46.00187" lon="6.56982">
        <ele>1987.698</ele>
        <time>2012-07-12T13:56:14Z</time>
      </trkpt>
      <trkpt lat="46.00185" lon="6.56981">
        <ele>1987.858</ele>
        <time>2012-07-12T13:56:20Z</time>
      </trkpt>
      <trkpt lat="46.0018" lon="6.5698">
        <ele>1987.737</ele>
        <time>2012-07-12T13:56:24Z</time>
      </trkpt>
      <trkpt lat="46.00171" lon="6.56977">
        <ele>1987.968</ele>
        <time>2012-07-12T13:56:30Z</time>
      </trkpt>
      <trkpt lat="46.00161" lon="6.56971">
        <ele>1988.348</ele>
        <time>2012-07-12T13:56:37Z</time>
      </trkpt>
      <trkpt lat="46.00151" lon="6.56962">
        <ele>1988.678</ele>
        <time>2012-07-12T13:56:45Z</time>
      </trkpt>
      <trkpt lat="46.00149" lon="6.56959">
        <ele>1989.149</ele>
        <time>2012-07-12T13:56:47Z</time>
      </trkpt>
      <trkpt lat="46.00145" lon="6.56958">
        <ele>1989.377</ele>
        <time>2012-07-12T13:56:53Z</time>
      </trkpt>
      <trkpt lat="46.00143" lon="6.56955">
        <ele>1990.368</ele>
        <time>2012-07-12T13:57:05Z</time>
      </trkpt>
      <trkpt lat="46.00141" lon="6.56954">
        <ele>1990.718</ele>
        <time>2012-07-12T13:57:10Z</time>
      </trkpt>
      <trkpt lat="46.00133" lon="6.5695">
        <ele>1991.077</ele>
        <time>2012-07-12T13:57:19Z</time>
      </trkpt>
      <trkpt lat="46.00128" lon="6.56948">
        <ele>1991.427</ele>
        <time>2012-07-12T13:57:26Z</time>
      </trkpt>
      <trkpt lat="46.00124" lon="6.56945">
        <ele>1991.517</ele>
        <time>2012-07-12T13:57:34Z</time>
      </trkpt>
      <trkpt lat="46.00117" lon="6.56937">
        <ele>1991.518</ele>
        <time>2012-07-12T13:57:43Z</time>
      </trkpt>
      <trkpt lat="46.0011" lon="6.56932">
        <ele>1991.737</ele>
        <time>2012-07-12T13:57:51Z</time>
      </trkpt>
      <trkpt lat="46.00103" lon="6.56929">
        <ele>1991.867</ele>
        <time>2012-07-12T13:57:59Z</time>
      </trkpt>
      <trkpt lat="46.00094" lon="6.56925">
        <ele>1991.847</ele>
        <time>2012-07-12T13:58:05Z</time>
      </trkpt>
      <trkpt lat="46.00089" lon="6.56921">
        <ele>1992.037</ele>
        <time>2012-07-12T13:58:10Z</time>
      </trkpt>
      <trkpt lat="46.00087" lon="6.56919">
        <ele>1992.328</ele>
        <time>2012-07-12T13:58:16Z</time>
      </trkpt>
      <trkpt lat="46.00085" lon="6.56917">
        <ele>1992.707</ele>
        <time>2012-07-12T13:58:21Z</time>
      </trkpt>
      <trkpt lat="46.00081" lon="6.56911">
        <ele>1993.078</ele>
        <time>2012-07-12T13:58:28Z</time>
      </trkpt>
      <trkpt lat="46.00075" lon="6.56904">
        <ele>1993.318</ele>
        <time>2012-07-12T13:58:36Z</time>
      </trkpt>
      <trkpt lat="46.00075" lon="6.56902">
        <ele>1993.337</ele>
        <time>2012-07-12T13:58:41Z</time>
      </trkpt>
      <trkpt lat="46.0007" lon="6.56895">
        <ele>1993.728</ele>
        <time>2012-07-12T13:58:48Z</time>
      </trkpt>
      <trkpt lat="46.00061" lon="6.5689">
        <ele>1993.696</ele>
        <time>2012-07-12T13:58:55Z</time>
      </trkpt>
      <trkpt lat="46.0005" lon="6.56882">
        <ele>1993.718</ele>
        <time>2012-07-12T13:59:01Z</time>
      </trkpt>
      <trkpt lat="46.00043" lon="6.56877">
        <ele>1993.696</ele>
        <time>2012-07-12T13:59:06Z</time>
      </trkpt>
      <trkpt lat="46.00032" lon="6.56872">
        <ele>1993.737</ele>
        <time>2012-07-12T13:59:11Z</time>
      </trkpt>
      <trkpt lat="46.00025" lon="6.56864">
        <ele>1994.167</ele>
        <time>2012-07-12T13:59:16Z</time>
      </trkpt>
      <trkpt lat="46.00021" lon="6.56858">
        <ele>1994.517</ele>
        <time>2012-07-12T13:59:22Z</time>
      </trkpt>
      <trkpt lat="46.00017" lon="6.56853">
        <ele>1994.958</ele>
        <time>2012-07-12T13:59:28Z</time>
      </trkpt>
      <trkpt lat="46.00008" lon="6.56839">
        <ele>1995.589</ele>
        <time>2012-07-12T13:59:37Z</time>
      </trkpt>
      <trkpt lat="46.00006" lon="6.56835">
        <ele>1995.968</ele>
        <time>2012-07-12T13:59:39Z</time>
      </trkpt>
      <trkpt lat="46" lon="6.5683">
        <ele>1996.107</ele>
        <time>2012-07-12T13:59:45Z</time>
      </trkpt>
      <trkpt lat="45.9999" lon="6.56822">
        <ele>1996.448</ele>
        <time>2012-07-12T13:59:51Z</time>
      </trkpt>
      <trkpt lat="45.99979" lon="6.56817">
        <ele>1996.918</ele>
        <time>2012-07-12T13:59:56Z</time>
      </trkpt>
      <trkpt lat="45.99968" lon="6.56814">
        <ele>1997.557</ele>
        <time>2012-07-12T14:00:02Z</time>
      </trkpt>
      <trkpt lat="45.99958" lon="6.5681">
        <ele>1997.687</ele>
        <time>2012-07-12T14:00:08Z</time>
      </trkpt>
      <trkpt lat="45.99947" lon="6.56801">
        <ele>1997.456</ele>
        <time>2012-07-12T14:00:16Z</time>
      </trkpt>
      <trkpt lat="45.99932" lon="6.56794">
        <ele>1997.687</ele>
        <time>2012-07-12T14:00:24Z</time>
      </trkpt>
      <trkpt lat="45.99922" lon="6.56789">
        <ele>1998.078</ele>
        <time>2012-07-12T14:00:31Z</time>
      </trkpt>
      <trkpt lat="45.99922" lon="6.56789">
        <ele>1998.136</ele>
        <time>2012-07-12T14:00:37Z</time>
      </trkpt>
      <trkpt lat="45.99919" lon="6.56787">
        <ele>1998.507</ele>
        <time>2012-07-12T14:00:45Z</time>
      </trkpt>
      <trkpt lat="45.99916" lon="6.56785">
        <ele>1998.697</ele>
        <time>2012-07-12T14:00:51Z</time>
      </trkpt>
      <trkpt lat="45.99912" lon="6.56782">
        <ele>1999.537</ele>
        <time>2012-07-12T14:00:58Z</time>
      </trkpt>
      <trkpt lat="45.99908" lon="6.5678">
        <ele>2000.427</ele>
        <time>2012-07-12T14:01:04Z</time>
      </trkpt>
      <trkpt lat="45.99899" lon="6.56774">
        <ele>2002.147</ele>
        <time>2012-07-12T14:01:14Z</time>
      </trkpt>
      <trkpt lat="45.99894" lon="6.5677">
        <ele>2003.537</ele>
        <time>2012-07-12T14:01:22Z</time>
      </trkpt>
      <trkpt lat="45.99888" lon="6.56764">
        <ele>2004.327</ele>
        <time>2012-07-12T14:01:30Z</time>
      </trkpt>
      <trkpt lat="45.99884" lon="6.56755">
        <ele>2006.088</ele>
        <time>2012-07-12T14:01:40Z</time>
      </trkpt>
      <trkpt lat="45.99885" lon="6.56748">
        <ele>2007.868</ele>
        <time>2012-07-12T14:01:49Z</time>
      </trkpt>
      <trkpt lat="45.99886" lon="6.56747">
        <ele>2008.188</ele>
        <time>2012-07-12T14:01:51Z</time>
      </trkpt>
      <trkpt lat="45.99886" lon="6.56738">
        <ele>2009.978</ele>
        <time>2012-07-12T14:02:00Z</time>
      </trkpt>
      <trkpt lat="45.99886" lon="6.56731">
        <ele>2010.596</ele>
        <time>2012-07-12T14:02:09Z</time>
      </trkpt>
      <trkpt lat="45.99886" lon="6.56733">
        <ele>2010.806</ele>
        <time>2012-07-12T14:02:21Z</time>
      </trkpt>
      <trkpt lat="45.99883" lon="6.56729">
        <ele>2009.385</ele>
        <time>2012-07-12T14:04:45Z</time>
      </trkpt>
      <trkpt lat="45.99883" lon="6.56723">
        <ele>2007.725</ele>
        <time>2012-07-12T14:04:53Z</time>
      </trkpt>
      <trkpt lat="45.99882" lon="6.56715">
        <ele>2007.084</ele>
        <time>2012-07-12T14:05:00Z</time>
      </trkpt>
      <trkpt lat="45.99882" lon="6.56714">
        <ele>2007.185</ele>
        <time>2012-07-12T14:05:01Z</time>
      </trkpt>
      <trkpt lat="45.9988" lon="6.56705">
        <ele>2006.328</ele>
        <time>2012-07-12T14:05:09Z</time>
      </trkpt>
      <trkpt lat="45.99877" lon="6.56695">
        <ele>2004.254</ele>
        <time>2012-07-12T14:05:18Z</time>
      </trkpt>
      <trkpt lat="45.99875" lon="6.56685">
        <ele>2001.604</ele>
        <time>2012-07-12T14:05:27Z</time>
      </trkpt>
      <trkpt lat="45.99874" lon="6.56676">
        <ele>1999.562</ele>
        <time>2012-07-12T14:05:36Z</time>
      </trkpt>
      <trkpt lat="45.99875" lon="6.56672">
        <ele>1998.394</ele>
        <time>2012-07-12T14:05:40Z</time>
      </trkpt>
      <trkpt lat="45.99876" lon="6.5667">
        <ele>1997.586</ele>
        <time>2012-07-12T14:05:47Z</time>
      </trkpt>
      <trkpt lat="45.99875" lon="6.56668">
        <ele>1998.116</ele>
        <time>2012-07-12T14:06:09Z</time>
      </trkpt>
      <trkpt lat="45.99876" lon="6.56663">
        <ele>1996.065</ele>
        <time>2012-07-12T14:06:20Z</time>
      </trkpt>
      <trkpt lat="45.99875" lon="6.56659">
        <ele>1995.585</ele>
        <time>2012-07-12T14:06:25Z</time>
      </trkpt>
      <trkpt lat="45.99874" lon="6.56655">
        <ele>1995.125</ele>
        <time>2012-07-12T14:06:30Z</time>
      </trkpt>
      <trkpt lat="45.99869" lon="6.56645">
        <ele>1994.003</ele>
        <time>2012-07-12T14:06:36Z</time>
      </trkpt>
      <trkpt lat="45.99863" lon="6.56637">
        <ele>1991.915</ele>
        <time>2012-07-12T14:06:40Z</time>
      </trkpt>
      <trkpt lat="45.99857" lon="6.56621">
        <ele>1990.024</ele>
        <time>2012-07-12T14:06:45Z</time>
      </trkpt>
      <trkpt lat="45.99854" lon="6.56607">
        <ele>1987.173</ele>
        <time>2012-07-12T14:06:51Z</time>
      </trkpt>
      <trkpt lat="45.99848" lon="6.56595">
        <ele>1983.793</ele>
        <time>2012-07-12T14:06:57Z</time>
      </trkpt>
      <trkpt lat="45.99844" lon="6.56584">
        <ele>1982.763</ele>
        <time>2012-07-12T14:07:03Z</time>
      </trkpt>
      <trkpt lat="45.99844" lon="6.56584">
        <ele>1981.495</ele>
        <time>2012-07-12T14:07:08Z</time>
      </trkpt>
      <trkpt lat="45.99844" lon="6.5658">
        <ele>1980.434</ele>
        <time>2012-07-12T14:07:12Z</time>
      </trkpt>
      <trkpt lat="45.99838" lon="6.56571">
        <ele>1978.524</ele>
        <time>2012-07-12T14:07:18Z</time>
      </trkpt>
      <trkpt lat="45.99837" lon="6.56561">
        <ele>1977.464</ele>
        <time>2012-07-12T14:07:21Z</time>
      </trkpt>
      <trkpt lat="45.99831" lon="6.56536">
        <ele>1976.014</ele>
        <time>2012-07-12T14:07:27Z</time>
      </trkpt>
      <trkpt lat="45.99827" lon="6.56507">
        <ele>1973.744</ele>
        <time>2012-07-12T14:07:35Z</time>
      </trkpt>
      <trkpt lat="45.99824" lon="6.56488">
        <ele>1971.523</ele>
        <time>2012-07-12T14:07:41Z</time>
      </trkpt>
      <trkpt lat="45.9982" lon="6.56472">
        <ele>1968.323</ele>
        <time>2012-07-12T14:07:47Z</time>
      </trkpt>
      <trkpt lat="45.99817" lon="6.56461">
        <ele>1965.362</ele>
        <time>2012-07-12T14:07:52Z</time>
      </trkpt>
      <trkpt lat="45.99808" lon="6.56444">
        <ele>1962.113</ele>
        <time>2012-07-12T14:07:59Z</time>
      </trkpt>
      <trkpt lat="45.99803" lon="6.56428">
        <ele>1960.373</ele>
        <time>2012-07-12T14:08:04Z</time>
      </trkpt>
      <trkpt lat="45.998" lon="6.56412">
        <ele>1960.124</ele>
        <time>2012-07-12T14:08:09Z</time>
      </trkpt>
      <trkpt lat="45.99799" lon="6.56405">
        <ele>1958.123</ele>
        <time>2012-07-12T14:08:13Z</time>
      </trkpt>
      <trkpt lat="45.99795" lon="6.5638">
        <ele>1955.684</ele>
        <time>2012-07-12T14:08:22Z</time>
      </trkpt>
      <trkpt lat="45.99791" lon="6.56367">
        <ele>1953.854</ele>
        <time>2012-07-12T14:08:28Z</time>
      </trkpt>
      <trkpt lat="45.99787" lon="6.56357">
        <ele>1951.851</ele>
        <time>2012-07-12T14:08:33Z</time>
      </trkpt>
      <trkpt lat="45.99784" lon="6.56353">
        <ele>1950.563</ele>
        <time>2012-07-12T14:08:37Z</time>
      </trkpt>
      <trkpt lat="45.99784" lon="6.56349">
        <ele>1949.305</ele>
        <time>2012-07-12T14:08:46Z</time>
      </trkpt>
      <trkpt lat="45.9978" lon="6.56339">
        <ele>1948.094</ele>
        <time>2012-07-12T14:08:53Z</time>
      </trkpt>
      <trkpt lat="45.99777" lon="6.56327">
        <ele>1947.405</ele>
        <time>2012-07-12T14:08:58Z</time>
      </trkpt>
      <trkpt lat="45.99774" lon="6.56317">
        <ele>1946.415</ele>
        <time>2012-07-12T14:09:04Z</time>
      </trkpt>
      <trkpt lat="45.99772" lon="6.56309">
        <ele>1946.195</ele>
        <time>2012-07-12T14:09:07Z</time>
      </trkpt>
      <trkpt lat="45.9977" lon="6.563">
        <ele>1946.335</ele>
        <time>2012-07-12T14:09:11Z</time>
      </trkpt>
      <trkpt lat="45.99765" lon="6.56284">
        <ele>1947.315</ele>
        <time>2012-07-12T14:09:18Z</time>
      </trkpt>
      <trkpt lat="45.99762" lon="6.56265">
        <ele>1947.935</ele>
        <time>2012-07-12T14:09:24Z</time>
      </trkpt>
      <trkpt lat="45.99763" lon="6.56241">
        <ele>1945.694</ele>
        <time>2012-07-12T14:09:31Z</time>
      </trkpt>
      <trkpt lat="45.99764" lon="6.5622">
        <ele>1943.983</ele>
        <time>2012-07-12T14:09:36Z</time>
      </trkpt>
      <trkpt lat="45.99765" lon="6.56192">
        <ele>1942.164</ele>
        <time>2012-07-12T14:09:43Z</time>
      </trkpt>
      <trkpt lat="45.99769" lon="6.56169">
        <ele>1939.834</ele>
        <time>2012-07-12T14:09:48Z</time>
      </trkpt>
      <trkpt lat="45.99771" lon="6.56153">
        <ele>1938.615</ele>
        <time>2012-07-12T14:09:52Z</time>
      </trkpt>
      <trkpt lat="45.99772" lon="6.56143">
        <ele>1937.904</ele>
        <time>2012-07-12T14:09:54Z</time>
      </trkpt>
      <trkpt lat="45.99775" lon="6.56123">
        <ele>1936.865</ele>
        <time>2012-07-12T14:09:59Z</time>
      </trkpt>
      <trkpt lat="45.99776" lon="6.56122">
        <ele>1936.175</ele>
        <time>2012-07-12T14:10:06Z</time>
      </trkpt>
      <trkpt lat="45.99776" lon="6.56114">
        <ele>1935.836</ele>
        <time>2012-07-12T14:10:14Z</time>
      </trkpt>
      <trkpt lat="45.99776" lon="6.5611">
        <ele>1935.585</ele>
        <time>2012-07-12T14:10:19Z</time>
      </trkpt>
      <trkpt lat="45.99777" lon="6.56107">
        <ele>1934.835</ele>
        <time>2012-07-12T14:10:26Z</time>
      </trkpt>
      <trkpt lat="45.99777" lon="6.56106">
        <ele>1934.195</ele>
        <time>2012-07-12T14:10:32Z</time>
      </trkpt>
      <trkpt lat="45.99779" lon="6.56102">
        <ele>1933.254</ele>
        <time>2012-07-12T14:10:37Z</time>
      </trkpt>
      <trkpt lat="45.99779" lon="6.56101">
        <ele>1933.034</ele>
        <time>2012-07-12T14:10:38Z</time>
      </trkpt>
      <trkpt lat="45.99782" lon="6.56091">
        <ele>1931.764</ele>
        <time>2012-07-12T14:10:45Z</time>
      </trkpt>
      <trkpt lat="45.99783" lon="6.56086">
        <ele>1931.034</ele>
        <time>2012-07-12T14:10:49Z</time>
      </trkpt>
      <trkpt lat="45.99786" lon="6.56075">
        <ele>1929.293</ele>
        <time>2012-07-12T14:10:54Z</time>
      </trkpt>
      <trkpt lat="45.99788" lon="6.56065">
        <ele>1927.383</ele>
        <time>2012-07-12T14:10:59Z</time>
      </trkpt>
      <trkpt lat="45.99789" lon="6.56063">
        <ele>1926.965</ele>
        <time>2012-07-12T14:11:04Z</time>
      </trkpt>
      <trkpt lat="45.99792" lon="6.56053">
        <ele>1925.454</ele>
        <time>2012-07-12T14:11:11Z</time>
      </trkpt>
      <trkpt lat="45.99793" lon="6.56043">
        <ele>1924.084</ele>
        <time>2012-07-12T14:11:18Z</time>
      </trkpt>
      <trkpt lat="45.99795" lon="6.56031">
        <ele>1922.763</ele>
        <time>2012-07-12T14:11:23Z</time>
      </trkpt>
      <trkpt lat="45.99797" lon="6.56011">
        <ele>1921.533</ele>
        <time>2012-07-12T14:11:29Z</time>
      </trkpt>
      <trkpt lat="45.99798" lon="6.55984">
        <ele>1921.035</ele>
        <time>2012-07-12T14:11:34Z</time>
      </trkpt>
      <trkpt lat="45.99797" lon="6.55971">
        <ele>1920.955</ele>
        <time>2012-07-12T14:11:38Z</time>
      </trkpt>
      <trkpt lat="45.99794" lon="6.55965">
        <ele>1921.795</ele>
        <time>2012-07-12T14:11:45Z</time>
      </trkpt>
      <trkpt lat="45.99793" lon="6.55962">
        <ele>1922.835</ele>
        <time>2012-07-12T14:11:55Z</time>
      </trkpt>
      <trkpt lat="45.99791" lon="6.55959">
        <ele>1922.004</ele>
        <time>2012-07-12T14:12:04Z</time>
      </trkpt>
      <trkpt lat="45.99785" lon="6.55955">
        <ele>1920.865</ele>
        <time>2012-07-12T14:12:13Z</time>
      </trkpt>
      <trkpt lat="45.99785" lon="6.55954">
        <ele>1920.644</ele>
        <time>2012-07-12T14:12:14Z</time>
      </trkpt>
      <trkpt lat="45.99779" lon="6.55947">
        <ele>1918.364</ele>
        <time>2012-07-12T14:12:23Z</time>
      </trkpt>
      <trkpt lat="45.99775" lon="6.55942">
        <ele>1916.414</ele>
        <time>2012-07-12T14:12:30Z</time>
      </trkpt>
      <trkpt lat="45.99768" lon="6.55938">
        <ele>1914.444</ele>
        <time>2012-07-12T14:12:38Z</time>
      </trkpt>
      <trkpt lat="45.99761" lon="6.55933">
        <ele>1912.474</ele>
        <time>2012-07-12T14:12:47Z</time>
      </trkpt>
      <trkpt lat="45.99758" lon="6.55928">
        <ele>1910.834</ele>
        <time>2012-07-12T14:12:54Z</time>
      </trkpt>
      <trkpt lat="45.99753" lon="6.55923">
        <ele>1908.703</ele>
        <time>2012-07-12T14:13:02Z</time>
      </trkpt>
      <trkpt lat="45.99745" lon="6.55919">
        <ele>1906.294</ele>
        <time>2012-07-12T14:13:12Z</time>
      </trkpt>
      <trkpt lat="45.9974" lon="6.5592">
        <ele>1905.044</ele>
        <time>2012-07-12T14:13:20Z</time>
      </trkpt>
      <trkpt lat="45.99734" lon="6.55918">
        <ele>1903.094</ele>
        <time>2012-07-12T14:13:28Z</time>
      </trkpt>
      <trkpt lat="45.99733" lon="6.55917">
        <ele>1902.594</ele>
        <time>2012-07-12T14:13:30Z</time>
      </trkpt>
      <trkpt lat="45.9973" lon="6.55918">
        <ele>1901.944</ele>
        <time>2012-07-12T14:13:34Z</time>
      </trkpt>
      <trkpt lat="45.99727" lon="6.55915">
        <ele>1901.065</ele>
        <time>2012-07-12T14:13:42Z</time>
      </trkpt>
      <trkpt lat="45.99727" lon="6.55913">
        <ele>1900.164</ele>
        <time>2012-07-12T14:13:46Z</time>
      </trkpt>
      <trkpt lat="45.99727" lon="6.55908">
        <ele>1898.363</ele>
        <time>2012-07-12T14:13:50Z</time>
      </trkpt>
      <trkpt lat="45.99729" lon="6.55905">
        <ele>1896.744</ele>
        <time>2012-07-12T14:13:54Z</time>
      </trkpt>
      <trkpt lat="45.99734" lon="6.55899">
        <ele>1894.044</ele>
        <time>2012-07-12T14:14:03Z</time>
      </trkpt>
      <trkpt lat="45.99735" lon="6.55894">
        <ele>1893.124</ele>
        <time>2012-07-12T14:14:08Z</time>
      </trkpt>
      <trkpt lat="45.99734" lon="6.55891">
        <ele>1892.624</ele>
        <time>2012-07-12T14:14:11Z</time>
      </trkpt>
      <trkpt lat="45.99731" lon="6.55889">
        <ele>1891.854</ele>
        <time>2012-07-12T14:14:15Z</time>
      </trkpt>
      <trkpt lat="45.99725" lon="6.55881">
        <ele>1890.114</ele>
        <time>2012-07-12T14:14:24Z</time>
      </trkpt>
      <trkpt lat="45.99719" lon="6.55875">
        <ele>1888.343</ele>
        <time>2012-07-12T14:14:33Z</time>
      </trkpt>
      <trkpt lat="45.99713" lon="6.55868">
        <ele>1886.324</ele>
        <time>2012-07-12T14:14:43Z</time>
      </trkpt>
      <trkpt lat="45.99707" lon="6.55862">
        <ele>1884.668</ele>
        <time>2012-07-12T14:14:51Z</time>
      </trkpt>
      <trkpt lat="45.99702" lon="6.55856">
        <ele>1882.964</ele>
        <time>2012-07-12T14:14:59Z</time>
      </trkpt>
      <trkpt lat="45.99696" lon="6.55855">
        <ele>1881.193</ele>
        <time>2012-07-12T14:15:07Z</time>
      </trkpt>
      <trkpt lat="45.99693" lon="6.55853">
        <ele>1880.374</ele>
        <time>2012-07-12T14:15:13Z</time>
      </trkpt>
      <trkpt lat="45.99686" lon="6.55852">
        <ele>1878.634</ele>
        <time>2012-07-12T14:15:21Z</time>
      </trkpt>
      <trkpt lat="45.9968" lon="6.55845">
        <ele>1876.834</ele>
        <time>2012-07-12T14:15:30Z</time>
      </trkpt>
      <trkpt lat="45.99675" lon="6.55837">
        <ele>1875.223</ele>
        <time>2012-07-12T14:15:38Z</time>
      </trkpt>
      <trkpt lat="45.99669" lon="6.55832">
        <ele>1873.714</ele>
        <time>2012-07-12T14:15:46Z</time>
      </trkpt>
      <trkpt lat="45.99665" lon="6.55827">
        <ele>1871.914</ele>
        <time>2012-07-12T14:15:55Z</time>
      </trkpt>
      <trkpt lat="45.99662" lon="6.55823">
        <ele>1871.033</ele>
        <time>2012-07-12T14:16:01Z</time>
      </trkpt>
      <trkpt lat="45.9966" lon="6.55817">
        <ele>1869.584</ele>
        <time>2012-07-12T14:16:06Z</time>
      </trkpt>
      <trkpt lat="45.99654" lon="6.55813">
        <ele>1868.073</ele>
        <time>2012-07-12T14:16:13Z</time>
      </trkpt>
      <trkpt lat="45.99645" lon="6.55808">
        <ele>1865.483</ele>
        <time>2012-07-12T14:16:23Z</time>
      </trkpt>
      <trkpt lat="45.99639" lon="6.55804">
        <ele>1863.933</ele>
        <time>2012-07-12T14:16:30Z</time>
      </trkpt>
      <trkpt lat="45.99637" lon="6.55803">
        <ele>1863.474</ele>
        <time>2012-07-12T14:16:32Z</time>
      </trkpt>
      <trkpt lat="45.9963" lon="6.55796">
        <ele>1861.494</ele>
        <time>2012-07-12T14:16:41Z</time>
      </trkpt>
      <trkpt lat="45.99624" lon="6.55792">
        <ele>1859.934</ele>
        <time>2012-07-12T14:16:49Z</time>
      </trkpt>
      <trkpt lat="45.99617" lon="6.5579">
        <ele>1858.354</ele>
        <time>2012-07-12T14:16:57Z</time>
      </trkpt>
      <trkpt lat="45.99611" lon="6.55786">
        <ele>1856.533</ele>
        <time>2012-07-12T14:17:04Z</time>
      </trkpt>
      <trkpt lat="45.99605" lon="6.55783">
        <ele>1854.603</ele>
        <time>2012-07-12T14:17:12Z</time>
      </trkpt>
      <trkpt lat="45.99598" lon="6.55779">
        <ele>1852.363</ele>
        <time>2012-07-12T14:17:21Z</time>
      </trkpt>
      <trkpt lat="45.99592" lon="6.55776">
        <ele>1850.513</ele>
        <time>2012-07-12T14:17:28Z</time>
      </trkpt>
      <trkpt lat="45.99588" lon="6.55772">
        <ele>1849.044</ele>
        <time>2012-07-12T14:17:35Z</time>
      </trkpt>
      <trkpt lat="45.99581" lon="6.55769">
        <ele>1847.413</ele>
        <time>2012-07-12T14:17:44Z</time>
      </trkpt>
      <trkpt lat="45.99574" lon="6.55765">
        <ele>1845.413</ele>
        <time>2012-07-12T14:17:53Z</time>
      </trkpt>
      <trkpt lat="45.99568" lon="6.55764">
        <ele>1843.703</ele>
        <time>2012-07-12T14:18:00Z</time>
      </trkpt>
      <trkpt lat="45.99562" lon="6.55763">
        <ele>1841.562</ele>
        <time>2012-07-12T14:18:07Z</time>
      </trkpt>
      <trkpt lat="45.99561" lon="6.55763">
        <ele>1841.273</ele>
        <time>2012-07-12T14:18:08Z</time>
      </trkpt>
      <trkpt lat="45.99555" lon="6.55767">
        <ele>1839.403</ele>
        <time>2012-07-12T14:18:16Z</time>
      </trkpt>
      <trkpt lat="45.99548" lon="6.55765">
        <ele>1838.043</ele>
        <time>2012-07-12T14:18:23Z</time>
      </trkpt>
      <trkpt lat="45.9954" lon="6.55761">
        <ele>1837.294</ele>
        <time>2012-07-12T14:18:32Z</time>
      </trkpt>
      <trkpt lat="45.99535" lon="6.55758">
        <ele>1836.093</ele>
        <time>2012-07-12T14:18:39Z</time>
      </trkpt>
      <trkpt lat="45.99528" lon="6.55755">
        <ele>1834.273</ele>
        <time>2012-07-12T14:18:48Z</time>
      </trkpt>
      <trkpt lat="45.99521" lon="6.55752">
        <ele>1832.553</ele>
        <time>2012-07-12T14:18:56Z</time>
      </trkpt>
      <trkpt lat="45.99515" lon="6.5575">
        <ele>1830.883</ele>
        <time>2012-07-12T14:19:04Z</time>
      </trkpt>
      <trkpt lat="45.9951" lon="6.55749">
        <ele>1829.274</ele>
        <time>2012-07-12T14:19:11Z</time>
      </trkpt>
      <trkpt lat="45.99506" lon="6.55749">
        <ele>1827.613</ele>
        <time>2012-07-12T14:19:17Z</time>
      </trkpt>
      <trkpt lat="45.99503" lon="6.5575">
        <ele>1826.694</ele>
        <time>2012-07-12T14:19:25Z</time>
      </trkpt>
      <trkpt lat="45.99501" lon="6.55752">
        <ele>1826.595</ele>
        <time>2012-07-12T14:19:32Z</time>
      </trkpt>
      <trkpt lat="45.99499" lon="6.55754">
        <ele>1825.793</ele>
        <time>2012-07-12T14:19:36Z</time>
      </trkpt>
      <trkpt lat="45.99494" lon="6.55758">
        <ele>1823.913</ele>
        <time>2012-07-12T14:19:44Z</time>
      </trkpt>
      <trkpt lat="45.99489" lon="6.55756">
        <ele>1822.814</ele>
        <time>2012-07-12T14:19:51Z</time>
      </trkpt>
      <trkpt lat="45.99486" lon="6.55758">
        <ele>1822.305</ele>
        <time>2012-07-12T14:19:58Z</time>
      </trkpt>
      <trkpt lat="45.99481" lon="6.55759">
        <ele>1822.645</ele>
        <time>2012-07-12T14:20:04Z</time>
      </trkpt>
      <trkpt lat="45.99475" lon="6.5576">
        <ele>1823.165</ele>
        <time>2012-07-12T14:20:11Z</time>
      </trkpt>
      <trkpt lat="45.99473" lon="6.5576">
        <ele>1823.444</ele>
        <time>2012-07-12T14:20:18Z</time>
      </trkpt>
      <trkpt lat="45.9947" lon="6.55757">
        <ele>1821.973</ele>
        <time>2012-07-12T14:20:34Z</time>
      </trkpt>
      <trkpt lat="45.99469" lon="6.55754">
        <ele>1820.483</ele>
        <time>2012-07-12T14:20:39Z</time>
      </trkpt>
      <trkpt lat="45.99468" lon="6.55749">
        <ele>1818.202</ele>
        <time>2012-07-12T14:20:45Z</time>
      </trkpt>
      <trkpt lat="45.99467" lon="6.55743">
        <ele>1816.843</ele>
        <time>2012-07-12T14:20:51Z</time>
      </trkpt>
      <trkpt lat="45.99465" lon="6.55739">
        <ele>1815.923</ele>
        <time>2012-07-12T14:20:55Z</time>
      </trkpt>
      <trkpt lat="45.99462" lon="6.55736">
        <ele>1815.524</ele>
        <time>2012-07-12T14:21:00Z</time>
      </trkpt>
      <trkpt lat="45.9946" lon="6.55731">
        <ele>1814.283</ele>
        <time>2012-07-12T14:21:07Z</time>
      </trkpt>
      <trkpt lat="45.9946" lon="6.55729">
        <ele>1813.224</ele>
        <time>2012-07-12T14:21:17Z</time>
      </trkpt>
      <trkpt lat="45.99462" lon="6.55726">
        <ele>1812.734</ele>
        <time>2012-07-12T14:21:26Z</time>
      </trkpt>
      <trkpt lat="45.99461" lon="6.5572">
        <ele>1811.133</ele>
        <time>2012-07-12T14:21:33Z</time>
      </trkpt>
      <trkpt lat="45.99461" lon="6.55718">
        <ele>1811.544</ele>
        <time>2012-07-12T14:21:42Z</time>
      </trkpt>
      <trkpt lat="45.99464" lon="6.55708">
        <ele>1810.153</ele>
        <time>2012-07-12T14:21:50Z</time>
      </trkpt>
      <trkpt lat="45.99466" lon="6.55696">
        <ele>1807.623</ele>
        <time>2012-07-12T14:21:59Z</time>
      </trkpt>
      <trkpt lat="45.99465" lon="6.55684">
        <ele>1804.453</ele>
        <time>2012-07-12T14:22:08Z</time>
      </trkpt>
      <trkpt lat="45.99465" lon="6.55674">
        <ele>1802.052</ele>
        <time>2012-07-12T14:22:15Z</time>
      </trkpt>
      <trkpt lat="45.99467" lon="6.55665">
        <ele>1799.913</ele>
        <time>2012-07-12T14:22:23Z</time>
      </trkpt>
      <trkpt lat="45.99469" lon="6.55657">
        <ele>1798.293</ele>
        <time>2012-07-12T14:22:31Z</time>
      </trkpt>
      <trkpt lat="45.99466" lon="6.55654">
        <ele>1797.474</ele>
        <time>2012-07-12T14:22:37Z</time>
      </trkpt>
      <trkpt lat="45.9946" lon="6.5565">
        <ele>1796.253</ele>
        <time>2012-07-12T14:22:46Z</time>
      </trkpt>
      <trkpt lat="45.99455" lon="6.55646">
        <ele>1795.093</ele>
        <time>2012-07-12T14:22:54Z</time>
      </trkpt>
      <trkpt lat="45.99452" lon="6.55645">
        <ele>1794.343</ele>
        <time>2012-07-12T14:22:58Z</time>
      </trkpt>
      <trkpt lat="45.99446" lon="6.55645">
        <ele>1792.403</ele>
        <time>2012-07-12T14:23:07Z</time>
      </trkpt>
      <trkpt lat="45.99443" lon="6.55645">
        <ele>1791.604</ele>
        <time>2012-07-12T14:23:15Z</time>
      </trkpt>
      <trkpt lat="45.99442" lon="6.55645">
        <ele>1791.555</ele>
        <time>2012-07-12T14:23:27Z</time>
      </trkpt>
      <trkpt lat="45.99439" lon="6.55647">
        <ele>1790.873</ele>
        <time>2012-07-12T14:23:30Z</time>
      </trkpt>
      <trkpt lat="45.99434" lon="6.55648">
        <ele>1789.583</ele>
        <time>2012-07-12T14:23:37Z</time>
      </trkpt>
      <trkpt lat="45.9943" lon="6.55649">
        <ele>1788.483</ele>
        <time>2012-07-12T14:23:44Z</time>
      </trkpt>
      <trkpt lat="45.99423" lon="6.55646">
        <ele>1786.813</ele>
        <time>2012-07-12T14:23:53Z</time>
      </trkpt>
      <trkpt lat="45.99418" lon="6.55646">
        <ele>1785.503</ele>
        <time>2012-07-12T14:24:00Z</time>
      </trkpt>
      <trkpt lat="45.99413" lon="6.55649">
        <ele>1783.883</ele>
        <time>2012-07-12T14:24:08Z</time>
      </trkpt>
      <trkpt lat="45.99408" lon="6.55654">
        <ele>1782.753</ele>
        <time>2012-07-12T14:24:15Z</time>
      </trkpt>
      <trkpt lat="45.99403" lon="6.55658">
        <ele>1781.163</ele>
        <time>2012-07-12T14:24:22Z</time>
      </trkpt>
      <trkpt lat="45.994" lon="6.55658">
        <ele>1780.343</ele>
        <time>2012-07-12T14:24:25Z</time>
      </trkpt>
      <trkpt lat="45.99396" lon="6.55663">
        <ele>1779.663</ele>
        <time>2012-07-12T14:24:29Z</time>
      </trkpt>
      <trkpt lat="45.99392" lon="6.55669">
        <ele>1779.973</ele>
        <time>2012-07-12T14:24:37Z</time>
      </trkpt>
      <trkpt lat="45.99387" lon="6.55675">
        <ele>1778.792</ele>
        <time>2012-07-12T14:24:42Z</time>
      </trkpt>
      <trkpt lat="45.99377" lon="6.5569">
        <ele>1777.002</ele>
        <time>2012-07-12T14:24:48Z</time>
      </trkpt>
      <trkpt lat="45.99375" lon="6.55695">
        <ele>1776.402</ele>
        <time>2012-07-12T14:24:50Z</time>
      </trkpt>
      <trkpt lat="45.99374" lon="6.55697">
        <ele>1775.392</ele>
        <time>2012-07-12T14:24:53Z</time>
      </trkpt>
      <trkpt lat="45.9937" lon="6.55699">
        <ele>1773.262</ele>
        <time>2012-07-12T14:24:57Z</time>
      </trkpt>
      <trkpt lat="45.99359" lon="6.55708">
        <ele>1770.432</ele>
        <time>2012-07-12T14:25:04Z</time>
      </trkpt>
      <trkpt lat="45.99351" lon="6.55717">
        <ele>1768.631</ele>
        <time>2012-07-12T14:25:09Z</time>
      </trkpt>
      <trkpt lat="45.99347" lon="6.55722">
        <ele>1767.904</ele>
        <time>2012-07-12T14:25:14Z</time>
      </trkpt>
      <trkpt lat="45.99345" lon="6.55721">
        <ele>1767.423</ele>
        <time>2012-07-12T14:25:24Z</time>
      </trkpt>
      <trkpt lat="45.9934" lon="6.55723">
        <ele>1766.544</ele>
        <time>2012-07-12T14:25:32Z</time>
      </trkpt>
      <trkpt lat="45.99338" lon="6.55722">
        <ele>1766.043</ele>
        <time>2012-07-12T14:25:37Z</time>
      </trkpt>
      <trkpt lat="45.99336" lon="6.55723">
        <ele>1766.875</ele>
        <time>2012-07-12T14:25:43Z</time>
      </trkpt>
      <trkpt lat="45.99334" lon="6.55724">
        <ele>1767.434</ele>
        <time>2012-07-12T14:25:51Z</time>
      </trkpt>
      <trkpt lat="45.99333" lon="6.55724">
        <ele>1767.324</ele>
        <time>2012-07-12T14:25:53Z</time>
      </trkpt>
      <trkpt lat="45.99329" lon="6.55725">
        <ele>1766.063</ele>
        <time>2012-07-12T14:26:00Z</time>
      </trkpt>
      <trkpt lat="45.99327" lon="6.55727">
        <ele>1765.333</ele>
        <time>2012-07-12T14:26:03Z</time>
      </trkpt>
      <trkpt lat="45.9932" lon="6.55729">
        <ele>1763.543</ele>
        <time>2012-07-12T14:26:10Z</time>
      </trkpt>
      <trkpt lat="45.99317" lon="6.55729">
        <ele>1761.902</ele>
        <time>2012-07-12T14:26:16Z</time>
      </trkpt>
      <trkpt lat="45.99313" lon="6.5573">
        <ele>1761.123</ele>
        <time>2012-07-12T14:26:20Z</time>
      </trkpt>
      <trkpt lat="45.99309" lon="6.5573">
        <ele>1759.813</ele>
        <time>2012-07-12T14:26:27Z</time>
      </trkpt>
      <trkpt lat="45.99309" lon="6.55718">
        <ele>1756.812</ele>
        <time>2012-07-12T14:26:37Z</time>
      </trkpt>
      <trkpt lat="45.9931" lon="6.55714">
        <ele>1755.813</ele>
        <time>2012-07-12T14:26:41Z</time>
      </trkpt>
      <trkpt lat="45.9931" lon="6.55708">
        <ele>1754.493</ele>
        <time>2012-07-12T14:26:46Z</time>
      </trkpt>
      <trkpt lat="45.99308" lon="6.557">
        <ele>1751.811</ele>
        <time>2012-07-12T14:26:53Z</time>
      </trkpt>
      <trkpt lat="45.99306" lon="6.55694">
        <ele>1749.792</ele>
        <time>2012-07-12T14:26:59Z</time>
      </trkpt>
      <trkpt lat="45.99307" lon="6.55685">
        <ele>1748.533</ele>
        <time>2012-07-12T14:27:05Z</time>
      </trkpt>
      <trkpt lat="45.99307" lon="6.55682">
        <ele>1748.123</ele>
        <time>2012-07-12T14:27:07Z</time>
      </trkpt>
      <trkpt lat="45.99311" lon="6.55673">
        <ele>1746.693</ele>
        <time>2012-07-12T14:27:15Z</time>
      </trkpt>
      <trkpt lat="45.99312" lon="6.5567">
        <ele>1746.254</ele>
        <time>2012-07-12T14:27:19Z</time>
      </trkpt>
      <trkpt lat="45.99312" lon="6.55668">
        <ele>1745.623</ele>
        <time>2012-07-12T14:27:21Z</time>
      </trkpt>
      <trkpt lat="45.99309" lon="6.5566">
        <ele>1743.792</ele>
        <time>2012-07-12T14:27:28Z</time>
      </trkpt>
      <trkpt lat="45.99305" lon="6.55656">
        <ele>1742.242</ele>
        <time>2012-07-12T14:27:33Z</time>
      </trkpt>
      <trkpt lat="45.99303" lon="6.55655">
        <ele>1741.544</ele>
        <time>2012-07-12T14:27:40Z</time>
      </trkpt>
      <trkpt lat="45.99301" lon="6.55653">
        <ele>1741.204</ele>
        <time>2012-07-12T14:27:46Z</time>
      </trkpt>
      <trkpt lat="45.993" lon="6.55651">
        <ele>1741.134</ele>
        <time>2012-07-12T14:27:49Z</time>
      </trkpt>
      <trkpt lat="45.99295" lon="6.55647">
        <ele>1740.154</ele>
        <time>2012-07-12T14:27:56Z</time>
      </trkpt>
      <trkpt lat="45.99295" lon="6.55642">
        <ele>1738.993</ele>
        <time>2012-07-12T14:28:03Z</time>
      </trkpt>
      <trkpt lat="45.99295" lon="6.55641">
        <ele>1738.693</ele>
        <time>2012-07-12T14:28:04Z</time>
      </trkpt>
      <trkpt lat="45.99293" lon="6.55635">
        <ele>1736.833</ele>
        <time>2012-07-12T14:28:10Z</time>
      </trkpt>
      <trkpt lat="45.99293" lon="6.5563">
        <ele>1735.593</ele>
        <time>2012-07-12T14:28:14Z</time>
      </trkpt>
      <trkpt lat="45.9929" lon="6.55625">
        <ele>1734.773</ele>
        <time>2012-07-12T14:28:20Z</time>
      </trkpt>
      <trkpt lat="45.9929" lon="6.55618">
        <ele>1733.613</ele>
        <time>2012-07-12T14:28:26Z</time>
      </trkpt>
      <trkpt lat="45.99287" lon="6.55616">
        <ele>1732.953</ele>
        <time>2012-07-12T14:28:29Z</time>
      </trkpt>
      <trkpt lat="45.9928" lon="6.55618">
        <ele>1732.244</ele>
        <time>2012-07-12T14:28:36Z</time>
      </trkpt>
      <trkpt lat="45.99275" lon="6.55617">
        <ele>1730.973</ele>
        <time>2012-07-12T14:28:44Z</time>
      </trkpt>
      <trkpt lat="45.9927" lon="6.55616">
        <ele>1729.924</ele>
        <time>2012-07-12T14:28:51Z</time>
      </trkpt>
      <trkpt lat="45.99267" lon="6.55617">
        <ele>1729.263</ele>
        <time>2012-07-12T14:28:55Z</time>
      </trkpt>
      <trkpt lat="45.99266" lon="6.5562">
        <ele>1728.694</ele>
        <time>2012-07-12T14:29:02Z</time>
      </trkpt>
      <trkpt lat="45.99264" lon="6.55622">
        <ele>1728.434</ele>
        <time>2012-07-12T14:29:08Z</time>
      </trkpt>
      <trkpt lat="45.99262" lon="6.55624">
        <ele>1727.803</ele>
        <time>2012-07-12T14:29:13Z</time>
      </trkpt>
      <trkpt lat="45.99259" lon="6.55628">
        <ele>1726.173</ele>
        <time>2012-07-12T14:29:20Z</time>
      </trkpt>
      <trkpt lat="45.99256" lon="6.5563">
        <ele>1724.973</ele>
        <time>2012-07-12T14:29:26Z</time>
      </trkpt>
      <trkpt lat="45.99256" lon="6.55624">
        <ele>1724.013</ele>
        <time>2012-07-12T14:29:31Z</time>
      </trkpt>
      <trkpt lat="45.99256" lon="6.55613">
        <ele>1721.163</ele>
        <time>2012-07-12T14:29:40Z</time>
      </trkpt>
      <trkpt lat="45.99259" lon="6.55607">
        <ele>1720.454</ele>
        <time>2012-07-12T14:29:46Z</time>
      </trkpt>
      <trkpt lat="45.99266" lon="6.55595">
        <ele>1719.323</ele>
        <time>2012-07-12T14:29:52Z</time>
      </trkpt>
      <trkpt lat="45.99274" lon="6.55581">
        <ele>1719.124</ele>
        <time>2012-07-12T14:29:57Z</time>
      </trkpt>
      <trkpt lat="45.99281" lon="6.55571">
        <ele>1719.594</ele>
        <time>2012-07-12T14:30:03Z</time>
      </trkpt>
      <trkpt lat="45.9929" lon="6.55561">
        <ele>1719.684</ele>
        <time>2012-07-12T14:30:10Z</time>
      </trkpt>
      <trkpt lat="45.99298" lon="6.55554">
        <ele>1719.163</ele>
        <time>2012-07-12T14:30:15Z</time>
      </trkpt>
      <trkpt lat="45.9931" lon="6.55548">
        <ele>1719.024</ele>
        <time>2012-07-12T14:30:21Z</time>
      </trkpt>
      <trkpt lat="45.99325" lon="6.55537">
        <ele>1718.654</ele>
        <time>2012-07-12T14:30:28Z</time>
      </trkpt>
      <trkpt lat="45.99337" lon="6.55515">
        <ele>1717.994</ele>
        <time>2012-07-12T14:30:35Z</time>
      </trkpt>
      <trkpt lat="45.9935" lon="6.55491">
        <ele>1717.283</ele>
        <time>2012-07-12T14:30:42Z</time>
      </trkpt>
      <trkpt lat="45.99358" lon="6.55467">
        <ele>1717.104</ele>
        <time>2012-07-12T14:30:48Z</time>
      </trkpt>
      <trkpt lat="45.99362" lon="6.5544">
        <ele>1717.354</ele>
        <time>2012-07-12T14:30:55Z</time>
      </trkpt>
      <trkpt lat="45.99369" lon="6.5542">
        <ele>1717.445</ele>
        <time>2012-07-12T14:31:02Z</time>
      </trkpt>
      <trkpt lat="45.99382" lon="6.55399">
        <ele>1717.775</ele>
        <time>2012-07-12T14:31:11Z</time>
      </trkpt>
      <trkpt lat="45.99397" lon="6.55389">
        <ele>1717.704</ele>
        <time>2012-07-12T14:31:19Z</time>
      </trkpt>
      <trkpt lat="45.99413" lon="6.55382">
        <ele>1717.093</ele>
        <time>2012-07-12T14:31:26Z</time>
      </trkpt>
      <trkpt lat="45.99434" lon="6.55373">
        <ele>1716.063</ele>
        <time>2012-07-12T14:31:34Z</time>
      </trkpt>
      <trkpt lat="45.99447" lon="6.55366">
        <ele>1714.973</ele>
        <time>2012-07-12T14:31:40Z</time>
      </trkpt>
      <trkpt lat="45.99464" lon="6.55366">
        <ele>1714.524</ele>
        <time>2012-07-12T14:31:45Z</time>
      </trkpt>
      <trkpt lat="45.99478" lon="6.55361">
        <ele>1714.725</ele>
        <time>2012-07-12T14:31:50Z</time>
      </trkpt>
      <trkpt lat="45.99491" lon="6.55355">
        <ele>1715.065</ele>
        <time>2012-07-12T14:31:56Z</time>
      </trkpt>
      <trkpt lat="45.99508" lon="6.55355">
        <ele>1714.433</ele>
        <time>2012-07-12T14:32:02Z</time>
      </trkpt>
      <trkpt lat="45.99527" lon="6.55349">
        <ele>1714.024</ele>
        <time>2012-07-12T14:32:08Z</time>
      </trkpt>
      <trkpt lat="45.99543" lon="6.55343">
        <ele>1713.634</ele>
        <time>2012-07-12T14:32:14Z</time>
      </trkpt>
      <trkpt lat="45.99551" lon="6.55342">
        <ele>1713.484</ele>
        <time>2012-07-12T14:32:20Z</time>
      </trkpt>
      <trkpt lat="45.99561" lon="6.5534">
        <ele>1713.274</ele>
        <time>2012-07-12T14:32:27Z</time>
      </trkpt>
      <trkpt lat="45.99573" lon="6.55339">
        <ele>1712.974</ele>
        <time>2012-07-12T14:32:34Z</time>
      </trkpt>
      <trkpt lat="45.99585" lon="6.55336">
        <ele>1712.895</ele>
        <time>2012-07-12T14:32:41Z</time>
      </trkpt>
      <trkpt lat="45.99599" lon="6.55333">
        <ele>1713.185</ele>
        <time>2012-07-12T14:32:48Z</time>
      </trkpt>
      <trkpt lat="45.99612" lon="6.55332">
        <ele>1712.864</ele>
        <time>2012-07-12T14:32:54Z</time>
      </trkpt>
      <trkpt lat="45.99629" lon="6.55332">
        <ele>1713.245</ele>
        <time>2012-07-12T14:33:02Z</time>
      </trkpt>
      <trkpt lat="45.9965" lon="6.55332">
        <ele>1713.885</ele>
        <time>2012-07-12T14:33:11Z</time>
      </trkpt>
      <trkpt lat="45.99669" lon="6.55329">
        <ele>1716.296</ele>
        <time>2012-07-12T14:33:20Z</time>
      </trkpt>
      <trkpt lat="45.99686" lon="6.55327">
        <ele>1716.885</ele>
        <time>2012-07-12T14:33:27Z</time>
      </trkpt>
      <trkpt lat="45.99703" lon="6.55327">
        <ele>1718.996</ele>
        <time>2012-07-12T14:33:35Z</time>
      </trkpt>
      <trkpt lat="45.99718" lon="6.55326">
        <ele>1718.945</ele>
        <time>2012-07-12T14:33:42Z</time>
      </trkpt>
      <trkpt lat="45.99734" lon="6.55326">
        <ele>1720.016</ele>
        <time>2012-07-12T14:33:50Z</time>
      </trkpt>
      <trkpt lat="45.99751" lon="6.55328">
        <ele>1719.615</ele>
        <time>2012-07-12T14:33:58Z</time>
      </trkpt>
      <trkpt lat="45.99767" lon="6.55331">
        <ele>1719.927</ele>
        <time>2012-07-12T14:34:06Z</time>
      </trkpt>
      <trkpt lat="45.99778" lon="6.55334">
        <ele>1721.087</ele>
        <time>2012-07-12T14:34:13Z</time>
      </trkpt>
      <trkpt lat="45.99791" lon="6.55337">
        <ele>1722.086</ele>
        <time>2012-07-12T14:34:21Z</time>
      </trkpt>
      <trkpt lat="45.99802" lon="6.55336">
        <ele>1721.845</ele>
        <time>2012-07-12T14:34:27Z</time>
      </trkpt>
      <trkpt lat="45.99817" lon="6.55335">
        <ele>1721.455</ele>
        <time>2012-07-12T14:34:35Z</time>
      </trkpt>
      <trkpt lat="45.9983" lon="6.55336">
        <ele>1721.707</ele>
        <time>2012-07-12T14:34:42Z</time>
      </trkpt>
      <trkpt lat="45.99834" lon="6.55335">
        <ele>1721.345</ele>
        <time>2012-07-12T14:34:47Z</time>
      </trkpt>
      <trkpt lat="45.99835" lon="6.55335">
        <ele>1721.745</ele>
        <time>2012-07-12T14:34:59Z</time>
      </trkpt>
      <trkpt lat="45.99835" lon="6.55335">
        <ele>1721.465</ele>
        <time>2012-07-12T14:35:07Z</time>
      </trkpt>
      <trkpt lat="45.99841" lon="6.55336">
        <ele>1721.505</ele>
        <time>2012-07-12T14:35:13Z</time>
      </trkpt>
      <trkpt lat="45.99853" lon="6.55336">
        <ele>1722.585</ele>
        <time>2012-07-12T14:35:19Z</time>
      </trkpt>
      <trkpt lat="45.99865" lon="6.55335">
        <ele>1723.185</ele>
        <time>2012-07-12T14:35:26Z</time>
      </trkpt>
      <trkpt lat="45.99882" lon="6.55337">
        <ele>1720.843</ele>
        <time>2012-07-12T14:35:34Z</time>
      </trkpt>
      <trkpt lat="45.99899" lon="6.55343">
        <ele>1719.444</ele>
        <time>2012-07-12T14:35:40Z</time>
      </trkpt>
      <trkpt lat="45.99916" lon="6.55344">
        <ele>1719.174</ele>
        <time>2012-07-12T14:35:46Z</time>
      </trkpt>
      <trkpt lat="45.99931" lon="6.55345">
        <ele>1719.604</ele>
        <time>2012-07-12T14:35:52Z</time>
      </trkpt>
      <trkpt lat="45.99945" lon="6.55345">
        <ele>1722.365</ele>
        <time>2012-07-12T14:35:58Z</time>
      </trkpt>
      <trkpt lat="45.99958" lon="6.55345">
        <ele>1722.005</ele>
        <time>2012-07-12T14:36:04Z</time>
      </trkpt>
      <trkpt lat="45.99969" lon="6.55348">
        <ele>1720.534</ele>
        <time>2012-07-12T14:36:09Z</time>
      </trkpt>
      <trkpt lat="45.99988" lon="6.55354">
        <ele>1715.483</ele>
        <time>2012-07-12T14:36:17Z</time>
      </trkpt>
      <trkpt lat="45.99999" lon="6.55362">
        <ele>1712.582</ele>
        <time>2012-07-12T14:36:20Z</time>
      </trkpt>
      <trkpt lat="46.00022" lon="6.5538">
        <ele>1710.484</ele>
        <time>2012-07-12T14:36:25Z</time>
      </trkpt>
      <trkpt lat="46.00036" lon="6.55388">
        <ele>1710.505</ele>
        <time>2012-07-12T14:36:30Z</time>
      </trkpt>
      <trkpt lat="46.00049" lon="6.55394">
        <ele>1710.915</ele>
        <time>2012-07-12T14:36:35Z</time>
      </trkpt>
      <trkpt lat="46.00061" lon="6.55395">
        <ele>1710.894</ele>
        <time>2012-07-12T14:36:40Z</time>
      </trkpt>
      <trkpt lat="46.0008" lon="6.554">
        <ele>1706.342</ele>
        <time>2012-07-12T14:36:47Z</time>
      </trkpt>
      <trkpt lat="46.00097" lon="6.55406">
        <ele>1701.88</ele>
        <time>2012-07-12T14:36:53Z</time>
      </trkpt>
      <trkpt lat="46.00106" lon="6.55415">
        <ele>1699.11</ele>
        <time>2012-07-12T14:36:57Z</time>
      </trkpt>
      <trkpt lat="46.00115" lon="6.55431">
        <ele>1696.071</ele>
        <time>2012-07-12T14:37:02Z</time>
      </trkpt>
      <trkpt lat="46.0013" lon="6.55445">
        <ele>1692.682</ele>
        <time>2012-07-12T14:37:09Z</time>
      </trkpt>
      <trkpt lat="46.00143" lon="6.55448">
        <ele>1690.022</ele>
        <time>2012-07-12T14:37:15Z</time>
      </trkpt>
      <trkpt lat="46.00156" lon="6.55457">
        <ele>1687.614</ele>
        <time>2012-07-12T14:37:21Z</time>
      </trkpt>
      <trkpt lat="46.0017" lon="6.5546">
        <ele>1687.964</ele>
        <time>2012-07-12T14:37:25Z</time>
      </trkpt>
      <trkpt lat="46.00181" lon="6.55456">
        <ele>1686.504</ele>
        <time>2012-07-12T14:37:30Z</time>
      </trkpt>
      <trkpt lat="46.00193" lon="6.5546">
        <ele>1683.983</ele>
        <time>2012-07-12T14:37:35Z</time>
      </trkpt>
      <trkpt lat="46.00203" lon="6.55447">
        <ele>1682.583</ele>
        <time>2012-07-12T14:37:41Z</time>
      </trkpt>
      <trkpt lat="46.00199" lon="6.55436">
        <ele>1682.293</ele>
        <time>2012-07-12T14:37:45Z</time>
      </trkpt>
      <trkpt lat="46.00193" lon="6.55434">
        <ele>1679.302</ele>
        <time>2012-07-12T14:37:48Z</time>
      </trkpt>
      <trkpt lat="46.00184" lon="6.55421">
        <ele>1676.641</ele>
        <time>2012-07-12T14:37:54Z</time>
      </trkpt>
      <trkpt lat="46.00178" lon="6.55404">
        <ele>1675.563</ele>
        <time>2012-07-12T14:38:00Z</time>
      </trkpt>
      <trkpt lat="46.00171" lon="6.55387">
        <ele>1675.453</ele>
        <time>2012-07-12T14:38:05Z</time>
      </trkpt>
      <trkpt lat="46.00161" lon="6.55363">
        <ele>1672.934</ele>
        <time>2012-07-12T14:38:12Z</time>
      </trkpt>
      <trkpt lat="46.00154" lon="6.55341">
        <ele>1669.912</ele>
        <time>2012-07-12T14:38:19Z</time>
      </trkpt>
      <trkpt lat="46.00146" lon="6.55328">
        <ele>1669.574</ele>
        <time>2012-07-12T14:38:23Z</time>
      </trkpt>
      <trkpt lat="46.00152" lon="6.55319">
        <ele>1667.934</ele>
        <time>2012-07-12T14:38:27Z</time>
      </trkpt>
      <trkpt lat="46.00155" lon="6.55321">
        <ele>1665.853</ele>
        <time>2012-07-12T14:38:29Z</time>
      </trkpt>
      <trkpt lat="46.00158" lon="6.55325">
        <ele>1662.741</ele>
        <time>2012-07-12T14:38:31Z</time>
      </trkpt>
      <trkpt lat="46.00168" lon="6.55329">
        <ele>1659.769</ele>
        <time>2012-07-12T14:38:36Z</time>
      </trkpt>
      <trkpt lat="46.00184" lon="6.55337">
        <ele>1655.262</ele>
        <time>2012-07-12T14:38:43Z</time>
      </trkpt>
      <trkpt lat="46.00197" lon="6.55346">
        <ele>1652.302</ele>
        <time>2012-07-12T14:38:48Z</time>
      </trkpt>
      <trkpt lat="46.00215" lon="6.55362">
        <ele>1651.044</ele>
        <time>2012-07-12T14:38:55Z</time>
      </trkpt>
      <trkpt lat="46.0023" lon="6.55369">
        <ele>1651.945</ele>
        <time>2012-07-12T14:39:00Z</time>
      </trkpt>
      <trkpt lat="46.00248" lon="6.55375">
        <ele>1650.094</ele>
        <time>2012-07-12T14:39:07Z</time>
      </trkpt>
      <trkpt lat="46.00264" lon="6.55375">
        <ele>1647.432</ele>
        <time>2012-07-12T14:39:13Z</time>
      </trkpt>
      <trkpt lat="46.00279" lon="6.55381">
        <ele>1646.053</ele>
        <time>2012-07-12T14:39:19Z</time>
      </trkpt>
      <trkpt lat="46.00292" lon="6.55393">
        <ele>1644.783</ele>
        <time>2012-07-12T14:39:26Z</time>
      </trkpt>
      <trkpt lat="46.00299" lon="6.55404">
        <ele>1639.761</ele>
        <time>2012-07-12T14:39:32Z</time>
      </trkpt>
      <trkpt lat="46.00312" lon="6.55417">
        <ele>1639.773</ele>
        <time>2012-07-12T14:39:39Z</time>
      </trkpt>
      <trkpt lat="46.00314" lon="6.55418">
        <ele>1640.484</ele>
        <time>2012-07-12T14:39:40Z</time>
      </trkpt>
      <trkpt lat="46.00323" lon="6.55414">
        <ele>1639.503</ele>
        <time>2012-07-12T14:39:45Z</time>
      </trkpt>
      <trkpt lat="46.00328" lon="6.55416">
        <ele>1635.102</ele>
        <time>2012-07-12T14:39:50Z</time>
      </trkpt>
      <trkpt lat="46.00333" lon="6.55422">
        <ele>1632.791</ele>
        <time>2012-07-12T14:39:55Z</time>
      </trkpt>
      <trkpt lat="46.00343" lon="6.55429">
        <ele>1631.973</ele>
        <time>2012-07-12T14:40:00Z</time>
      </trkpt>
      <trkpt lat="46.00357" lon="6.55443">
        <ele>1627.622</ele>
        <time>2012-07-12T14:40:09Z</time>
      </trkpt>
      <trkpt lat="46.00363" lon="6.55452">
        <ele>1626.532</ele>
        <time>2012-07-12T14:40:13Z</time>
      </trkpt>
      <trkpt lat="46.00377" lon="6.55463">
        <ele>1626.014</ele>
        <time>2012-07-12T14:40:20Z</time>
      </trkpt>
      <trkpt lat="46.0039" lon="6.55466">
        <ele>1624.473</ele>
        <time>2012-07-12T14:40:26Z</time>
      </trkpt>
      <trkpt lat="46.00403" lon="6.55462">
        <ele>1621.343</ele>
        <time>2012-07-12T14:40:32Z</time>
      </trkpt>
      <trkpt lat="46.00417" lon="6.55462">
        <ele>1618.792</ele>
        <time>2012-07-12T14:40:38Z</time>
      </trkpt>
      <trkpt lat="46.00431" lon="6.55467">
        <ele>1616.882</ele>
        <time>2012-07-12T14:40:43Z</time>
      </trkpt>
      <trkpt lat="46.00449" lon="6.55465">
        <ele>1613.891</ele>
        <time>2012-07-12T14:40:49Z</time>
      </trkpt>
      <trkpt lat="46.00463" lon="6.55452">
        <ele>1610.962</ele>
        <time>2012-07-12T14:40:55Z</time>
      </trkpt>
      <trkpt lat="46.00468" lon="6.55431">
        <ele>1608.073</ele>
        <time>2012-07-12T14:41:01Z</time>
      </trkpt>
      <trkpt lat="46.00474" lon="6.55417">
        <ele>1605.352</ele>
        <time>2012-07-12T14:41:06Z</time>
      </trkpt>
      <trkpt lat="46.00487" lon="6.55421">
        <ele>1596.751</ele>
        <time>2012-07-12T14:41:12Z</time>
      </trkpt>
      <trkpt lat="46.00491" lon="6.55424">
        <ele>1596.332</ele>
        <time>2012-07-12T14:41:14Z</time>
      </trkpt>
      <trkpt lat="46.0051" lon="6.55433">
        <ele>1594.203</ele>
        <time>2012-07-12T14:41:22Z</time>
      </trkpt>
      <trkpt lat="46.00522" lon="6.55438">
        <ele>1594.644</ele>
        <time>2012-07-12T14:41:27Z</time>
      </trkpt>
      <trkpt lat="46.00534" lon="6.55444">
        <ele>1594.954</ele>
        <time>2012-07-12T14:41:33Z</time>
      </trkpt>
      <trkpt lat="46.0055" lon="6.55454">
        <ele>1590.853</ele>
        <time>2012-07-12T14:41:40Z</time>
      </trkpt>
      <trkpt lat="46.00562" lon="6.55459">
        <ele>1587.793</ele>
        <time>2012-07-12T14:41:45Z</time>
      </trkpt>
      <trkpt lat="46.00573" lon="6.55467">
        <ele>1584.872</ele>
        <time>2012-07-12T14:41:51Z</time>
      </trkpt>
      <trkpt lat="46.00588" lon="6.55483">
        <ele>1578.842</ele>
        <time>2012-07-12T14:41:58Z</time>
      </trkpt>
      <trkpt lat="46.00598" lon="6.55495">
        <ele>1574.633</ele>
        <time>2012-07-12T14:42:04Z</time>
      </trkpt>
      <trkpt lat="46.00606" lon="6.55504">
        <ele>1573.564</ele>
        <time>2012-07-12T14:42:08Z</time>
      </trkpt>
      <trkpt lat="46.00611" lon="6.555">
        <ele>1571.273</ele>
        <time>2012-07-12T14:42:12Z</time>
      </trkpt>
      <trkpt lat="46.00609" lon="6.55496">
        <ele>1570.663</ele>
        <time>2012-07-12T14:42:14Z</time>
      </trkpt>
      <trkpt lat="46.00598" lon="6.55479">
        <ele>1568.964</ele>
        <time>2012-07-12T14:42:19Z</time>
      </trkpt>
      <trkpt lat="46.00589" lon="6.55464">
        <ele>1569.155</ele>
        <time>2012-07-12T14:42:23Z</time>
      </trkpt>
      <trkpt lat="46.00586" lon="6.55459">
        <ele>1569.335</ele>
        <time>2012-07-12T14:42:25Z</time>
      </trkpt>
      <trkpt lat="46.00589" lon="6.55453">
        <ele>1567.685</ele>
        <time>2012-07-12T14:42:30Z</time>
      </trkpt>
      <trkpt lat="46.006" lon="6.55463">
        <ele>1562.643</ele>
        <time>2012-07-12T14:42:38Z</time>
      </trkpt>
      <trkpt lat="46.00608" lon="6.55471">
        <ele>1560.723</ele>
        <time>2012-07-12T14:42:43Z</time>
      </trkpt>
      <trkpt lat="46.00612" lon="6.55472">
        <ele>1561.314</ele>
        <time>2012-07-12T14:42:44Z</time>
      </trkpt>
      <trkpt lat="46.00618" lon="6.55468">
        <ele>1560.354</ele>
        <time>2012-07-12T14:42:49Z</time>
      </trkpt>
      <trkpt lat="46.00616" lon="6.55465">
        <ele>1559.623</ele>
        <time>2012-07-12T14:42:51Z</time>
      </trkpt>
      <trkpt lat="46.00607" lon="6.55447">
        <ele>1556.372</ele>
        <time>2012-07-12T14:42:58Z</time>
      </trkpt>
      <trkpt lat="46.00597" lon="6.55433">
        <ele>1554.232</ele>
        <time>2012-07-12T14:43:04Z</time>
      </trkpt>
      <trkpt lat="46.00594" lon="6.55428">
        <ele>1554.253</ele>
        <time>2012-07-12T14:43:06Z</time>
      </trkpt>
      <trkpt lat="46.00596" lon="6.5542">
        <ele>1551.974</ele>
        <time>2012-07-12T14:43:11Z</time>
      </trkpt>
      <trkpt lat="46.00602" lon="6.55423">
        <ele>1548.983</ele>
        <time>2012-07-12T14:43:15Z</time>
      </trkpt>
      <trkpt lat="46.00615" lon="6.55427">
        <ele>1542.561</ele>
        <time>2012-07-12T14:43:22Z</time>
      </trkpt>
      <trkpt lat="46.00624" lon="6.5543">
        <ele>1540.012</ele>
        <time>2012-07-12T14:43:28Z</time>
      </trkpt>
      <trkpt lat="46.00636" lon="6.55434">
        <ele>1534.511</ele>
        <time>2012-07-12T14:43:35Z</time>
      </trkpt>
      <trkpt lat="46.00643" lon="6.55437">
        <ele>1530.901</ele>
        <time>2012-07-12T14:43:39Z</time>
      </trkpt>
      <trkpt lat="46.00654" lon="6.55445">
        <ele>1526.881</ele>
        <time>2012-07-12T14:43:44Z</time>
      </trkpt>
      <trkpt lat="46.0066" lon="6.55458">
        <ele>1522.69</ele>
        <time>2012-07-12T14:43:49Z</time>
      </trkpt>
      <trkpt lat="46.00661" lon="6.55477">
        <ele>1517.621</ele>
        <time>2012-07-12T14:43:55Z</time>
      </trkpt>
      <trkpt lat="46.00674" lon="6.55506">
        <ele>1517.624</ele>
        <time>2012-07-12T14:44:04Z</time>
      </trkpt>
      <trkpt lat="46.00677" lon="6.55526">
        <ele>1516.605</ele>
        <time>2012-07-12T14:44:10Z</time>
      </trkpt>
      <trkpt lat="46.0069" lon="6.5555">
        <ele>1515.864</ele>
        <time>2012-07-12T14:44:18Z</time>
      </trkpt>
      <trkpt lat="46.00702" lon="6.55565">
        <ele>1512.474</ele>
        <time>2012-07-12T14:44:25Z</time>
      </trkpt>
      <trkpt lat="46.0071" lon="6.55566">
        <ele>1510.324</ele>
        <time>2012-07-12T14:44:31Z</time>
      </trkpt>
      <trkpt lat="46.00715" lon="6.55565">
        <ele>1509.025</ele>
        <time>2012-07-12T14:44:36Z</time>
      </trkpt>
      <trkpt lat="46.00721" lon="6.55564">
        <ele>1509.636</ele>
        <time>2012-07-12T14:44:50Z</time>
      </trkpt>
      <trkpt lat="46.00725" lon="6.55563">
        <ele>1508.005</ele>
        <time>2012-07-12T14:44:57Z</time>
      </trkpt>
      <trkpt lat="46.0073" lon="6.55561">
        <ele>1507.145</ele>
        <time>2012-07-12T14:45:02Z</time>
      </trkpt>
      <trkpt lat="46.00738" lon="6.55556">
        <ele>1505.454</ele>
        <time>2012-07-12T14:45:10Z</time>
      </trkpt>
      <trkpt lat="46.00739" lon="6.55558">
        <ele>1502.386</ele>
        <time>2012-07-12T14:45:17Z</time>
      </trkpt>
      <trkpt lat="46.00737" lon="6.55563">
        <ele>1499.876</ele>
        <time>2012-07-12T14:45:24Z</time>
      </trkpt>
      <trkpt lat="46.0074" lon="6.55569">
        <ele>1497.786</ele>
        <time>2012-07-12T14:45:31Z</time>
      </trkpt>
      <trkpt lat="46.00742" lon="6.55572">
        <ele>1496.985</ele>
        <time>2012-07-12T14:45:33Z</time>
      </trkpt>
      <trkpt lat="46.00751" lon="6.55602">
        <ele>1490.654</ele>
        <time>2012-07-12T14:45:43Z</time>
      </trkpt>
      <trkpt lat="46.00753" lon="6.55612">
        <ele>1489.925</ele>
        <time>2012-07-12T14:45:46Z</time>
      </trkpt>
      <trkpt lat="46.00763" lon="6.55618">
        <ele>1489.956</ele>
        <time>2012-07-12T14:45:51Z</time>
      </trkpt>
      <trkpt lat="46.00767" lon="6.55612">
        <ele>1491.596</ele>
        <time>2012-07-12T14:45:54Z</time>
      </trkpt>
      <trkpt lat="46.00772" lon="6.55591">
        <ele>1493.926</ele>
        <time>2012-07-12T14:46:00Z</time>
      </trkpt>
      <trkpt lat="46.00775" lon="6.55572">
        <ele>1492.204</ele>
        <time>2012-07-12T14:46:05Z</time>
      </trkpt>
      <trkpt lat="46.0077" lon="6.55554">
        <ele>1488.103</ele>
        <time>2012-07-12T14:46:10Z</time>
      </trkpt>
      <trkpt lat="46.00773" lon="6.55554">
        <ele>1482.424</ele>
        <time>2012-07-12T14:46:15Z</time>
      </trkpt>
      <trkpt lat="46.00773" lon="6.55556">
        <ele>1481.514</ele>
        <time>2012-07-12T14:46:16Z</time>
      </trkpt>
      <trkpt lat="46.00783" lon="6.55584">
        <ele>1476.804</ele>
        <time>2012-07-12T14:46:23Z</time>
      </trkpt>
      <trkpt lat="46.00788" lon="6.55607">
        <ele>1472.613</ele>
        <time>2012-07-12T14:46:28Z</time>
      </trkpt>
      <trkpt lat="46.00791" lon="6.5562">
        <ele>1472.815</ele>
        <time>2012-07-12T14:46:32Z</time>
      </trkpt>
      <trkpt lat="46.00791" lon="6.55624">
        <ele>1471.795</ele>
        <time>2012-07-12T14:46:33Z</time>
      </trkpt>
      <trkpt lat="46.00799" lon="6.55623">
        <ele>1472.706</ele>
        <time>2012-07-12T14:46:37Z</time>
      </trkpt>
      <trkpt lat="46.00807" lon="6.55605">
        <ele>1474.495</ele>
        <time>2012-07-12T14:46:42Z</time>
      </trkpt>
      <trkpt lat="46.00808" lon="6.55572">
        <ele>1466.502</ele>
        <time>2012-07-12T14:46:50Z</time>
      </trkpt>
      <trkpt lat="46.0081" lon="6.55541">
        <ele>1461.733</ele>
        <time>2012-07-12T14:46:57Z</time>
      </trkpt>
      <trkpt lat="46.0081" lon="6.55538">
        <ele>1460.513</ele>
        <time>2012-07-12T14:46:58Z</time>
      </trkpt>
      <trkpt lat="46.00813" lon="6.55538">
        <ele>1457.833</ele>
        <time>2012-07-12T14:47:01Z</time>
      </trkpt>
      <trkpt lat="46.00812" lon="6.55558">
        <ele>1453.523</ele>
        <time>2012-07-12T14:47:08Z</time>
      </trkpt>
      <trkpt lat="46.00816" lon="6.55576">
        <ele>1450.994</ele>
        <time>2012-07-12T14:47:13Z</time>
      </trkpt>
      <trkpt lat="46.00824" lon="6.556">
        <ele>1448.813</ele>
        <time>2012-07-12T14:47:19Z</time>
      </trkpt>
      <trkpt lat="46.00832" lon="6.55626">
        <ele>1445.744</ele>
        <time>2012-07-12T14:47:25Z</time>
      </trkpt>
      <trkpt lat="46.00833" lon="6.55629">
        <ele>1446.035</ele>
        <time>2012-07-12T14:47:26Z</time>
      </trkpt>
      <trkpt lat="46.00837" lon="6.55643">
        <ele>1448.036</ele>
        <time>2012-07-12T14:47:31Z</time>
      </trkpt>
      <trkpt lat="46.00848" lon="6.55638">
        <ele>1452.859</ele>
        <time>2012-07-12T14:47:35Z</time>
      </trkpt>
      <trkpt lat="46.00856" lon="6.55612">
        <ele>1450.004</ele>
        <time>2012-07-12T14:47:42Z</time>
      </trkpt>
      <trkpt lat="46.00854" lon="6.55579">
        <ele>1443.693</ele>
        <time>2012-07-12T14:47:49Z</time>
      </trkpt>
      <trkpt lat="46.00859" lon="6.55548">
        <ele>1440.263</ele>
        <time>2012-07-12T14:47:55Z</time>
      </trkpt>
      <trkpt lat="46.00861" lon="6.55544">
        <ele>1439.613</ele>
        <time>2012-07-12T14:47:56Z</time>
      </trkpt>
      <trkpt lat="46.00869" lon="6.55543">
        <ele>1434.191</ele>
        <time>2012-07-12T14:48:00Z</time>
      </trkpt>
      <trkpt lat="46.0087" lon="6.55554">
        <ele>1429.35</ele>
        <time>2012-07-12T14:48:03Z</time>
      </trkpt>
      <trkpt lat="46.0087" lon="6.55582">
        <ele>1425.494</ele>
        <time>2012-07-12T14:48:09Z</time>
      </trkpt>
      <trkpt lat="46.00874" lon="6.55604">
        <ele>1423.514</ele>
        <time>2012-07-12T14:48:14Z</time>
      </trkpt>
      <trkpt lat="46.0088" lon="6.55628">
        <ele>1423.615</ele>
        <time>2012-07-12T14:48:19Z</time>
      </trkpt>
      <trkpt lat="46.00884" lon="6.55636">
        <ele>1423.115</ele>
        <time>2012-07-12T14:48:21Z</time>
      </trkpt>
      <trkpt lat="46.00891" lon="6.55658">
        <ele>1420.624</ele>
        <time>2012-07-12T14:48:26Z</time>
      </trkpt>
      <trkpt lat="46.00892" lon="6.55662">
        <ele>1421.204</ele>
        <time>2012-07-12T14:48:27Z</time>
      </trkpt>
      <trkpt lat="46.00904" lon="6.55672">
        <ele>1422.765</ele>
        <time>2012-07-12T14:48:32Z</time>
      </trkpt>
      <trkpt lat="46.00904" lon="6.5567">
        <ele>1421.214</ele>
        <time>2012-07-12T14:48:33Z</time>
      </trkpt>
      <trkpt lat="46.00908" lon="6.55645">
        <ele>1418.174</ele>
        <time>2012-07-12T14:48:39Z</time>
      </trkpt>
      <trkpt lat="46.00913" lon="6.55613">
        <ele>1412.273</ele>
        <time>2012-07-12T14:48:46Z</time>
      </trkpt>
      <trkpt lat="46.00926" lon="6.5559">
        <ele>1413.546</ele>
        <time>2012-07-12T14:48:51Z</time>
      </trkpt>
      <trkpt lat="46.00937" lon="6.55577">
        <ele>1414.387</ele>
        <time>2012-07-12T14:48:55Z</time>
      </trkpt>
      <trkpt lat="46.00939" lon="6.55577">
        <ele>1412.255</ele>
        <time>2012-07-12T14:48:56Z</time>
      </trkpt>
      <trkpt lat="46.00942" lon="6.55593">
        <ele>1403.151</ele>
        <time>2012-07-12T14:49:01Z</time>
      </trkpt>
      <trkpt lat="46.00937" lon="6.55607">
        <ele>1398.4</ele>
        <time>2012-07-12T14:49:04Z</time>
      </trkpt>
      <trkpt lat="46.00936" lon="6.55625">
        <ele>1394.27</ele>
        <time>2012-07-12T14:49:08Z</time>
      </trkpt>
      <trkpt lat="46.00942" lon="6.5565">
        <ele>1391.001</ele>
        <time>2012-07-12T14:49:13Z</time>
      </trkpt>
      <trkpt lat="46.00949" lon="6.55661">
        <ele>1389.403</ele>
        <time>2012-07-12T14:49:17Z</time>
      </trkpt>
      <trkpt lat="46.00955" lon="6.55668">
        <ele>1389.113</ele>
        <time>2012-07-12T14:49:21Z</time>
      </trkpt>
      <trkpt lat="46.00959" lon="6.55686">
        <ele>1386.333</ele>
        <time>2012-07-12T14:49:27Z</time>
      </trkpt>
      <trkpt lat="46.00969" lon="6.55687">
        <ele>1386.925</ele>
        <time>2012-07-12T14:49:31Z</time>
      </trkpt>
      <trkpt lat="46.00979" lon="6.55678">
        <ele>1389.507</ele>
        <time>2012-07-12T14:49:34Z</time>
      </trkpt>
      <trkpt lat="46.00984" lon="6.55674">
        <ele>1389.938</ele>
        <time>2012-07-12T14:49:36Z</time>
      </trkpt>
      <trkpt lat="46.00991" lon="6.55684">
        <ele>1386.304</ele>
        <time>2012-07-12T14:49:41Z</time>
      </trkpt>
      <trkpt lat="46.0099" lon="6.55687">
        <ele>1385.625</ele>
        <time>2012-07-12T14:49:42Z</time>
      </trkpt>
      <trkpt lat="46.0098" lon="6.55711">
        <ele>1379.773</ele>
        <time>2012-07-12T14:49:48Z</time>
      </trkpt>
      <trkpt lat="46.00976" lon="6.55716">
        <ele>1377.123</ele>
        <time>2012-07-12T14:49:50Z</time>
      </trkpt>
      <trkpt lat="46.00966" lon="6.55735">
        <ele>1368.411</ele>
        <time>2012-07-12T14:49:57Z</time>
      </trkpt>
      <trkpt lat="46.00965" lon="6.55739">
        <ele>1368.182</ele>
        <time>2012-07-12T14:49:58Z</time>
      </trkpt>
      <trkpt lat="46.00966" lon="6.55754">
        <ele>1365.942</ele>
        <time>2012-07-12T14:50:03Z</time>
      </trkpt>
      <trkpt lat="46.00984" lon="6.55766">
        <ele>1363.805</ele>
        <time>2012-07-12T14:50:10Z</time>
      </trkpt>
      <trkpt lat="46.01006" lon="6.55786">
        <ele>1363.386</ele>
        <time>2012-07-12T14:50:18Z</time>
      </trkpt>
      <trkpt lat="46.01017" lon="6.558">
        <ele>1362.516</ele>
        <time>2012-07-12T14:50:23Z</time>
      </trkpt>
      <trkpt lat="46.01027" lon="6.55809">
        <ele>1360.606</ele>
        <time>2012-07-12T14:50:28Z</time>
      </trkpt>
      <trkpt lat="46.01047" lon="6.55825">
        <ele>1359.857</ele>
        <time>2012-07-12T14:50:36Z</time>
      </trkpt>
      <trkpt lat="46.01053" lon="6.5583">
        <ele>1358.317</ele>
        <time>2012-07-12T14:50:42Z</time>
      </trkpt>
      <trkpt lat="46.01059" lon="6.55835">
        <ele>1357.797</ele>
        <time>2012-07-12T14:50:49Z</time>
      </trkpt>
      <trkpt lat="46.01071" lon="6.55852">
        <ele>1356.976</ele>
        <time>2012-07-12T14:50:55Z</time>
      </trkpt>
      <trkpt lat="46.01084" lon="6.55871">
        <ele>1354.595</ele>
        <time>2012-07-12T14:51:02Z</time>
      </trkpt>
      <trkpt lat="46.01098" lon="6.55891">
        <ele>1352.114</ele>
        <time>2012-07-12T14:51:09Z</time>
      </trkpt>
      <trkpt lat="46.01107" lon="6.559">
        <ele>1352.465</ele>
        <time>2012-07-12T14:51:13Z</time>
      </trkpt>
      <trkpt lat="46.01118" lon="6.55909">
        <ele>1351.566</ele>
        <time>2012-07-12T14:51:17Z</time>
      </trkpt>
      <trkpt lat="46.01134" lon="6.55919">
        <ele>1353.767</ele>
        <time>2012-07-12T14:51:22Z</time>
      </trkpt>
      <trkpt lat="46.0114" lon="6.55927">
        <ele>1351.616</ele>
        <time>2012-07-12T14:51:25Z</time>
      </trkpt>
      <trkpt lat="46.01151" lon="6.55947">
        <ele>1353.037</ele>
        <time>2012-07-12T14:51:31Z</time>
      </trkpt>
      <trkpt lat="46.01163" lon="6.55941">
        <ele>1355.009</ele>
        <time>2012-07-12T14:51:35Z</time>
      </trkpt>
      <trkpt lat="46.01165" lon="6.55936">
        <ele>1355.519</ele>
        <time>2012-07-12T14:51:37Z</time>
      </trkpt>
      <trkpt lat="46.01174" lon="6.55922">
        <ele>1365.233</ele>
        <time>2012-07-12T14:51:40Z</time>
      </trkpt>
      <trkpt lat="46.01173" lon="6.55903">
        <ele>1363.101</ele>
        <time>2012-07-12T14:51:45Z</time>
      </trkpt>
      <trkpt lat="46.01176" lon="6.5587">
        <ele>1365.841</ele>
        <time>2012-07-12T14:51:51Z</time>
      </trkpt>
      <trkpt lat="46.01174" lon="6.55856">
        <ele>1362.748</ele>
        <time>2012-07-12T14:51:54Z</time>
      </trkpt>
      <trkpt lat="46.0117" lon="6.5584">
        <ele>1349.43</ele>
        <time>2012-07-12T14:52:00Z</time>
      </trkpt>
      <trkpt lat="46.0118" lon="6.55832">
        <ele>1339.508</ele>
        <time>2012-07-12T14:52:05Z</time>
      </trkpt>
      <trkpt lat="46.0118" lon="6.55821">
        <ele>1324.463</ele>
        <time>2012-07-12T14:52:11Z</time>
      </trkpt>
      <trkpt lat="46.0118" lon="6.5582">
        <ele>1321.492</ele>
        <time>2012-07-12T14:52:12Z</time>
      </trkpt>
      <trkpt lat="46.0118" lon="6.55817">
        <ele>1315.681</ele>
        <time>2012-07-12T14:52:14Z</time>
      </trkpt>
      <trkpt lat="46.01186" lon="6.55817">
        <ele>1308.372</ele>
        <time>2012-07-12T14:52:18Z</time>
      </trkpt>
      <trkpt lat="46.01199" lon="6.55826">
        <ele>1304.437</ele>
        <time>2012-07-12T14:52:24Z</time>
      </trkpt>
      <trkpt lat="46.012" lon="6.55828">
        <ele>1304.549</ele>
        <time>2012-07-12T14:52:25Z</time>
      </trkpt>
      <trkpt lat="46.01205" lon="6.55845">
        <ele>1303.922</ele>
        <time>2012-07-12T14:52:30Z</time>
      </trkpt>
      <trkpt lat="46.01212" lon="6.55867">
        <ele>1302.483</ele>
        <time>2012-07-12T14:52:37Z</time>
      </trkpt>
      <trkpt lat="46.01211" lon="6.55872">
        <ele>1302.414</ele>
        <time>2012-07-12T14:52:38Z</time>
      </trkpt>
      <trkpt lat="46.01213" lon="6.55896">
        <ele>1306.738</ele>
        <time>2012-07-12T14:52:44Z</time>
      </trkpt>
      <trkpt lat="46.01229" lon="6.55907">
        <ele>1316.085</ele>
        <time>2012-07-12T14:52:48Z</time>
      </trkpt>
      <trkpt lat="46.01248" lon="6.55919">
        <ele>1330.051</ele>
        <time>2012-07-12T14:52:52Z</time>
      </trkpt>
      <trkpt lat="46.01267" lon="6.55937">
        <ele>1341.234</ele>
        <time>2012-07-12T14:52:57Z</time>
      </trkpt>
      <trkpt lat="46.01274" lon="6.55946">
        <ele>1344.886</ele>
        <time>2012-07-12T14:52:59Z</time>
      </trkpt>
      <trkpt lat="46.01288" lon="6.55968">
        <ele>1351.981</ele>
        <time>2012-07-12T14:53:04Z</time>
      </trkpt>
      <trkpt lat="46.01293" lon="6.55972">
        <ele>1349.605</ele>
        <time>2012-07-12T14:53:06Z</time>
      </trkpt>
      <trkpt lat="46.013" lon="6.55975">
        <ele>1344.82</ele>
        <time>2012-07-12T14:53:12Z</time>
      </trkpt>
      <trkpt lat="46.01317" lon="6.55985">
        <ele>1337.546</ele>
        <time>2012-07-12T14:53:17Z</time>
      </trkpt>
      <trkpt lat="46.01321" lon="6.55989">
        <ele>1334.924</ele>
        <time>2012-07-12T14:53:18Z</time>
      </trkpt>
      <trkpt lat="46.01338" lon="6.56005">
        <ele>1324.833</ele>
        <time>2012-07-12T14:53:24Z</time>
      </trkpt>
      <trkpt lat="46.01351" lon="6.56017">
        <ele>1315.322</ele>
        <time>2012-07-12T14:53:30Z</time>
      </trkpt>
      <trkpt lat="46.01355" lon="6.56025">
        <ele>1307.842</ele>
        <time>2012-07-12T14:53:35Z</time>
      </trkpt>
      <trkpt lat="46.01365" lon="6.56031">
        <ele>1304.623</ele>
        <time>2012-07-12T14:53:41Z</time>
      </trkpt>
      <trkpt lat="46.01377" lon="6.56035">
        <ele>1303.825</ele>
        <time>2012-07-12T14:53:46Z</time>
      </trkpt>
      <trkpt lat="46.01383" lon="6.56034">
        <ele>1302.786</ele>
        <time>2012-07-12T14:53:50Z</time>
      </trkpt>
      <trkpt lat="46.01393" lon="6.56036">
        <ele>1300.518</ele>
        <time>2012-07-12T14:53:55Z</time>
      </trkpt>
      <trkpt lat="46.01403" lon="6.56046">
        <ele>1300.468</ele>
        <time>2012-07-12T14:54:00Z</time>
      </trkpt>
      <trkpt lat="46.0141" lon="6.56059">
        <ele>1303.059</ele>
        <time>2012-07-12T14:54:05Z</time>
      </trkpt>
      <trkpt lat="46.01413" lon="6.56068">
        <ele>1305.21</ele>
        <time>2012-07-12T14:54:08Z</time>
      </trkpt>
      <trkpt lat="46.01425" lon="6.5608">
        <ele>1312.432</ele>
        <time>2012-07-12T14:54:13Z</time>
      </trkpt>
      <trkpt lat="46.01436" lon="6.56086">
        <ele>1313.349</ele>
        <time>2012-07-12T14:54:19Z</time>
      </trkpt>
      <trkpt lat="46.01442" lon="6.56086">
        <ele>1312.648</ele>
        <time>2012-07-12T14:54:24Z</time>
      </trkpt>
      <trkpt lat="46.0146" lon="6.56098">
        <ele>1313.819</ele>
        <time>2012-07-12T14:54:30Z</time>
      </trkpt>
      <trkpt lat="46.01463" lon="6.56098">
        <ele>1313.529</ele>
        <time>2012-07-12T14:54:31Z</time>
      </trkpt>
      <trkpt lat="46.01469" lon="6.56093">
        <ele>1312.449</ele>
        <time>2012-07-12T14:54:36Z</time>
      </trkpt>
      <trkpt lat="46.01474" lon="6.5609">
        <ele>1311.158</ele>
        <time>2012-07-12T14:54:40Z</time>
      </trkpt>
      <trkpt lat="46.01486" lon="6.56086">
        <ele>1309.338</ele>
        <time>2012-07-12T14:54:46Z</time>
      </trkpt>
      <trkpt lat="46.01503" lon="6.56088">
        <ele>1308.497</ele>
        <time>2012-07-12T14:54:53Z</time>
      </trkpt>
      <trkpt lat="46.01517" lon="6.56094">
        <ele>1309.068</ele>
        <time>2012-07-12T14:54:58Z</time>
      </trkpt>
      <trkpt lat="46.01521" lon="6.56096">
        <ele>1310.209</ele>
        <time>2012-07-12T14:55:00Z</time>
      </trkpt>
      <trkpt lat="46.01531" lon="6.56101">
        <ele>1312.068</ele>
        <time>2012-07-12T14:55:05Z</time>
      </trkpt>
      <trkpt lat="46.01548" lon="6.56102">
        <ele>1310.328</ele>
        <time>2012-07-12T14:55:12Z</time>
      </trkpt>
      <trkpt lat="46.01561" lon="6.56098">
        <ele>1308.967</ele>
        <time>2012-07-12T14:55:17Z</time>
      </trkpt>
      <trkpt lat="46.0159" lon="6.561">
        <ele>1298.845</ele>
        <time>2012-07-12T14:55:24Z</time>
      </trkpt>
      <trkpt lat="46.016" lon="6.56102">
        <ele>1295.344</ele>
        <time>2012-07-12T14:55:26Z</time>
      </trkpt>
      <trkpt lat="46.01619" lon="6.56104">
        <ele>1292.835</ele>
        <time>2012-07-12T14:55:30Z</time>
      </trkpt>
      <trkpt lat="46.01637" lon="6.56105">
        <ele>1290.846</ele>
        <time>2012-07-12T14:55:33Z</time>
      </trkpt>
      <trkpt lat="46.01648" lon="6.56115">
        <ele>1288.297</ele>
        <time>2012-07-12T14:55:37Z</time>
      </trkpt>
      <trkpt lat="46.01647" lon="6.56119">
        <ele>1288.028</ele>
        <time>2012-07-12T14:55:38Z</time>
      </trkpt>
      <trkpt lat="46.01645" lon="6.56144">
        <ele>1288.75</ele>
        <time>2012-07-12T14:55:45Z</time>
      </trkpt>
      <trkpt lat="46.0164" lon="6.56172">
        <ele>1292.23</ele>
        <time>2012-07-12T14:55:53Z</time>
      </trkpt>
      <trkpt lat="46.01639" lon="6.56191">
        <ele>1293.19</ele>
        <time>2012-07-12T14:55:59Z</time>
      </trkpt>
      <trkpt lat="46.01639" lon="6.56209">
        <ele>1293.75</ele>
        <time>2012-07-12T14:56:05Z</time>
      </trkpt>
      <trkpt lat="46.01647" lon="6.56236">
        <ele>1302.333</ele>
        <time>2012-07-12T14:56:14Z</time>
      </trkpt>
      <trkpt lat="46.01643" lon="6.56252">
        <ele>1300.711</ele>
        <time>2012-07-12T14:56:19Z</time>
      </trkpt>
      <trkpt lat="46.01643" lon="6.5628">
        <ele>1305.592</ele>
        <time>2012-07-12T14:56:28Z</time>
      </trkpt>
      <trkpt lat="46.01647" lon="6.56301">
        <ele>1310.643</ele>
        <time>2012-07-12T14:56:35Z</time>
      </trkpt>
      <trkpt lat="46.01646" lon="6.56321">
        <ele>1316.434</ele>
        <time>2012-07-12T14:56:42Z</time>
      </trkpt>
      <trkpt lat="46.01657" lon="6.56344">
        <ele>1330.766</ele>
        <time>2012-07-12T14:56:49Z</time>
      </trkpt>
      <trkpt lat="46.01665" lon="6.56364">
        <ele>1344.147</ele>
        <time>2012-07-12T14:56:56Z</time>
      </trkpt>
      <trkpt lat="46.01666" lon="6.56384">
        <ele>1350.195</ele>
        <time>2012-07-12T14:57:03Z</time>
      </trkpt>
      <trkpt lat="46.01663" lon="6.56408">
        <ele>1344.941</ele>
        <time>2012-07-12T14:57:11Z</time>
      </trkpt>
      <trkpt lat="46.01664" lon="6.56438">
        <ele>1336.108</ele>
        <time>2012-07-12T14:57:21Z</time>
      </trkpt>
      <trkpt lat="46.01673" lon="6.56461">
        <ele>1334.37</ele>
        <time>2012-07-12T14:57:30Z</time>
      </trkpt>
      <trkpt lat="46.01685" lon="6.56479">
        <ele>1336.529</ele>
        <time>2012-07-12T14:57:37Z</time>
      </trkpt>
      <trkpt lat="46.01697" lon="6.56498">
        <ele>1334.238</ele>
        <time>2012-07-12T14:57:45Z</time>
      </trkpt>
      <trkpt lat="46.01709" lon="6.56522">
        <ele>1331.408</ele>
        <time>2012-07-12T14:57:54Z</time>
      </trkpt>
      <trkpt lat="46.01721" lon="6.56547">
        <ele>1329.878</ele>
        <time>2012-07-12T14:58:02Z</time>
      </trkpt>
      <trkpt lat="46.01729" lon="6.56566">
        <ele>1326.536</ele>
        <time>2012-07-12T14:58:09Z</time>
      </trkpt>
      <trkpt lat="46.01744" lon="6.5658">
        <ele>1326.708</ele>
        <time>2012-07-12T14:58:15Z</time>
      </trkpt>
      <trkpt lat="46.01768" lon="6.56592">
        <ele>1327.569</ele>
        <time>2012-07-12T14:58:22Z</time>
      </trkpt>
      <trkpt lat="46.01786" lon="6.56603">
        <ele>1328.829</ele>
        <time>2012-07-12T14:58:28Z</time>
      </trkpt>
      <trkpt lat="46.01801" lon="6.56612">
        <ele>1329.249</ele>
        <time>2012-07-12T14:58:34Z</time>
      </trkpt>
      <trkpt lat="46.01822" lon="6.56623">
        <ele>1331.729</ele>
        <time>2012-07-12T14:58:41Z</time>
      </trkpt>
      <trkpt lat="46.01842" lon="6.56631">
        <ele>1332.579</ele>
        <time>2012-07-12T14:58:48Z</time>
      </trkpt>
      <trkpt lat="46.0186" lon="6.56634">
        <ele>1330.618</ele>
        <time>2012-07-12T14:58:55Z</time>
      </trkpt>
      <trkpt lat="46.01876" lon="6.56644">
        <ele>1329.127</ele>
        <time>2012-07-12T14:59:02Z</time>
      </trkpt>
      <trkpt lat="46.01887" lon="6.56655">
        <ele>1325.665</ele>
        <time>2012-07-12T14:59:09Z</time>
      </trkpt>
      <trkpt lat="46.0189" lon="6.56657">
        <ele>1324.195</ele>
        <time>2012-07-12T14:59:11Z</time>
      </trkpt>
      <trkpt lat="46.019" lon="6.5666">
        <ele>1323.537</ele>
        <time>2012-07-12T14:59:15Z</time>
      </trkpt>
      <trkpt lat="46.01925" lon="6.56661">
        <ele>1326.909</ele>
        <time>2012-07-12T14:59:21Z</time>
      </trkpt>
      <trkpt lat="46.01958" lon="6.56661">
        <ele>1330.541</ele>
        <time>2012-07-12T14:59:29Z</time>
      </trkpt>
      <trkpt lat="46.0198" lon="6.56656">
        <ele>1332.623</ele>
        <time>2012-07-12T14:59:36Z</time>
      </trkpt>
      <trkpt lat="46.01997" lon="6.56657">
        <ele>1333.221</ele>
        <time>2012-07-12T14:59:41Z</time>
      </trkpt>
      <trkpt lat="46.02016" lon="6.56655">
        <ele>1334.842</ele>
        <time>2012-07-12T14:59:47Z</time>
      </trkpt>
      <trkpt lat="46.0203" lon="6.56655">
        <ele>1335.501</ele>
        <time>2012-07-12T14:59:52Z</time>
      </trkpt>
      <trkpt lat="46.02049" lon="6.56665">
        <ele>1331.44</ele>
        <time>2012-07-12T14:59:57Z</time>
      </trkpt>
      <trkpt lat="46.02064" lon="6.56689">
        <ele>1328.409</ele>
        <time>2012-07-12T15:00:03Z</time>
      </trkpt>
      <trkpt lat="46.02082" lon="6.5672">
        <ele>1328.61</ele>
        <time>2012-07-12T15:00:09Z</time>
      </trkpt>
      <trkpt lat="46.02099" lon="6.56748">
        <ele>1330.822</ele>
        <time>2012-07-12T15:00:14Z</time>
      </trkpt>
      <trkpt lat="46.02106" lon="6.56775">
        <ele>1329.971</ele>
        <time>2012-07-12T15:00:18Z</time>
      </trkpt>
      <trkpt lat="46.0211" lon="6.56806">
        <ele>1332.702</ele>
        <time>2012-07-12T15:00:22Z</time>
      </trkpt>
      <trkpt lat="46.02123" lon="6.56842">
        <ele>1333.461</ele>
        <time>2012-07-12T15:00:27Z</time>
      </trkpt>
      <trkpt lat="46.02128" lon="6.56847">
        <ele>1333.691</ele>
        <time>2012-07-12T15:00:28Z</time>
      </trkpt>
      <trkpt lat="46.02138" lon="6.56857">
        <ele>1334.231</ele>
        <time>2012-07-12T15:00:30Z</time>
      </trkpt>
      <trkpt lat="46.0216" lon="6.5689">
        <ele>1338.833</ele>
        <time>2012-07-12T15:00:35Z</time>
      </trkpt>
      <trkpt lat="46.02166" lon="6.56946">
        <ele>1331.358</ele>
        <time>2012-07-12T15:00:42Z</time>
      </trkpt>
      <trkpt lat="46.0218" lon="6.57014">
        <ele>1332.08</ele>
        <time>2012-07-12T15:00:51Z</time>
      </trkpt>
      <trkpt lat="46.02198" lon="6.57088">
        <ele>1332.042</ele>
        <time>2012-07-12T15:01:01Z</time>
      </trkpt>
      <trkpt lat="46.02205" lon="6.57151">
        <ele>1331.049</ele>
        <time>2012-07-12T15:01:09Z</time>
      </trkpt>
      <trkpt lat="46.02206" lon="6.57183">
        <ele>1332.881</ele>
        <time>2012-07-12T15:01:13Z</time>
      </trkpt>
      <trkpt lat="46.02208" lon="6.57223">
        <ele>1334.281</ele>
        <time>2012-07-12T15:01:18Z</time>
      </trkpt>
      <trkpt lat="46.02214" lon="6.57263">
        <ele>1334.191</ele>
        <time>2012-07-12T15:01:23Z</time>
      </trkpt>
      <trkpt lat="46.02234" lon="6.57317">
        <ele>1332.91</ele>
        <time>2012-07-12T15:01:30Z</time>
      </trkpt>
      <trkpt lat="46.02252" lon="6.57357">
        <ele>1329.177</ele>
        <time>2012-07-12T15:01:36Z</time>
      </trkpt>
      <trkpt lat="46.0227" lon="6.57379">
        <ele>1320.755</ele>
        <time>2012-07-12T15:01:43Z</time>
      </trkpt>
      <trkpt lat="46.02284" lon="6.57393">
        <ele>1315.255</ele>
        <time>2012-07-12T15:01:49Z</time>
      </trkpt>
      <trkpt lat="46.02288" lon="6.57404">
        <ele>1306.294</ele>
        <time>2012-07-12T15:01:54Z</time>
      </trkpt>
      <trkpt lat="46.02311" lon="6.57417">
        <ele>1304.097</ele>
        <time>2012-07-12T15:02:00Z</time>
      </trkpt>
      <trkpt lat="46.02326" lon="6.57422">
        <ele>1302.037</ele>
        <time>2012-07-12T15:02:03Z</time>
      </trkpt>
      <trkpt lat="46.02377" lon="6.57425">
        <ele>1306.32</ele>
        <time>2012-07-12T15:02:09Z</time>
      </trkpt>
      <trkpt lat="46.02455" lon="6.57434">
        <ele>1318.19</ele>
        <time>2012-07-12T15:02:16Z</time>
      </trkpt>
      <trkpt lat="46.02491" lon="6.57436">
        <ele>1317.72</ele>
        <time>2012-07-12T15:02:21Z</time>
      </trkpt>
      <trkpt lat="46.02526" lon="6.57434">
        <ele>1316.641</ele>
        <time>2012-07-12T15:02:27Z</time>
      </trkpt>
      <trkpt lat="46.02562" lon="6.57424">
        <ele>1317.002</ele>
        <time>2012-07-12T15:02:33Z</time>
      </trkpt>
      <trkpt lat="46.02589" lon="6.57412">
        <ele>1316.942</ele>
        <time>2012-07-12T15:02:38Z</time>
      </trkpt>
      <trkpt lat="46.0262" lon="6.57398">
        <ele>1316.732</ele>
        <time>2012-07-12T15:02:44Z</time>
      </trkpt>
      <trkpt lat="46.02656" lon="6.57382">
        <ele>1320.303</ele>
        <time>2012-07-12T15:02:50Z</time>
      </trkpt>
      <trkpt lat="46.02688" lon="6.57363">
        <ele>1319.902</ele>
        <time>2012-07-12T15:02:56Z</time>
      </trkpt>
      <trkpt lat="46.02693" lon="6.5736">
        <ele>1319.852</ele>
        <time>2012-07-12T15:02:57Z</time>
      </trkpt>
      <trkpt lat="46.02725" lon="6.57347">
        <ele>1320.073</ele>
        <time>2012-07-12T15:03:03Z</time>
      </trkpt>
      <trkpt lat="46.02746" lon="6.57335">
        <ele>1318.191</ele>
        <time>2012-07-12T15:03:09Z</time>
      </trkpt>
      <trkpt lat="46.02774" lon="6.57324">
        <ele>1313.159</ele>
        <time>2012-07-12T15:03:14Z</time>
      </trkpt>
    </trkseg>
  </trk>
</gpx>